Wetterdaten: Freitag, 23.11.2018
Datum Zeit Temp. A. Pool Temp. Temp. 5cm Feuchte A. Luftdruck Regen Wind Richtung Richtung Sonnenschein ET UV Solar Taupunkt Windchill Windben Empfang
23.11.2018 00:00 2,3 C 3,9 C 2,8 C 96 % 1021,5 hPa 0,0 l/m 2,7 km/h (1 Bft) O-NO 71 0 min 0,000 mm 0,0 UV-I 0 W/m 1,7 C 2,3 C 4,8 km/h (1 Bft) 95,74 %
23.11.2018 00:02 2,2 C 3,9 C 2,8 C 96 % 1021,5 hPa 0,0 l/m 2,1 km/h (1 Bft) O-NO 71 0 min 0,000 mm 0,0 UV-I 0 W/m 1,6 C 2,2 C 3,2 km/h (1 Bft) 95,35 %
23.11.2018 00:04 2,2 C 3,9 C 2,8 C 96 % 1021,6 hPa 0,0 l/m 3,2 km/h (1 Bft) O-SO 113 0 min 0,000 mm 0,0 UV-I 0 W/m 1,6 C 2,2 C 4,8 km/h (1 Bft) 93,62 %
23.11.2018 00:06 2,2 C 3,9 C 2,8 C 96 % 1021,6 hPa 0,0 l/m 4,4 km/h (1 Bft) O-SO 107 0 min 0,000 mm 0,0 UV-I 0 W/m 1,6 C 2,2 C 6,4 km/h (2 Bft) 100,00 %
23.11.2018 00:08 2,2 C 3,9 C 2,8 C 96 % 1021,6 hPa 0,0 l/m 4,2 km/h (1 Bft) O 92 0 min 0,000 mm 0,0 UV-I 0 W/m 1,6 C 2,2 C 6,4 km/h (2 Bft) 100,00 %
23.11.2018 00:10 2,2 C 3,9 C 2,8 C 96 % 1021,6 hPa 0,0 l/m 5,0 km/h (1 Bft) O-SO 111 0 min 0,000 mm 0,0 UV-I 0 W/m 1,6 C 2,2 C 6,4 km/h (2 Bft) 97,87 %
23.11.2018 00:12 2,2 C 3,9 C 2,8 C 96 % 1021,6 hPa 0,0 l/m 4,6 km/h (1 Bft) O-SO 113 0 min 0,000 mm 0,0 UV-I 0 W/m 1,6 C 2,2 C 9,7 km/h (2 Bft) 97,87 %
23.11.2018 00:14 2,2 C 3,9 C 2,2 C 96 % 1021,6 hPa 0,0 l/m 2,8 km/h (1 Bft) O-SO 113 0 min 0,000 mm 0,0 UV-I 0 W/m 1,6 C 2,2 C 4,8 km/h (1 Bft) 95,74 %
23.11.2018 00:16 2,2 C 3,9 C 2,2 C 97 % 1021,5 hPa 0,0 l/m 4,3 km/h (1 Bft) O 82 0 min 0,000 mm 0,0 UV-I 0 W/m 1,8 C 2,2 C 6,4 km/h (2 Bft) 100,00 %
23.11.2018 00:18 2,2 C 3,9 C 2,2 C 96 % 1021,5 hPa 0,0 l/m 5,7 km/h (1 Bft) O-NO 59 0 min 0,000 mm 0,0 UV-I 0 W/m 1,6 C 2,2 C 8,0 km/h (2 Bft) 93,62 %
23.11.2018 00:20 2,2 C 3,9 C 2,2 C 97 % 1021,5 hPa 0,0 l/m 4,6 km/h (1 Bft) O-NO 61 0 min 0,000 mm 0,0 UV-I 0 W/m 1,8 C 2,2 C 6,4 km/h (2 Bft) 97,87 %
23.11.2018 00:22 2,2 C 3,9 C 2,2 C 97 % 1021,6 hPa 0,0 l/m 2,8 km/h (1 Bft) O-NO 61 0 min 0,000 mm 0,0 UV-I 0 W/m 1,8 C 2,2 C 4,8 km/h (1 Bft) 97,87 %
23.11.2018 00:24 2,2 C 3,9 C 2,2 C 97 % 1021,6 hPa 0,0 l/m 1,9 km/h (1 Bft) O-NO 61 0 min 0,000 mm 0,0 UV-I 0 W/m 1,8 C 2,2 C 3,2 km/h (1 Bft) 97,87 %
23.11.2018 00:26 2,2 C 3,9 C 2,2 C 97 % 1021,5 hPa 0,0 l/m 3,4 km/h (1 Bft) O 99 0 min 0,000 mm 0,0 UV-I 0 W/m 1,8 C 2,2 C 4,8 km/h (1 Bft) 97,87 %
23.11.2018 00:28 2,1 C 3,9 C 2,2 C 96 % 1021,6 hPa 0,0 l/m 3,2 km/h (1 Bft) S-SO 157 0 min 0,000 mm 0,0 UV-I 0 W/m 1,5 C 2,1 C 4,8 km/h (1 Bft) 95,74 %
23.11.2018 00:30 2,2 C 3,9 C 2,2 C 96 % 1021,6 hPa 0,0 l/m 1,5 km/h (1 Bft) S-SO 157 0 min 0,000 mm 0,0 UV-I 0 W/m 1,6 C 2,2 C 4,8 km/h (1 Bft) 95,74 %
23.11.2018 00:32 2,2 C 3,9 C 2,8 C 97 % 1021,6 hPa 0,0 l/m 2,8 km/h (1 Bft) S-SO 157 0 min 0,000 mm 0,0 UV-I 0 W/m 1,8 C 2,2 C 4,8 km/h (1 Bft) 97,92 %
23.11.2018 00:34 2,2 C 3,9 C 2,8 C 97 % 1021,6 hPa 0,0 l/m 2,8 km/h (1 Bft) S-SO 157 0 min 0,000 mm 0,0 UV-I 0 W/m 1,8 C 2,2 C 3,2 km/h (1 Bft) 97,87 %
23.11.2018 00:36 2,2 C 3,9 C 2,2 C 97 % 1021,6 hPa 0,0 l/m 2,6 km/h (1 Bft) S-SO 157 0 min 0,000 mm 0,0 UV-I 0 W/m 1,8 C 2,2 C 4,8 km/h (1 Bft) 97,37 %
23.11.2018 00:38 2,2 C 3,9 C 2,8 C 97 % 1021,6 hPa 0,0 l/m 3,1 km/h (1 Bft) N-NO 32 0 min 0,000 mm 0,0 UV-I 0 W/m 1,8 C 2,2 C 6,4 km/h (2 Bft) 97,87 %
23.11.2018 00:40 2,2 C 3,9 C 2,8 C 97 % 1021,6 hPa 0,0 l/m 2,0 km/h (1 Bft) N-NO 32 0 min 0,000 mm 0,0 UV-I 0 W/m 1,8 C 2,2 C 3,2 km/h (1 Bft) 100,00 %
23.11.2018 00:42 2,2 C 3,9 C 2,2 C 97 % 1021,5 hPa 0,0 l/m 3,6 km/h (1 Bft) NO 34 0 min 0,000 mm 0,0 UV-I 0 W/m 1,8 C 2,2 C 4,8 km/h (1 Bft) 100,00 %
23.11.2018 00:44 2,2 C 3,9 C 2,2 C 97 % 1021,5 hPa 0,0 l/m 4,5 km/h (1 Bft) NO 36 0 min 0,000 mm 0,0 UV-I 0 W/m 1,8 C 2,2 C 6,4 km/h (2 Bft) 97,14 %
23.11.2018 00:46 2,2 C 3,9 C 2,2 C 97 % 1021,5 hPa 0,0 l/m 5,2 km/h (1 Bft) NO 50 0 min 0,000 mm 0,0 UV-I 0 W/m 1,8 C 2,2 C 6,4 km/h (2 Bft) 98,11 %
23.11.2018 00:48 2,2 C 3,9 C 2,2 C 97 % 1021,5 hPa 0,0 l/m 6,0 km/h (2 Bft) O-NO 61 0 min 0,000 mm 0,0 UV-I 0 W/m 1,8 C 2,2 C 8,0 km/h (2 Bft) 100,00 %
23.11.2018 00:50 2,2 C 3,9 C 2,2 C 97 % 1021,5 hPa 0,0 l/m 6,2 km/h (2 Bft) O-NO 57 0 min 0,000 mm 0,0 UV-I 0 W/m 1,8 C 2,2 C 8,0 km/h (2 Bft) 100,00 %
23.11.2018 00:52 2,1 C 3,9 C 2,2 C 97 % 1021,4 hPa 0,0 l/m 5,0 km/h (1 Bft) NO 43 0 min 0,000 mm 0,0 UV-I 0 W/m 1,7 C 2,1 C 6,4 km/h (2 Bft) 100,00 %
23.11.2018 00:54 2,1 C 3,9 C 2,2 C 97 % 1021,4 hPa 0,0 l/m 4,8 km/h (1 Bft) O-NO 70 0 min 0,000 mm 0,0 UV-I 0 W/m 1,7 C 2,1 C 6,4 km/h (2 Bft) 100,00 %
23.11.2018 00:56 2,1 C 3,9 C 2,2 C 97 % 1021,5 hPa 0,0 l/m 4,0 km/h (1 Bft) O-NO 70 0 min 0,000 mm 0,0 UV-I 0 W/m 1,7 C 2,1 C 6,4 km/h (2 Bft) 100,00 %
23.11.2018 00:58 2,2 C 3,9 C 2,2 C 97 % 1021,4 hPa 0,0 l/m 3,0 km/h (1 Bft) O-NO 70 0 min 0,000 mm 0,0 UV-I 0 W/m 1,8 C 2,2 C 4,8 km/h (1 Bft) 97,92 %
23.11.2018 01:00 2,1 C 3,9 C 2,2 C 97 % 1021,4 hPa 0,0 l/m 2,0 km/h (1 Bft) O-NO 70 0 min 0,000 mm 0,0 UV-I 0 W/m 1,7 C 2,1 C 3,2 km/h (1 Bft) 100,00 %
23.11.2018 01:02 2,1 C 3,9 C 2,2 C 97 % 1021,5 hPa 0,0 l/m 1,9 km/h (1 Bft) O-NO 70 0 min 0,000 mm 0,0 UV-I 0 W/m 1,7 C 2,1 C 3,2 km/h (1 Bft) 98,08 %
23.11.2018 01:04 2,1 C 3,9 C 2,2 C 97 % 1021,4 hPa 0,0 l/m 2,3 km/h (1 Bft) O-NO 70 0 min 0,000 mm 0,0 UV-I 0 W/m 1,7 C 2,1 C 3,2 km/h (1 Bft) 100,00 %
23.11.2018 01:06 2,1 C 3,9 C 2,2 C 97 % 1021,5 hPa 0,0 l/m 4,9 km/h (1 Bft) O-NO 62 0 min 0,000 mm 0,0 UV-I 0 W/m 1,7 C 2,1 C 6,4 km/h (2 Bft) 95,74 %
23.11.2018 01:08 2,2 C 3,9 C 2,2 C 97 % 1021,5 hPa 0,0 l/m 3,2 km/h (1 Bft) O-NO 62 0 min 0,000 mm 0,0 UV-I 0 W/m 1,8 C 2,2 C 4,8 km/h (1 Bft) 97,44 %
23.11.2018 01:10 2,1 C 3,9 C 2,2 C 97 % 1021,5 hPa 0,0 l/m 5,1 km/h (1 Bft) NO 51 0 min 0,000 mm 0,0 UV-I 0 W/m 1,7 C 2,1 C 8,0 km/h (2 Bft) 95,74 %
23.11.2018 01:12 2,1 C 3,9 C 2,2 C 97 % 1021,6 hPa 0,0 l/m 5,3 km/h (1 Bft) NO 47 0 min 0,000 mm 0,0 UV-I 0 W/m 1,7 C 2,1 C 6,4 km/h (2 Bft) 95,74 %
23.11.2018 01:14 2,1 C 3,9 C 2,2 C 97 % 1021,6 hPa 0,0 l/m 3,8 km/h (1 Bft) O-NO 65 0 min 0,000 mm 0,0 UV-I 0 W/m 1,7 C 2,1 C 6,4 km/h (2 Bft) 97,87 %
23.11.2018 01:16 2,1 C 3,9 C 2,2 C 97 % 1021,6 hPa 0,0 l/m 4,8 km/h (1 Bft) O-NO 75 0 min 0,000 mm 0,0 UV-I 0 W/m 1,7 C 2,1 C 8,0 km/h (2 Bft) 97,87 %
23.11.2018 01:18 2,1 C 3,9 C 2,2 C 97 % 1021,6 hPa 0,0 l/m 4,8 km/h (1 Bft) O 80 0 min 0,000 mm 0,0 UV-I 0 W/m 1,7 C 2,1 C 6,4 km/h (2 Bft) 97,87 %
23.11.2018 01:20 2,1 C 3,9 C 2,2 C 97 % 1021,7 hPa 0,0 l/m 4,1 km/h (1 Bft) O 86 0 min 0,000 mm 0,0 UV-I 0 W/m 1,7 C 2,1 C 6,4 km/h (2 Bft) 95,74 %
23.11.2018 01:22 2,1 C 3,9 C 2,2 C 97 % 1021,7 hPa 0,0 l/m 3,5 km/h (1 Bft) O 87 0 min 0,000 mm 0,0 UV-I 0 W/m 1,7 C 2,1 C 4,8 km/h (1 Bft) 96,00 %
23.11.2018 01:24 2,1 C 3,9 C 2,2 C 97 % 1021,7 hPa 0,0 l/m 3,3 km/h (1 Bft) O 87 0 min 0,000 mm 0,0 UV-I 0 W/m 1,7 C 2,1 C 4,8 km/h (1 Bft) 97,87 %
23.11.2018 01:26 2,0 C 3,9 C 2,2 C 97 % 1021,7 hPa 0,0 l/m 3,6 km/h (1 Bft) O 87 0 min 0,000 mm 0,0 UV-I 0 W/m 1,6 C 2,0 C 4,8 km/h (1 Bft) 97,87 %
23.11.2018 01:28 2,0 C 3,9 C 2,2 C 97 % 1021,7 hPa 0,0 l/m 2,7 km/h (1 Bft) O 87 0 min 0,000 mm 0,0 UV-I 0 W/m 1,6 C 2,0 C 4,8 km/h (1 Bft) 97,87 %
23.11.2018 01:30 2,0 C 3,9 C 2,2 C 97 % 1021,8 hPa 0,0 l/m 4,4 km/h (1 Bft) O 86 0 min 0,000 mm 0,0 UV-I 0 W/m 1,6 C 2,0 C 4,8 km/h (1 Bft) 95,74 %
23.11.2018 01:32 2,0 C 3,9 C 2,2 C 97 % 1021,8 hPa 0,0 l/m 3,5 km/h (1 Bft) O 80 0 min 0,000 mm 0,0 UV-I 0 W/m 1,6 C 2,0 C 6,4 km/h (2 Bft) 95,74 %
23.11.2018 01:34 2,0 C 3,9 C 2,2 C 97 % 1021,8 hPa 0,0 l/m 1,0 km/h (0 Bft) O 80 0 min 0,000 mm 0,0 UV-I 0 W/m 1,6 C 2,0 C 3,2 km/h (1 Bft) 97,87 %
23.11.2018 01:36 2,0 C 3,9 C 2,2 C 97 % 1021,8 hPa 0,0 l/m 1,1 km/h (1 Bft) O 80 0 min 0,000 mm 0,0 UV-I 0 W/m 1,6 C 2,0 C 3,2 km/h (1 Bft) 89,36 %
23.11.2018 01:38 2,0 C 3,9 C 2,2 C 97 % 1021,9 hPa 0,0 l/m 0,0 km/h (0 Bft) O 80 0 min 0,000 mm 0,0 UV-I 0 W/m 1,6 C 2,0 C 0,0 km/h (0 Bft) 95,83 %
23.11.2018 01:40 2,1 C 3,9 C 2,2 C 97 % 1021,9 hPa 0,0 l/m 0,7 km/h (0 Bft) O 80 0 min 0,000 mm 0,0 UV-I 0 W/m 1,7 C 2,1 C 3,2 km/h (1 Bft) 95,38 %
23.11.2018 01:42 2,1 C 3,9 C 2,2 C 97 % 1021,9 hPa 0,0 l/m 3,4 km/h (1 Bft) O 80 0 min 0,000 mm 0,0 UV-I 0 W/m 1,7 C 2,1 C 4,8 km/h (1 Bft) 93,62 %
23.11.2018 01:44 2,1 C 3,9 C 2,2 C 97 % 1021,9 hPa 0,0 l/m 4,1 km/h (1 Bft) O-NO 59 0 min 0,000 mm 0,0 UV-I 0 W/m 1,7 C 2,1 C 6,4 km/h (2 Bft) 94,00 %
23.11.2018 01:46 2,1 C 3,9 C 2,2 C 97 % 1021,9 hPa 0,0 l/m 4,2 km/h (1 Bft) O-NO 59 0 min 0,000 mm 0,0 UV-I 0 W/m 1,7 C 2,1 C 4,8 km/h (1 Bft) 95,74 %
23.11.2018 01:48 2,1 C 3,9 C 2,2 C 97 % 1021,9 hPa 0,0 l/m 4,8 km/h (1 Bft) O-NO 57 0 min 0,000 mm 0,0 UV-I 0 W/m 1,7 C 2,1 C 6,4 km/h (2 Bft) 97,87 %
23.11.2018 01:50 2,1 C 3,9 C 2,2 C 97 % 1021,9 hPa 0,0 l/m 3,4 km/h (1 Bft) O-NO 57 0 min 0,000 mm 0,0 UV-I 0 W/m 1,7 C 2,1 C 4,8 km/h (1 Bft) 97,87 %
23.11.2018 01:52 2,1 C 3,9 C 2,2 C 97 % 1021,9 hPa 0,0 l/m 3,8 km/h (1 Bft) O-NO 57 0 min 0,000 mm 0,0 UV-I 0 W/m 1,7 C 2,1 C 4,8 km/h (1 Bft) 97,87 %
23.11.2018 01:54 2,1 C 3,9 C 2,2 C 97 % 1021,8 hPa 0,0 l/m 3,6 km/h (1 Bft) O-NO 57 0 min 0,000 mm 0,0 UV-I 0 W/m 1,7 C 2,1 C 4,8 km/h (1 Bft) 97,87 %
23.11.2018 01:56 2,1 C 3,9 C 2,2 C 97 % 1021,9 hPa 0,0 l/m 4,1 km/h (1 Bft) NO 51 0 min 0,000 mm 0,0 UV-I 0 W/m 1,7 C 2,1 C 6,4 km/h (2 Bft) 95,74 %
23.11.2018 01:58 2,1 C 3,9 C 2,2 C 97 % 1021,9 hPa 0,0 l/m 5,6 km/h (1 Bft) NO 41 0 min 0,000 mm 0,0 UV-I 0 W/m 1,7 C 2,1 C 6,4 km/h (2 Bft) 100,00 %
23.11.2018 02:00 2,1 C 3,9 C 2,2 C 97 % 1021,9 hPa 0,0 l/m 5,7 km/h (1 Bft) NO 36 0 min 0,000 mm 0,0 UV-I 0 W/m 1,7 C 2,1 C 8,0 km/h (2 Bft) 98,00 %
23.11.2018 02:02 2,1 C 3,9 C 2,2 C 97 % 1021,9 hPa 0,0 l/m 3,6 km/h (1 Bft) NO 36 0 min 0,000 mm 0,0 UV-I 0 W/m 1,7 C 2,1 C 6,4 km/h (2 Bft) 95,74 %
23.11.2018 02:04 2,1 C 3,9 C 2,2 C 97 % 1021,9 hPa 0,0 l/m 2,7 km/h (1 Bft) NO 37 0 min 0,000 mm 0,0 UV-I 0 W/m 1,7 C 2,1 C 4,8 km/h (1 Bft) 97,87 %
23.11.2018 02:06 2,1 C 3,9 C 2,2 C 97 % 1022,0 hPa 0,0 l/m 2,5 km/h (1 Bft) NO 37 0 min 0,000 mm 0,0 UV-I 0 W/m 1,7 C 2,1 C 3,2 km/h (1 Bft) 95,74 %
23.11.2018 02:08 2,1 C 3,9 C 2,2 C 97 % 1022,0 hPa 0,0 l/m 3,5 km/h (1 Bft) NO 55 0 min 0,000 mm 0,0 UV-I 0 W/m 1,7 C 2,1 C 4,8 km/h (1 Bft) 95,74 %
23.11.2018 02:10 2,0 C 3,9 C 2,2 C 97 % 1021,9 hPa 0,0 l/m 3,1 km/h (1 Bft) O-NO 68 0 min 0,000 mm 0,0 UV-I 0 W/m 1,6 C 2,0 C 4,8 km/h (1 Bft) 97,87 %
23.11.2018 02:12 2,0 C 3,9 C 2,2 C 97 % 1021,9 hPa 0,0 l/m 4,4 km/h (1 Bft) O-NO 74 0 min 0,000 mm 0,0 UV-I 0 W/m 1,6 C 2,0 C 6,4 km/h (2 Bft) 97,87 %
23.11.2018 02:14 2,0 C 3,9 C 2,2 C 97 % 1021,9 hPa 0,0 l/m 3,9 km/h (1 Bft) O 88 0 min 0,000 mm 0,0 UV-I 0 W/m 1,6 C 2,0 C 4,8 km/h (1 Bft) 95,74 %
23.11.2018 02:16 1,9 C 3,9 C 2,2 C 97 % 1021,9 hPa 0,0 l/m 3,7 km/h (1 Bft) O-SO 102 0 min 0,000 mm 0,0 UV-I 0 W/m 1,5 C 1,9 C 4,8 km/h (1 Bft) 97,87 %
23.11.2018 02:18 1,9 C 3,9 C 2,2 C 97 % 1022,0 hPa 0,0 l/m 2,9 km/h (1 Bft) O-SO 102 0 min 0,000 mm 0,0 UV-I 0 W/m 1,5 C 1,9 C 4,8 km/h (1 Bft) 97,87 %
23.11.2018 02:20 1,9 C 3,9 C 2,2 C 97 % 1021,9 hPa 0,0 l/m 2,0 km/h (1 Bft) O-SO 102 0 min 0,000 mm 0,0 UV-I 0 W/m 1,5 C 1,9 C 3,2 km/h (1 Bft) 97,22 %
23.11.2018 02:22 2,0 C 3,9 C 2,2 C 97 % 1021,9 hPa 0,0 l/m 3,4 km/h (1 Bft) O 99 0 min 0,000 mm 0,0 UV-I 0 W/m 1,6 C 2,0 C 4,8 km/h (1 Bft) 97,87 %
23.11.2018 02:24 2,0 C 3,9 C 2,2 C 97 % 1021,9 hPa 0,0 l/m 4,2 km/h (1 Bft) O 88 0 min 0,000 mm 0,0 UV-I 0 W/m 1,6 C 2,0 C 6,4 km/h (2 Bft) 95,74 %
23.11.2018 02:26 2,0 C 3,9 C 2,2 C 97 % 1021,9 hPa 0,0 l/m 3,4 km/h (1 Bft) O 88 0 min 0,000 mm 0,0 UV-I 0 W/m 1,6 C 2,0 C 4,8 km/h (1 Bft) 96,00 %
23.11.2018 02:28 1,9 C 3,9 C 2,2 C 97 % 1021,9 hPa 0,0 l/m 1,6 km/h (1 Bft) O 88 0 min 0,000 mm 0,0 UV-I 0 W/m 1,5 C 1,9 C 3,2 km/h (1 Bft) 97,87 %
23.11.2018 02:30 1,9 C 3,9 C 2,2 C 97 % 1021,9 hPa 0,0 l/m 2,9 km/h (1 Bft) O 88 0 min 0,000 mm 0,0 UV-I 0 W/m 1,5 C 1,9 C 6,4 km/h (2 Bft) 95,74 %
23.11.2018 02:32 1,9 C 3,9 C 2,2 C 97 % 1021,9 hPa 0,0 l/m 5,5 km/h (1 Bft) O-NO 62 0 min 0,000 mm 0,0 UV-I 0 W/m 1,5 C 1,9 C 8,0 km/h (2 Bft) 93,62 %
23.11.2018 02:34 1,9 C 3,9 C 2,2 C 97 % 1021,9 hPa 0,0 l/m 5,5 km/h (1 Bft) O 80 0 min 0,000 mm 0,0 UV-I 0 W/m 1,5 C 1,9 C 6,4 km/h (2 Bft) 97,87 %
23.11.2018 02:36 1,9 C 3,9 C 2,2 C 97 % 1021,8 hPa 0,0 l/m 4,2 km/h (1 Bft) O-NO 66 0 min 0,000 mm 0,0 UV-I 0 W/m 1,5 C 1,9 C 6,4 km/h (2 Bft) 93,62 %
23.11.2018 02:38 1,9 C 3,9 C 2,2 C 97 % 1021,9 hPa 0,0 l/m 4,2 km/h (1 Bft) O-NO 78 0 min 0,000 mm 0,0 UV-I 0 W/m 1,5 C 1,9 C 6,4 km/h (2 Bft) 96,00 %
23.11.2018 02:40 1,9 C 3,9 C 2,2 C 97 % 1021,8 hPa 0,0 l/m 4,5 km/h (1 Bft) O-NO 71 0 min 0,000 mm 0,0 UV-I 0 W/m 1,5 C 1,9 C 8,0 km/h (2 Bft) 97,87 %
23.11.2018 02:42 1,9 C 3,9 C 2,2 C 97 % 1021,8 hPa 0,0 l/m 5,9 km/h (2 Bft) O-NO 77 0 min 0,000 mm 0,0 UV-I 0 W/m 1,5 C 1,9 C 11,3 km/h (2 Bft) 97,87 %
23.11.2018 02:44 1,9 C 3,9 C 2,2 C 97 % 1021,9 hPa 0,0 l/m 6,3 km/h (2 Bft) O 80 0 min 0,000 mm 0,0 UV-I 0 W/m 1,5 C 1,9 C 12,9 km/h (3 Bft) 98,00 %
23.11.2018 02:46 1,9 C 3,9 C 2,2 C 97 % 1021,8 hPa 0,0 l/m 6,2 km/h (2 Bft) O-NO 74 0 min 0,000 mm 0,0 UV-I 0 W/m 1,5 C 1,9 C 8,0 km/h (2 Bft) 94,29 %
23.11.2018 02:48 1,9 C 3,9 C 2,2 C 97 % 1021,8 hPa 0,0 l/m 5,6 km/h (1 Bft) O 89 0 min 0,000 mm 0,0 UV-I 0 W/m 1,5 C 1,9 C 8,0 km/h (2 Bft) 97,87 %
23.11.2018 02:50 1,9 C 3,9 C 2,2 C 97 % 1021,8 hPa 0,0 l/m 4,3 km/h (1 Bft) O 81 0 min 0,000 mm 0,0 UV-I 0 W/m 1,5 C 1,9 C 6,4 km/h (2 Bft) 97,87 %
23.11.2018 02:52 1,9 C 3,9 C 2,2 C 97 % 1021,8 hPa 0,0 l/m 4,0 km/h (1 Bft) O-NO 76 0 min 0,000 mm 0,0 UV-I 0 W/m 1,5 C 1,9 C 4,8 km/h (1 Bft) 97,87 %
23.11.2018 02:54 1,8 C 3,9 C 2,2 C 97 % 1021,8 hPa 0,0 l/m 2,9 km/h (1 Bft) O-NO 76 0 min 0,000 mm 0,0 UV-I 0 W/m 1,4 C 1,8 C 4,8 km/h (1 Bft) 94,00 %
23.11.2018 02:56 1,9 C 3,9 C 2,2 C 97 % 1021,8 hPa 0,0 l/m 2,8 km/h (1 Bft) O-NO 76 0 min 0,000 mm 0,0 UV-I 0 W/m 1,5 C 1,9 C 6,4 km/h (2 Bft) 95,74 %
23.11.2018 02:58 1,9 C 3,9 C 2,2 C 97 % 1021,8 hPa 0,0 l/m 4,6 km/h (1 Bft) O-NO 76 0 min 0,000 mm 0,0 UV-I 0 W/m 1,5 C 1,9 C 6,4 km/h (2 Bft) 95,83 %
23.11.2018 03:00 1,9 C 3,9 C 2,2 C 97 % 1021,7 hPa 0,0 l/m 3,6 km/h (1 Bft) O-NO 76 0 min 0,000 mm 0,0 UV-I 0 W/m 1,5 C 1,9 C 4,8 km/h (1 Bft) 95,92 %
23.11.2018 03:02 1,9 C 3,9 C 2,2 C 97 % 1021,8 hPa 0,0 l/m 3,1 km/h (1 Bft) O-NO 76 0 min 0,000 mm 0,0 UV-I 0 W/m 1,5 C 1,9 C 4,8 km/h (1 Bft) 95,83 %
23.11.2018 03:04 1,9 C 3,9 C 2,2 C 97 % 1021,8 hPa 0,0 l/m 4,0 km/h (1 Bft) O-NO 75 0 min 0,000 mm 0,0 UV-I 0 W/m 1,5 C 1,9 C 6,4 km/h (2 Bft) 93,62 %
23.11.2018 03:06 1,9 C 3,9 C 2,2 C 97 % 1021,8 hPa 0,0 l/m 3,8 km/h (1 Bft) O-NO 75 0 min 0,000 mm 0,0 UV-I 0 W/m 1,5 C 1,9 C 6,4 km/h (2 Bft) 95,74 %
23.11.2018 03:08 1,9 C 3,9 C 2,2 C 97 % 1021,8 hPa 0,0 l/m 2,4 km/h (1 Bft) O-NO 75 0 min 0,000 mm 0,0 UV-I 0 W/m 1,5 C 1,9 C 3,2 km/h (1 Bft) 97,87 %
23.11.2018 03:10 1,9 C 3,9 C 2,2 C 97 % 1021,8 hPa 0,0 l/m 3,5 km/h (1 Bft) O-NO 67 0 min 0,000 mm 0,0 UV-I 0 W/m 1,5 C 1,9 C 4,8 km/h (1 Bft) 98,00 %
23.11.2018 03:12 1,9 C 3,9 C 2,2 C 97 % 1021,8 hPa 0,0 l/m 4,8 km/h (1 Bft) O-SO 107 0 min 0,000 mm 0,0 UV-I 0 W/m 1,5 C 1,9 C 6,4 km/h (2 Bft) 94,29 %
23.11.2018 03:14 1,9 C 3,9 C 2,2 C 97 % 1021,8 hPa 0,0 l/m 5,1 km/h (1 Bft) O-SO 107 0 min 0,000 mm 0,0 UV-I 0 W/m 1,5 C 1,9 C 6,4 km/h (2 Bft) 95,74 %
23.11.2018 03:16 1,9 C 3,9 C 2,2 C 97 % 1021,8 hPa 0,0 l/m 3,9 km/h (1 Bft) O-NO 77 0 min 0,000 mm 0,0 UV-I 0 W/m 1,5 C 1,9 C 6,4 km/h (2 Bft) 97,87 %
23.11.2018 03:18 1,9 C 3,9 C 2,2 C 97 % 1021,7 hPa 0,0 l/m 5,7 km/h (1 Bft) O-NO 58 0 min 0,000 mm 0,0 UV-I 0 W/m 1,5 C 1,9 C 8,0 km/h (2 Bft) 97,87 %
23.11.2018 03:20 1,9 C 3,9 C 2,2 C 97 % 1021,7 hPa 0,0 l/m 6,2 km/h (2 Bft) O-NO 70 0 min 0,000 mm 0,0 UV-I 0 W/m 1,5 C 1,9 C 9,7 km/h (2 Bft) 97,87 %
23.11.2018 03:22 1,8 C 3,9 C 2,2 C 97 % 1021,7 hPa 0,0 l/m 6,4 km/h (2 Bft) O-NO 75 0 min 0,000 mm 0,0 UV-I 0 W/m 1,4 C 1,8 C 11,3 km/h (2 Bft) 93,62 %
23.11.2018 03:24 1,8 C 3,9 C 2,2 C 97 % 1021,8 hPa 0,0 l/m 6,0 km/h (2 Bft) O-NO 69 0 min 0,000 mm 0,0 UV-I 0 W/m 1,4 C 1,8 C 9,7 km/h (2 Bft) 97,87 %
23.11.2018 03:26 1,8 C 3,9 C 2,2 C 97 % 1021,8 hPa 0,0 l/m 5,1 km/h (1 Bft) O-NO 69 0 min 0,000 mm 0,0 UV-I 0 W/m 1,4 C 1,8 C 6,4 km/h (2 Bft) 97,87 %
23.11.2018 03:28 1,8 C 3,9 C 2,2 C 97 % 1021,7 hPa 0,0 l/m 8,2 km/h (2 Bft) O-SO 105 0 min 0,000 mm 0,0 UV-I 0 W/m 1,4 C 0,1 C 11,3 km/h (2 Bft) 98,00 %
23.11.2018 03:30 1,8 C 3,9 C 2,2 C 97 % 1021,7 hPa 0,0 l/m 6,6 km/h (2 Bft) O-NO 68 0 min 0,000 mm 0,0 UV-I 0 W/m 1,4 C 1,6 C 9,7 km/h (2 Bft) 97,87 %
23.11.2018 03:32 1,8 C 3,9 C 2,2 C 97 % 1021,7 hPa 0,0 l/m 5,8 km/h (2 Bft) O-NO 69 0 min 0,000 mm 0,0 UV-I 0 W/m 1,4 C 1,8 C 8,0 km/h (2 Bft) 97,87 %
23.11.2018 03:34 1,8 C 3,9 C 2,2 C 97 % 1021,7 hPa 0,0 l/m 6,4 km/h (2 Bft) O 87 0 min 0,000 mm 0,0 UV-I 0 W/m 1,4 C 1,8 C 9,7 km/h (2 Bft) 97,87 %
23.11.2018 03:36 1,8 C 3,9 C 2,2 C 97 % 1021,7 hPa 0,0 l/m 6,3 km/h (2 Bft) SO 124 0 min 0,000 mm 0,0 UV-I 0 W/m 1,4 C 1,8 C 9,7 km/h (2 Bft) 93,75 %
23.11.2018 03:38 1,8 C 3,9 C 2,2 C 97 % 1021,8 hPa 0,0 l/m 2,8 km/h (1 Bft) SO 124 0 min 0,000 mm 0,0 UV-I 0 W/m 1,4 C 1,8 C 4,8 km/h (1 Bft) 95,74 %
23.11.2018 03:40 1,8 C 3,9 C 2,2 C 97 % 1021,7 hPa 0,0 l/m 1,3 km/h (1 Bft) SO 124 0 min 0,000 mm 0,0 UV-I 0 W/m 1,4 C 1,8 C 4,8 km/h (1 Bft) 93,62 %
23.11.2018 03:42 1,8 C 3,9 C 2,2 C 97 % 1021,7 hPa 0,0 l/m 1,8 km/h (1 Bft) SO 124 0 min 0,000 mm 0,0 UV-I 0 W/m 1,4 C 1,8 C 4,8 km/h (1 Bft) 97,37 %
23.11.2018 03:44 1,8 C 3,9 C 2,2 C 97 % 1021,7 hPa 0,0 l/m 3,6 km/h (1 Bft) O-NO 67 0 min 0,000 mm 0,0 UV-I 0 W/m 1,4 C 1,8 C 6,4 km/h (2 Bft) 94,00 %
23.11.2018 03:46 1,8 C 3,9 C 2,2 C 97 % 1021,7 hPa 0,0 l/m 4,0 km/h (1 Bft) O 89 0 min 0,000 mm 0,0 UV-I 0 W/m 1,4 C 1,8 C 6,4 km/h (2 Bft) 97,87 %
23.11.2018 03:48 1,8 C 3,9 C 2,2 C 97 % 1021,7 hPa 0,0 l/m 5,8 km/h (2 Bft) O-SO 121 0 min 0,000 mm 0,0 UV-I 0 W/m 1,4 C 1,8 C 9,7 km/h (2 Bft) 95,74 %
23.11.2018 03:50 1,8 C 3,9 C 2,2 C 97 % 1021,7 hPa 0,0 l/m 7,5 km/h (2 Bft) O-SO 121 0 min 0,000 mm 0,0 UV-I 0 W/m 1,4 C 0,7 C 11,3 km/h (2 Bft) 100,00 %
23.11.2018 03:52 1,8 C 3,9 C 2,2 C 97 % 1021,7 hPa 0,0 l/m 3,4 km/h (1 Bft) O-SO 123 0 min 0,000 mm 0,0 UV-I 0 W/m 1,4 C 1,8 C 6,4 km/h (2 Bft) 100,00 %
23.11.2018 03:54 1,8 C 3,9 C 2,2 C 97 % 1021,7 hPa 0,0 l/m 2,4 km/h (1 Bft) SO 140 0 min 0,000 mm 0,0 UV-I 0 W/m 1,4 C 1,8 C 6,4 km/h (2 Bft) 100,00 %
23.11.2018 03:56 1,8 C 3,9 C 2,2 C 97 % 1021,7 hPa 0,0 l/m 6,4 km/h (2 Bft) SO 136 0 min 0,000 mm 0,0 UV-I 0 W/m 1,4 C 1,8 C 11,3 km/h (2 Bft) 98,00 %
23.11.2018 03:58 1,8 C 3,9 C 2,2 C 97 % 1021,7 hPa 0,0 l/m 4,5 km/h (1 Bft) SO 138 0 min 0,000 mm 0,0 UV-I 0 W/m 1,4 C 1,8 C 8,0 km/h (2 Bft) 100,00 %
23.11.2018 04:00 1,8 C 3,9 C 2,2 C 97 % 1021,7 hPa 0,0 l/m 3,7 km/h (1 Bft) SO 142 0 min 0,000 mm 0,0 UV-I 0 W/m 1,4 C 1,8 C 6,4 km/h (2 Bft) 100,00 %
23.11.2018 04:02 1,8 C 3,9 C 2,2 C 97 % 1021,7 hPa 0,0 l/m 2,8 km/h (1 Bft) S-SO 155 0 min 0,000 mm 0,0 UV-I 0 W/m 1,4 C 1,8 C 3,2 km/h (1 Bft) 100,00 %
23.11.2018 04:04 1,8 C 3,9 C 2,2 C 97 % 1021,7 hPa 0,0 l/m 2,5 km/h (1 Bft) S-SO 155 0 min 0,000 mm 0,0 UV-I 0 W/m 1,4 C 1,8 C 4,8 km/h (1 Bft) 100,00 %
23.11.2018 04:06 1,8 C 3,9 C 2,2 C 97 % 1021,7 hPa 0,0 l/m 1,7 km/h (1 Bft) S-SO 155 0 min 0,000 mm 0,0 UV-I 0 W/m 1,4 C 1,8 C 3,2 km/h (1 Bft) 100,00 %
23.11.2018 04:08 1,8 C 3,9 C 2,2 C 97 % 1021,8 hPa 0,0 l/m 4,4 km/h (1 Bft) SO 132 0 min 0,000 mm 0,0 UV-I 0 W/m 1,4 C 1,8 C 6,4 km/h (2 Bft) 97,87 %
23.11.2018 04:10 1,8 C 3,9 C 2,2 C 97 % 1021,7 hPa 0,0 l/m 4,7 km/h (1 Bft) S-SO 160 0 min 0,000 mm 0,0 UV-I 0 W/m 1,4 C 1,8 C 8,0 km/h (2 Bft) 95,74 %
23.11.2018 04:12 1,8 C 3,9 C 2,2 C 97 % 1021,7 hPa 0,0 l/m 5,0 km/h (1 Bft) S-SO 157 0 min 0,000 mm 0,0 UV-I 0 W/m 1,4 C 1,8 C 8,0 km/h (2 Bft) 100,00 %
23.11.2018 04:14 1,9 C 3,9 C 2,2 C 97 % 1021,8 hPa 0,0 l/m 2,8 km/h (1 Bft) S-SO 156 0 min 0,000 mm 0,0 UV-I 0 W/m 1,5 C 1,9 C 4,8 km/h (1 Bft) 95,74 %
23.11.2018 04:16 1,9 C 3,9 C 2,2 C 97 % 1021,8 hPa 0,0 l/m 2,8 km/h (1 Bft) S-SO 156 0 min 0,000 mm 0,0 UV-I 0 W/m 1,5 C 1,9 C 4,8 km/h (1 Bft) 95,83 %
23.11.2018 04:18 1,9 C 3,9 C 2,2 C 97 % 1021,8 hPa 0,0 l/m 2,3 km/h (1 Bft) S-SO 156 0 min 0,000 mm 0,0 UV-I 0 W/m 1,5 C 1,9 C 3,2 km/h (1 Bft) 97,87 %
23.11.2018 04:20 1,9 C 3,9 C 2,2 C 97 % 1021,8 hPa 0,0 l/m 5,0 km/h (1 Bft) S 169 0 min 0,000 mm 0,0 UV-I 0 W/m 1,5 C 1,9 C 8,0 km/h (2 Bft) 97,87 %
23.11.2018 04:22 1,9 C 3,9 C 2,2 C 97 % 1021,8 hPa 0,0 l/m 5,0 km/h (1 Bft) SO 132 0 min 0,000 mm 0,0 UV-I 0 W/m 1,5 C 1,9 C 8,0 km/h (2 Bft) 97,87 %
23.11.2018 04:24 1,9 C 3,9 C 2,2 C 97 % 1021,8 hPa 0,0 l/m 7,0 km/h (2 Bft) O 94 0 min 0,000 mm 0,0 UV-I 0 W/m 1,5 C 1,3 C 11,3 km/h (2 Bft) 96,00 %
23.11.2018 04:26 1,9 C 3,9 C 2,2 C 97 % 1021,8 hPa 0,0 l/m 8,6 km/h (2 Bft) O-SO 105 0 min 0,000 mm 0,0 UV-I 0 W/m 1,5 C -0,2 C 11,3 km/h (2 Bft) 95,74 %
23.11.2018 04:28 1,9 C 3,9 C 2,2 C 97 % 1021,8 hPa 0,0 l/m 6,3 km/h (2 Bft) O-SO 106 0 min 0,000 mm 0,0 UV-I 0 W/m 1,5 C 1,9 C 12,9 km/h (3 Bft) 97,87 %
23.11.2018 04:30 1,9 C 3,9 C 2,2 C 97 % 1021,8 hPa 0,0 l/m 5,9 km/h (2 Bft) O-SO 115 0 min 0,000 mm 0,0 UV-I 0 W/m 1,5 C 1,9 C 12,9 km/h (3 Bft) 97,87 %
23.11.2018 04:32 1,8 C 3,9 C 2,2 C 97 % 1021,7 hPa 0,0 l/m 3,4 km/h (1 Bft) SO 124 0 min 0,000 mm 0,0 UV-I 0 W/m 1,4 C 1,8 C 6,4 km/h (2 Bft) 95,74 %
23.11.2018 04:34 1,9 C 3,9 C 2,2 C 97 % 1021,7 hPa 0,0 l/m 5,1 km/h (1 Bft) O 101 0 min 0,000 mm 0,0 UV-I 0 W/m 1,5 C 1,9 C 9,7 km/h (2 Bft) 97,14 %
23.11.2018 04:36 1,9 C 3,9 C 2,2 C 97 % 1021,7 hPa 0,0 l/m 5,5 km/h (1 Bft) O-SO 105 0 min 0,000 mm 0,0 UV-I 0 W/m 1,5 C 1,9 C 6,4 km/h (2 Bft) 100,00 %
23.11.2018 04:38 1,9 C 3,9 C 2,2 C 97 % 1021,8 hPa 0,0 l/m 4,9 km/h (1 Bft) O-SO 112 0 min 0,000 mm 0,0 UV-I 0 W/m 1,5 C 1,9 C 9,7 km/h (2 Bft) 98,11 %
23.11.2018 04:40 1,9 C 3,9 C 2,2 C 97 % 1021,8 hPa 0,0 l/m 4,8 km/h (1 Bft) O 84 0 min 0,000 mm 0,0 UV-I 0 W/m 1,5 C 1,9 C 6,4 km/h (2 Bft) 100,00 %
23.11.2018 04:42 1,9 C 3,9 C 2,2 C 97 % 1021,9 hPa 0,0 l/m 3,7 km/h (1 Bft) O-SO 111 0 min 0,000 mm 0,0 UV-I 0 W/m 1,5 C 1,9 C 4,8 km/h (1 Bft) 100,00 %
23.11.2018 04:44 1,9 C 3,9 C 2,2 C 97 % 1021,8 hPa 0,0 l/m 3,1 km/h (1 Bft) O-SO 109 0 min 0,000 mm 0,0 UV-I 0 W/m 1,5 C 1,9 C 4,8 km/h (1 Bft) 100,00 %
23.11.2018 04:46 1,9 C 3,9 C 2,2 C 97 % 1021,8 hPa 0,0 l/m 4,0 km/h (1 Bft) O 84 0 min 0,000 mm 0,0 UV-I 0 W/m 1,5 C 1,9 C 6,4 km/h (2 Bft) 100,00 %
23.11.2018 04:48 1,9 C 3,9 C 2,2 C 97 % 1021,9 hPa 0,0 l/m 3,5 km/h (1 Bft) O-SO 103 0 min 0,000 mm 0,0 UV-I 0 W/m 1,5 C 1,9 C 4,8 km/h (1 Bft) 97,87 %
23.11.2018 04:50 1,9 C 3,9 C 2,2 C 97 % 1021,9 hPa 0,0 l/m 6,6 km/h (2 Bft) O-NO 78 0 min 0,000 mm 0,0 UV-I 0 W/m 1,5 C 1,7 C 11,3 km/h (2 Bft) 100,00 %
23.11.2018 04:52 1,9 C 3,9 C 2,2 C 97 % 1021,9 hPa 0,0 l/m 4,4 km/h (1 Bft) O 98 0 min 0,000 mm 0,0 UV-I 0 W/m 1,5 C 1,9 C 6,4 km/h (2 Bft) 97,92 %
23.11.2018 04:54 1,9 C 3,9 C 2,2 C 97 % 1021,9 hPa 0,0 l/m 2,9 km/h (1 Bft) O 98 0 min 0,000 mm 0,0 UV-I 0 W/m 1,5 C 1,9 C 4,8 km/h (1 Bft) 100,00 %
23.11.2018 04:56 1,9 C 3,9 C 2,2 C 97 % 1021,9 hPa 0,0 l/m 3,6 km/h (1 Bft) O 98 0 min 0,000 mm 0,0 UV-I 0 W/m 1,5 C 1,9 C 6,4 km/h (2 Bft) 100,00 %
23.11.2018 04:58 1,9 C 3,9 C 2,2 C 97 % 1021,9 hPa 0,0 l/m 4,3 km/h (1 Bft) O-SO 115 0 min 0,000 mm 0,0 UV-I 0 W/m 1,5 C 1,9 C 6,4 km/h (2 Bft) 100,00 %
23.11.2018 05:00 2,0 C 3,9 C 2,2 C 97 % 1021,9 hPa 0,0 l/m 3,2 km/h (1 Bft) O-SO 115 0 min 0,000 mm 0,0 UV-I 0 W/m 1,6 C 2,0 C 4,8 km/h (1 Bft) 100,00 %
23.11.2018 05:02 2,0 C 3,9 C 2,2 C 97 % 1021,9 hPa 0,0 l/m 3,3 km/h (1 Bft) O-NO 63 0 min 0,000 mm 0,0 UV-I 0 W/m 1,6 C 2,0 C 6,4 km/h (2 Bft) 97,87 %
23.11.2018 05:04 2,1 C 3,9 C 2,2 C 97 % 1022,0 hPa 0,0 l/m 5,3 km/h (1 Bft) NO 53 0 min 0,000 mm 0,0 UV-I 0 W/m 1,7 C 2,1 C 8,0 km/h (2 Bft) 100,00 %
23.11.2018 05:06 2,1 C 3,9 C 2,2 C 97 % 1022,0 hPa 0,0 l/m 6,3 km/h (2 Bft) NO 51 0 min 0,000 mm 0,0 UV-I 0 W/m 1,7 C 2,1 C 9,7 km/h (2 Bft) 97,87 %
23.11.2018 05:08 2,1 C 3,9 C 2,2 C 97 % 1022,0 hPa 0,0 l/m 6,2 km/h (2 Bft) O-NO 65 0 min 0,000 mm 0,0 UV-I 0 W/m 1,7 C 2,1 C 9,7 km/h (2 Bft) 97,87 %
23.11.2018 05:10 2,1 C 3,9 C 2,2 C 97 % 1021,9 hPa 0,0 l/m 5,9 km/h (2 Bft) O 86 0 min 0,000 mm 0,0 UV-I 0 W/m 1,7 C 2,1 C 8,0 km/h (2 Bft) 100,00 %
23.11.2018 05:12 2,0 C 3,9 C 2,2 C 97 % 1021,9 hPa 0,0 l/m 6,4 km/h (2 Bft) O 91 0 min 0,000 mm 0,0 UV-I 0 W/m 1,6 C 2,0 C 11,3 km/h (2 Bft) 97,87 %
23.11.2018 05:14 2,0 C 3,9 C 2,2 C 97 % 1021,9 hPa 0,0 l/m 6,1 km/h (2 Bft) O-SO 122 0 min 0,000 mm 0,0 UV-I 0 W/m 1,6 C 2,0 C 12,9 km/h (3 Bft) 97,87 %
23.11.2018 05:16 1,9 C 3,9 C 2,2 C 97 % 1021,9 hPa 0,0 l/m 8,3 km/h (2 Bft) O 91 0 min 0,000 mm 0,0 UV-I 0 W/m 1,5 C 0,1 C 12,9 km/h (3 Bft) 100,00 %
23.11.2018 05:18 1,9 C 3,9 C 2,2 C 97 % 1022,0 hPa 0,0 l/m 8,5 km/h (2 Bft) O 98 0 min 0,000 mm 0,0 UV-I 0 W/m 1,5 C -0,1 C 12,9 km/h (3 Bft) 97,87 %
23.11.2018 05:20 1,9 C 3,9 C 2,2 C 97 % 1022,0 hPa 0,0 l/m 7,5 km/h (2 Bft) O-SO 107 0 min 0,000 mm 0,0 UV-I 0 W/m 1,5 C 0,8 C 11,3 km/h (2 Bft) 96,00 %
23.11.2018 05:22 1,9 C 3,9 C 2,2 C 97 % 1022,1 hPa 0,0 l/m 4,5 km/h (1 Bft) O-SO 102 0 min 0,000 mm 0,0 UV-I 0 W/m 1,5 C 1,9 C 6,4 km/h (2 Bft) 100,00 %
23.11.2018 05:24 1,9 C 3,9 C 2,2 C 97 % 1022,1 hPa 0,0 l/m 5,0 km/h (1 Bft) O 100 0 min 0,000 mm 0,0 UV-I 0 W/m 1,5 C 1,9 C 9,7 km/h (2 Bft) 95,74 %
23.11.2018 05:26 1,9 C 3,9 C 2,2 C 97 % 1022,1 hPa 0,0 l/m 6,3 km/h (2 Bft) O-NO 61 0 min 0,000 mm 0,0 UV-I 0 W/m 1,5 C 1,9 C 8,0 km/h (2 Bft) 97,87 %
23.11.2018 05:28 1,9 C 3,9 C 2,2 C 97 % 1022,0 hPa 0,0 l/m 7,3 km/h (2 Bft) N-NO 31 0 min 0,000 mm 0,0 UV-I 0 W/m 1,5 C 1,0 C 12,9 km/h (3 Bft) 97,87 %
23.11.2018 05:30 1,9 C 3,9 C 2,2 C 97 % 1022,0 hPa 0,0 l/m 8,6 km/h (2 Bft) NO 55 0 min 0,000 mm 0,0 UV-I 0 W/m 1,5 C -0,2 C 11,3 km/h (2 Bft) 94,87 %
23.11.2018 05:32 1,9 C 3,9 C 2,2 C 97 % 1022,0 hPa 0,0 l/m 8,1 km/h (2 Bft) O-NO 67 0 min 0,000 mm 0,0 UV-I 0 W/m 1,5 C 0,3 C 14,5 km/h (3 Bft) 95,74 %
23.11.2018 05:34 1,8 C 3,9 C 2,2 C 97 % 1022,0 hPa 0,0 l/m 9,5 km/h (2 Bft) O-NO 71 0 min 0,000 mm 0,0 UV-I 0 W/m 1,4 C -1,1 C 14,5 km/h (3 Bft) 93,62 %
23.11.2018 05:36 1,8 C 3,9 C 2,2 C 97 % 1022,0 hPa 0,0 l/m 11,7 km/h (2 Bft) O 82 0 min 0,000 mm 0,0 UV-I 0 W/m 1,4 C -2,7 C 14,5 km/h (3 Bft) 93,88 %
23.11.2018 05:38 1,8 C 3,9 C 2,2 C 97 % 1022,0 hPa 0,0 l/m 8,0 km/h (2 Bft) O-NO 72 0 min 0,000 mm 0,0 UV-I 0 W/m 1,4 C 0,2 C 12,9 km/h (3 Bft) 95,74 %
23.11.2018 05:40 1,8 C 3,9 C 2,2 C 97 % 1022,0 hPa 0,0 l/m 7,8 km/h (2 Bft) O 98 0 min 0,000 mm 0,0 UV-I 0 W/m 1,4 C 0,4 C 11,3 km/h (2 Bft) 93,62 %
23.11.2018 05:42 1,8 C 3,9 C 2,2 C 97 % 1022,1 hPa 0,0 l/m 6,5 km/h (2 Bft) O-SO 122 0 min 0,000 mm 0,0 UV-I 0 W/m 1,4 C 1,7 C 11,3 km/h (2 Bft) 96,00 %
23.11.2018 05:44 1,8 C 3,9 C 2,2 C 97 % 1022,0 hPa 0,0 l/m 6,1 km/h (2 Bft) SO 128 0 min 0,000 mm 0,0 UV-I 0 W/m 1,4 C 1,8 C 11,3 km/h (2 Bft) 95,74 %
23.11.2018 05:46 1,8 C 3,9 C 2,2 C 97 % 1022,1 hPa 0,0 l/m 5,5 km/h (1 Bft) S-SO 163 0 min 0,000 mm 0,0 UV-I 0 W/m 1,4 C 1,8 C 9,7 km/h (2 Bft) 95,74 %
23.11.2018 05:48 1,8 C 3,9 C 2,2 C 97 % 1022,2 hPa 0,0 l/m 3,6 km/h (1 Bft) O-SO 121 0 min 0,000 mm 0,0 UV-I 0 W/m 1,4 C 1,8 C 4,8 km/h (1 Bft) 95,74 %
23.11.2018 05:50 1,8 C 3,9 C 2,2 C 97 % 1022,2 hPa 0,0 l/m 3,7 km/h (1 Bft) O-SO 121 0 min 0,000 mm 0,0 UV-I 0 W/m 1,4 C 1,8 C 6,4 km/h (2 Bft) 93,62 %
23.11.2018 05:52 1,9 C 3,9 C 2,2 C 97 % 1022,2 hPa 0,0 l/m 4,5 km/h (1 Bft) O-SO 111 0 min 0,000 mm 0,0 UV-I 0 W/m 1,5 C 1,9 C 6,4 km/h (2 Bft) 100,00 %
23.11.2018 05:54 1,9 C 3,9 C 2,2 C 97 % 1022,3 hPa 0,0 l/m 4,3 km/h (1 Bft) O-SO 116 0 min 0,000 mm 0,0 UV-I 0 W/m 1,5 C 1,9 C 6,4 km/h (2 Bft) 100,00 %
23.11.2018 05:56 1,8 C 3,9 C 2,2 C 97 % 1022,3 hPa 0,0 l/m 3,1 km/h (1 Bft) O-SO 105 0 min 0,000 mm 0,0 UV-I 0 W/m 1,4 C 1,8 C 6,4 km/h (2 Bft) 100,00 %
23.11.2018 05:58 1,9 C 3,9 C 2,2 C 97 % 1022,4 hPa 0,0 l/m 1,5 km/h (1 Bft) O-SO 105 0 min 0,000 mm 0,0 UV-I 0 W/m 1,5 C 1,9 C 3,2 km/h (1 Bft) 97,87 %
23.11.2018 06:00 1,9 C 3,9 C 2,2 C 97 % 1022,4 hPa 0,0 l/m 3,2 km/h (1 Bft) SO 131 0 min 0,000 mm 0,0 UV-I 0 W/m 1,5 C 1,9 C 4,8 km/h (1 Bft) 97,87 %
23.11.2018 06:02 1,9 C 3,9 C 2,2 C 97 % 1022,5 hPa 0,0 l/m 3,4 km/h (1 Bft) O-SO 121 0 min 0,000 mm 0,0 UV-I 0 W/m 1,5 C 1,9 C 8,0 km/h (2 Bft) 96,15 %
23.11.2018 06:04 1,9 C 3,9 C 2,2 C 97 % 1022,4 hPa 0,0 l/m 4,9 km/h (1 Bft) SO 134 0 min 0,000 mm 0,0 UV-I 0 W/m 1,5 C 1,9 C 6,4 km/h (2 Bft) 95,74 %
23.11.2018 06:06 1,9 C 3,9 C 2,2 C 97 % 1022,5 hPa 0,0 l/m 3,3 km/h (1 Bft) SO 134 0 min 0,000 mm 0,0 UV-I 0 W/m 1,5 C 1,9 C 6,4 km/h (2 Bft) 97,87 %
23.11.2018 06:08 1,9 C 3,9 C 2,2 C 97 % 1022,5 hPa 0,0 l/m 4,2 km/h (1 Bft) SO 127 0 min 0,000 mm 0,0 UV-I 0 W/m 1,5 C 1,9 C 8,0 km/h (2 Bft) 93,62 %
23.11.2018 06:10 1,9 C 3,9 C 2,2 C 97 % 1022,4 hPa 0,0 l/m 6,2 km/h (2 Bft) SO 126 0 min 0,000 mm 0,0 UV-I 0 W/m 1,5 C 1,9 C 8,0 km/h (2 Bft) 97,92 %
23.11.2018 06:12 1,9 C 3,9 C 2,2 C 97 % 1022,4 hPa 0,0 l/m 5,9 km/h (2 Bft) SO 142 0 min 0,000 mm 0,0 UV-I 0 W/m 1,5 C 1,9 C 8,0 km/h (2 Bft) 97,87 %
23.11.2018 06:14 1,9 C 3,9 C 2,2 C 97 % 1022,4 hPa 0,0 l/m 5,9 km/h (2 Bft) S-SO 165 0 min 0,000 mm 0,0 UV-I 0 W/m 1,5 C 1,9 C 8,0 km/h (2 Bft) 94,29 %
23.11.2018 06:16 1,9 C 3,9 C 2,2 C 97 % 1022,4 hPa 0,0 l/m 5,1 km/h (1 Bft) SO 133 0 min 0,000 mm 0,0 UV-I 0 W/m 1,5 C 1,9 C 8,0 km/h (2 Bft) 94,23 %
23.11.2018 06:18 1,9 C 3,9 C 2,2 C 97 % 1022,4 hPa 0,0 l/m 3,1 km/h (1 Bft) SO 138 0 min 0,000 mm 0,0 UV-I 0 W/m 1,5 C 1,9 C 6,4 km/h (2 Bft) 98,11 %
23.11.2018 06:20 1,9 C 3,9 C 2,2 C 97 % 1022,4 hPa 0,0 l/m 2,9 km/h (1 Bft) SO 138 0 min 0,000 mm 0,0 UV-I 0 W/m 1,5 C 1,9 C 4,8 km/h (1 Bft) 97,87 %
23.11.2018 06:22 1,9 C 3,9 C 2,2 C 97 % 1022,5 hPa 0,0 l/m 5,4 km/h (1 Bft) SO 134 0 min 0,000 mm 0,0 UV-I 0 W/m 1,5 C 1,9 C 8,0 km/h (2 Bft) 97,87 %
23.11.2018 06:24 1,9 C 3,9 C 2,2 C 97 % 1022,4 hPa 0,0 l/m 4,2 km/h (1 Bft) SO 132 0 min 0,000 mm 0,0 UV-I 0 W/m 1,5 C 1,9 C 6,4 km/h (2 Bft) 96,00 %
23.11.2018 06:26 1,9 C 3,9 C 2,2 C 97 % 1022,5 hPa 0,0 l/m 4,1 km/h (1 Bft) O-SO 115 0 min 0,000 mm 0,0 UV-I 0 W/m 1,5 C 1,9 C 6,4 km/h (2 Bft) 100,00 %
23.11.2018 06:28 1,9 C 3,9 C 2,2 C 97 % 1022,4 hPa 0,0 l/m 5,9 km/h (2 Bft) O-SO 107 0 min 0,000 mm 0,0 UV-I 0 W/m 1,5 C 1,9 C 12,9 km/h (3 Bft) 96,61 %
23.11.2018 06:30 1,9 C 3,9 C 2,2 C 97 % 1022,4 hPa 0,0 l/m 6,4 km/h (2 Bft) SO 140 0 min 0,000 mm 0,0 UV-I 0 W/m 1,5 C 1,9 C 8,0 km/h (2 Bft) 92,11 %
23.11.2018 06:32 1,9 C 3,9 C 2,2 C 97 % 1022,5 hPa 0,0 l/m 4,9 km/h (1 Bft) S-SO 167 0 min 0,000 mm 0,0 UV-I 0 W/m 1,5 C 1,9 C 6,4 km/h (2 Bft) 97,87 %
23.11.2018 06:34 2,0 C 3,9 C 2,2 C 97 % 1022,4 hPa 0,0 l/m 5,2 km/h (1 Bft) O-SO 119 0 min 0,000 mm 0,0 UV-I 0 W/m 1,6 C 2,0 C 11,3 km/h (2 Bft) 93,62 %
23.11.2018 06:36 2,0 C 3,9 C 2,2 C 97 % 1022,4 hPa 0,0 l/m 4,1 km/h (1 Bft) O-SO 121 0 min 0,000 mm 0,0 UV-I 0 W/m 1,6 C 2,0 C 6,4 km/h (2 Bft) 97,87 %
23.11.2018 06:38 2,0 C 3,9 C 2,2 C 97 % 1022,4 hPa 0,0 l/m 2,9 km/h (1 Bft) O-SO 121 0 min 0,000 mm 0,0 UV-I 0 W/m 1,6 C 2,0 C 4,8 km/h (1 Bft) 97,87 %
23.11.2018 06:40 2,0 C 3,9 C 2,2 C 97 % 1022,4 hPa 0,0 l/m 1,1 km/h (1 Bft) O-SO 121 0 min 0,000 mm 0,0 UV-I 0 W/m 1,6 C 2,0 C 1,6 km/h (1 Bft) 97,87 %
23.11.2018 06:42 2,0 C 3,9 C 2,2 C 97 % 1022,4 hPa 0,0 l/m 2,8 km/h (1 Bft) SO 145 0 min 0,000 mm 0,0 UV-I 0 W/m 1,6 C 2,0 C 4,8 km/h (1 Bft) 97,87 %
23.11.2018 06:44 2,0 C 3,9 C 2,2 C 97 % 1022,4 hPa 0,0 l/m 3,2 km/h (1 Bft) SO 144 0 min 0,000 mm 0,0 UV-I 0 W/m 1,6 C 2,0 C 4,8 km/h (1 Bft) 97,87 %
23.11.2018 06:46 2,0 C 3,9 C 2,2 C 97 % 1022,4 hPa 0,0 l/m 3,3 km/h (1 Bft) SO 144 0 min 0,000 mm 0,0 UV-I 0 W/m 1,6 C 2,0 C 4,8 km/h (1 Bft) 96,23 %
23.11.2018 06:48 2,0 C 3,9 C 2,2 C 97 % 1022,5 hPa 0,0 l/m 4,0 km/h (1 Bft) SO 142 0 min 0,000 mm 0,0 UV-I 0 W/m 1,6 C 2,0 C 4,8 km/h (1 Bft) 95,74 %
23.11.2018 06:50 2,0 C 3,9 C 2,2 C 97 % 1022,5 hPa 0,0 l/m 3,9 km/h (1 Bft) O-SO 119 0 min 0,000 mm 0,0 UV-I 0 W/m 1,6 C 2,0 C 4,8 km/h (1 Bft) 94,87 %
23.11.2018 06:52 2,1 C 3,9 C 2,2 C 97 % 1022,5 hPa 0,0 l/m 2,5 km/h (1 Bft) O-SO 119 0 min 0,000 mm 0,0 UV-I 0 W/m 1,7 C 2,1 C 4,8 km/h (1 Bft) 95,74 %
23.11.2018 06:55 2,1 C 3,9 C 2,2 C 97 % 1022,5 hPa 0,0 l/m 5,2 km/h (1 Bft) SO 137 0 min 0,000 mm 0,0 UV-I 0 W/m 1,7 C 2,1 C 9,7 km/h (2 Bft) 97,26 %
23.11.2018 06:56 2,1 C 3,9 C 2,2 C 97 % 1022,5 hPa 0,0 l/m 4,2 km/h (1 Bft) SO 137 0 min 0,000 mm 0,0 UV-I 0 W/m 1,7 C 2,1 C 6,4 km/h (2 Bft) 91,67 %
23.11.2018 06:58 2,1 C 3,9 C 2,2 C 97 % 1022,6 hPa 0,0 l/m 5,1 km/h (1 Bft) SO 136 0 min 0,000 mm 0,0 UV-I 0 W/m 1,7 C 2,1 C 6,4 km/h (2 Bft) 95,74 %
23.11.2018 07:00 2,1 C 3,9 C 2,2 C 97 % 1022,6 hPa 0,0 l/m 4,0 km/h (1 Bft) O 80 0 min 0,000 mm 0,0 UV-I 0 W/m 1,7 C 2,1 C 6,4 km/h (2 Bft) 91,84 %
23.11.2018 07:02 2,1 C 3,9 C 2,2 C 97 % 1022,5 hPa 0,0 l/m 5,6 km/h (1 Bft) O 86 0 min 0,000 mm 0,0 UV-I 0 W/m 1,7 C 2,1 C 9,7 km/h (2 Bft) 94,00 %
23.11.2018 07:04 2,1 C 3,9 C 2,2 C 97 % 1022,6 hPa 0,0 l/m 2,8 km/h (1 Bft) SO 131 0 min 0,000 mm 0,0 UV-I 0 W/m 1,7 C 2,1 C 4,8 km/h (1 Bft) 97,37 %
23.11.2018 07:06 2,1 C 3,9 C 2,2 C 97 % 1022,6 hPa 0,0 l/m 4,6 km/h (1 Bft) SO 127 0 min 0,000 mm 0,0 UV-I 0 W/m 1,7 C 2,1 C 6,4 km/h (2 Bft) 97,87 %
23.11.2018 07:08 2,1 C 3,9 C 2,2 C 97 % 1022,6 hPa 0,0 l/m 4,1 km/h (1 Bft) O-SO 121 0 min 0,000 mm 0,0 UV-I 0 W/m 1,7 C 2,1 C 6,4 km/h (2 Bft) 97,87 %
23.11.2018 07:10 2,1 C 3,9 C 2,2 C 97 % 1022,6 hPa 0,0 l/m 3,5 km/h (1 Bft) O-SO 107 0 min 0,000 mm 0,0 UV-I 0 W/m 1,7 C 2,1 C 6,4 km/h (2 Bft) 97,87 %
23.11.2018 07:12 2,1 C 3,9 C 2,2 C 97 % 1022,6 hPa 0,0 l/m 4,4 km/h (1 Bft) SO 128 0 min 0,000 mm 0,0 UV-I 0 W/m 1,7 C 2,1 C 6,4 km/h (2 Bft) 97,87 %
23.11.2018 07:14 2,1 C 3,9 C 2,2 C 97 % 1022,7 hPa 0,0 l/m 4,6 km/h (1 Bft) SO 128 0 min 0,000 mm 0,0 UV-I 0 W/m 1,7 C 2,1 C 6,4 km/h (2 Bft) 100,00 %
23.11.2018 07:16 2,2 C 3,9 C 2,8 C 97 % 1022,7 hPa 0,0 l/m 5,5 km/h (1 Bft) O-SO 103 0 min 0,000 mm 0,0 UV-I 0 W/m 1,8 C 2,2 C 11,3 km/h (2 Bft) 100,00 %
23.11.2018 07:18 2,2 C 3,9 C 2,2 C 97 % 1022,7 hPa 0,0 l/m 6,7 km/h (2 Bft) O 94 0 min 0,000 mm 0,0 UV-I 0 W/m 1,8 C 1,9 C 9,7 km/h (2 Bft) 100,00 %
23.11.2018 07:20 2,2 C 3,9 C 2,8 C 97 % 1022,7 hPa 0,0 l/m 3,8 km/h (1 Bft) SO 126 0 min 0,000 mm 0,0 UV-I 0 W/m 1,8 C 2,2 C 6,4 km/h (2 Bft) 95,74 %
23.11.2018 07:22 2,2 C 3,9 C 2,8 C 97 % 1022,7 hPa 0,0 l/m 4,9 km/h (1 Bft) SO 139 0 min 0,000 mm 0,0 UV-I 0 W/m 1,8 C 2,2 C 8,0 km/h (2 Bft) 97,87 %
23.11.2018 07:24 2,2 C 3,9 C 2,8 C 97 % 1022,8 hPa 0,0 l/m 6,2 km/h (2 Bft) O-SO 115 0 min 0,000 mm 0,0 UV-I 0 W/m 1,8 C 2,2 C 12,9 km/h (3 Bft) 93,62 %
23.11.2018 07:26 2,2 C 3,9 C 2,8 C 97 % 1022,8 hPa 0,0 l/m 8,2 km/h (2 Bft) O-SO 123 0 min 0,000 mm 0,0 UV-I 5 W/m 1,8 C 0,5 C 12,9 km/h (3 Bft) 95,83 %
23.11.2018 07:28 2,2 C 3,9 C 2,8 C 97 % 1022,8 hPa 0,0 l/m 7,2 km/h (2 Bft) O-SO 106 0 min 0,000 mm 0,0 UV-I 5 W/m 1,8 C 1,4 C 12,9 km/h (3 Bft) 97,87 %
23.11.2018 07:30 2,2 C 3,9 C 2,8 C 97 % 1022,8 hPa 0,0 l/m 7,9 km/h (2 Bft) O-SO 102 0 min 0,000 mm 0,0 UV-I 5 W/m 1,8 C 0,8 C 14,5 km/h (3 Bft) 97,87 %
23.11.2018 07:32 2,2 C 3,9 C 2,8 C 97 % 1022,8 hPa 0,0 l/m 8,0 km/h (2 Bft) SO 125 0 min 0,000 mm 0,0 UV-I 5 W/m 1,8 C 0,7 C 12,9 km/h (3 Bft) 98,00 %
23.11.2018 07:34 2,2 C 3,9 C 2,8 C 97 % 1022,8 hPa 0,0 l/m 9,6 km/h (2 Bft) O-SO 111 0 min 0,000 mm 0,0 UV-I 5 W/m 1,8 C -0,7 C 14,5 km/h (3 Bft) 97,87 %
23.11.2018 07:36 2,2 C 3,9 C 2,8 C 97 % 1022,8 hPa 0,0 l/m 7,2 km/h (2 Bft) SO 136 0 min 0,000 mm 0,0 UV-I 5 W/m 1,8 C 1,4 C 11,3 km/h (2 Bft) 97,87 %
23.11.2018 07:38 2,2 C 3,9 C 2,8 C 97 % 1022,8 hPa 0,0 l/m 5,8 km/h (2 Bft) O-SO 105 0 min 0,000 mm 0,0 UV-I 5 W/m 1,8 C 2,2 C 8,0 km/h (2 Bft) 94,74 %
23.11.2018 07:40 2,2 C 3,9 C 2,8 C 97 % 1022,8 hPa 0,0 l/m 5,8 km/h (2 Bft) SO 134 0 min 0,000 mm 0,0 UV-I 5 W/m 1,8 C 2,2 C 6,4 km/h (2 Bft) 97,87 %
23.11.2018 07:42 2,3 C 3,9 C 2,8 C 97 % 1022,8 hPa 0,0 l/m 5,4 km/h (1 Bft) SO 130 0 min 0,000 mm 0,0 UV-I 7 W/m 1,9 C 2,3 C 9,7 km/h (2 Bft) 95,74 %
23.11.2018 07:44 2,2 C 3,9 C 2,8 C 97 % 1022,9 hPa 0,0 l/m 8,9 km/h (2 Bft) O-SO 123 0 min 0,000 mm 0,0 UV-I 7 W/m 1,8 C -0,1 C 14,5 km/h (3 Bft) 95,74 %
23.11.2018 07:46 2,2 C 3,9 C 2,8 C 97 % 1022,9 hPa 0,0 l/m 5,6 km/h (1 Bft) O-SO 111 0 min 0,000 mm 0,0 UV-I 7 W/m 1,8 C 2,2 C 11,3 km/h (2 Bft) 97,87 %
23.11.2018 07:48 2,2 C 3,9 C 2,8 C 97 % 1022,9 hPa 0,0 l/m 4,1 km/h (1 Bft) O-SO 111 0 min 0,000 mm 0,0 UV-I 7 W/m 1,8 C 2,2 C 6,4 km/h (2 Bft) 95,74 %
23.11.2018 07:50 2,2 C 3,9 C 2,8 C 97 % 1022,9 hPa 0,0 l/m 3,6 km/h (1 Bft) SO 129 0 min 0,000 mm 0,0 UV-I 7 W/m 1,8 C 2,2 C 8,0 km/h (2 Bft) 97,87 %
23.11.2018 07:52 2,2 C 3,9 C 2,8 C 97 % 1022,9 hPa 0,0 l/m 8,5 km/h (2 Bft) O-SO 104 0 min 0,000 mm 0,0 UV-I 9 W/m 1,8 C 0,2 C 14,5 km/h (3 Bft) 97,87 %
23.11.2018 07:54 2,2 C 3,9 C 2,8 C 97 % 1022,9 hPa 0,0 l/m 7,9 km/h (2 Bft) O 89 0 min 0,000 mm 0,0 UV-I 9 W/m 1,8 C 0,8 C 11,3 km/h (2 Bft) 100,00 %
23.11.2018 07:56 2,2 C 3,9 C 2,8 C 97 % 1022,9 hPa 0,0 l/m 9,9 km/h (2 Bft) O-SO 109 0 min 0,000 mm 0,0 UV-I 9 W/m 1,8 C -0,9 C 14,5 km/h (3 Bft) 100,00 %
23.11.2018 07:58 2,2 C 3,9 C 2,8 C 97 % 1022,9 hPa 0,0 l/m 6,4 km/h (2 Bft) O 96 0 min 0,000 mm 0,0 UV-I 11 W/m 1,8 C 2,2 C 11,3 km/h (2 Bft) 98,00 %
23.11.2018 08:00 2,2 C 3,9 C 2,8 C 97 % 1022,9 hPa 0,0 l/m 9,0 km/h (2 Bft) O 95 0 min 0,000 mm 0,0 UV-I 11 W/m 1,8 C -0,2 C 12,9 km/h (3 Bft) 97,87 %
23.11.2018 08:02 2,3 C 3,9 C 2,8 C 97 % 1022,8 hPa 0,0 l/m 9,5 km/h (2 Bft) O 99 0 min 0,000 mm 0,0 UV-I 12 W/m 1,9 C -0,5 C 16,1 km/h (3 Bft) 100,00 %
23.11.2018 08:04 2,2 C 3,9 C 2,8 C 97 % 1022,8 hPa 0,0 l/m 10,1 km/h (2 Bft) O-SO 107 0 min 0,000 mm 0,0 UV-I 12 W/m 1,8 C -1,1 C 12,9 km/h (3 Bft) 100,00 %
23.11.2018 08:06 2,2 C 3,9 C 2,8 C 97 % 1022,8 hPa 0,0 l/m 9,2 km/h (2 Bft) O-SO 109 0 min 0,000 mm 0,0 UV-I 13 W/m 1,8 C -0,4 C 14,5 km/h (3 Bft) 97,92 %
23.11.2018 08:08 2,2 C 3,9 C 2,8 C 97 % 1022,8 hPa 0,0 l/m 7,7 km/h (2 Bft) O 86 0 min 0,000 mm 0,0 UV-I 16 W/m 1,8 C 0,9 C 11,3 km/h (2 Bft) 97,96 %
23.11.2018 08:10 2,2 C 3,9 C 2,8 C 97 % 1022,8 hPa 0,0 l/m 8,5 km/h (2 Bft) O 101 0 min 0,000 mm 0,0 UV-I 16 W/m 1,8 C 0,2 C 16,1 km/h (3 Bft) 97,92 %
23.11.2018 08:12 2,2 C 3,9 C 2,8 C 97 % 1022,8 hPa 0,0 l/m 9,1 km/h (2 Bft) O 97 0 min 0,000 mm 0,0 UV-I 14 W/m 1,8 C -0,3 C 12,9 km/h (3 Bft) 95,74 %
23.11.2018 08:15 2,3 C 3,9 C 2,8 C 97 % 1022,8 hPa 0,0 l/m 5,0 km/h (1 Bft) O 90 0 min 0,000 mm 0,0 UV-I 14 W/m 1,9 C 2,3 C 9,7 km/h (2 Bft) 98,63 %
23.11.2018 08:16 2,3 C 3,9 C 2,8 C 97 % 1022,8 hPa 0,0 l/m 7,5 km/h (2 Bft) O 101 0 min 0,000 mm 0,0 UV-I 14 W/m 1,9 C 1,2 C 11,3 km/h (2 Bft) 86,67 %
23.11.2018 08:18 2,3 C 3,9 C 2,8 C 97 % 1022,8 hPa 0,0 l/m 6,7 km/h (2 Bft) O 96 0 min 0,000 mm 0,0 UV-I 14 W/m 1,9 C 2,0 C 9,7 km/h (2 Bft) 97,87 %
23.11.2018 08:20 2,3 C 3,9 C 2,8 C 97 % 1022,8 hPa 0,0 l/m 4,0 km/h (1 Bft) SO 131 0 min 0,000 mm 0,0 UV-I 16 W/m 1,9 C 2,3 C 4,8 km/h (1 Bft) 97,87 %
23.11.2018 08:22 2,3 C 3,9 C 2,8 C 97 % 1022,8 hPa 0,0 l/m 4,4 km/h (1 Bft) SO 129 0 min 0,000 mm 0,0 UV-I 16 W/m 1,9 C 2,3 C 6,4 km/h (2 Bft) 98,11 %
23.11.2018 08:24 2,3 C 3,9 C 2,8 C 97 % 1022,8 hPa 0,0 l/m 4,0 km/h (1 Bft) O-NO 61 0 min 0,000 mm 0,0 UV-I 18 W/m 1,9 C 2,3 C 6,4 km/h (2 Bft) 97,14 %
23.11.2018 08:26 2,3 C 3,9 C 2,8 C 97 % 1022,8 hPa 0,0 l/m 5,2 km/h (1 Bft) O-SO 114 0 min 0,000 mm 0,0 UV-I 18 W/m 1,9 C 2,3 C 11,3 km/h (2 Bft) 96,00 %
23.11.2018 08:28 2,4 C 3,9 C 2,8 C 97 % 1022,8 hPa 0,0 l/m 3,8 km/h (1 Bft) O-NO 74 0 min 0,000 mm 0,0 UV-I 19 W/m 2,0 C 2,4 C 6,4 km/h (2 Bft) 100,00 %
23.11.2018 08:30 2,3 C 3,9 C 2,8 C 97 % 1022,7 hPa 0,0 l/m 5,8 km/h (2 Bft) O-SO 107 0 min 0,000 mm 0,0 UV-I 19 W/m 1,9 C 2,3 C 9,7 km/h (2 Bft) 97,87 %
23.11.2018 08:32 2,4 C 3,9 C 2,8 C 97 % 1022,7 hPa 0,0 l/m 6,5 km/h (2 Bft) O 93 0 min 0,000 mm 0,0 UV-I 23 W/m 2,0 C 2,3 C 9,7 km/h (2 Bft) 100,00 %
23.11.2018 08:35 2,4 C 3,9 C 2,8 C 97 % 1022,6 hPa 0,0 l/m 5,6 km/h (1 Bft) O-NO 59 0 min 0,000 mm 0,0 UV-I 25 W/m 2,0 C 2,4 C 9,7 km/h (2 Bft) 100,00 %
23.11.2018 08:36 2,4 C 3,9 C 2,8 C 97 % 1022,6 hPa 0,0 l/m 6,4 km/h (2 Bft) O 84 0 min 0,000 mm 0,0 UV-I 25 W/m 2,0 C 2,4 C 11,3 km/h (2 Bft) 86,96 %
23.11.2018 08:38 2,4 C 3,9 C 2,8 C 97 % 1022,6 hPa 0,0 l/m 8,7 km/h (2 Bft) O 84 0 min 0,000 mm 0,0 UV-I 24 W/m 2,0 C 0,3 C 12,9 km/h (3 Bft) 100,00 %
23.11.2018 08:40 2,4 C 3,9 C 2,8 C 97 % 1022,7 hPa 0,0 l/m 8,1 km/h (2 Bft) O-NO 65 0 min 0,000 mm 0,0 UV-I 23 W/m 2,0 C 0,8 C 11,3 km/h (2 Bft) 100,00 %
23.11.2018 08:42 2,4 C 3,9 C 2,8 C 97 % 1022,7 hPa 0,0 l/m 8,3 km/h (2 Bft) O-NO 61 0 min 0,000 mm 0,0 UV-I 26 W/m 2,0 C 0,6 C 12,9 km/h (3 Bft) 98,00 %
23.11.2018 08:44 2,4 C 3,9 C 2,8 C 97 % 1022,7 hPa 0,0 l/m 7,3 km/h (2 Bft) O 98 0 min 0,000 mm 0,0 UV-I 27 W/m 2,0 C 1,5 C 12,9 km/h (3 Bft) 100,00 %
23.11.2018 08:46 2,4 C 3,9 C 2,8 C 97 % 1022,7 hPa 0,0 l/m 5,6 km/h (1 Bft) O 85 0 min 0,000 mm 0,0 UV-I 24 W/m 2,0 C 2,4 C 9,7 km/h (2 Bft) 97,87 %
23.11.2018 08:48 2,5 C 3,9 C 3,3 C 97 % 1022,7 hPa 0,0 l/m 5,9 km/h (2 Bft) O 92 0 min 0,000 mm 0,0 UV-I 24 W/m 2,1 C 2,5 C 11,3 km/h (2 Bft) 97,87 %
23.11.2018 08:50 2,5 C 3,9 C 3,3 C 97 % 1022,7 hPa 0,0 l/m 7,4 km/h (2 Bft) O 93 0 min 0,000 mm 0,0 UV-I 27 W/m 2,1 C 1,5 C 11,3 km/h (2 Bft) 98,00 %
23.11.2018 08:52 2,5 C 3,9 C 3,3 C 97 % 1022,8 hPa 0,0 l/m 3,9 km/h (1 Bft) O 96 0 min 0,000 mm 0,0 UV-I 28 W/m 2,1 C 2,5 C 9,7 km/h (2 Bft) 100,00 %
23.11.2018 08:54 2,6 C 3,9 C 3,3 C 97 % 1022,7 hPa 0,0 l/m 3,2 km/h (1 Bft) O 95 0 min 0,000 mm 0,0 UV-I 26 W/m 2,2 C 2,6 C 6,4 km/h (2 Bft) 97,87 %
23.11.2018 08:56 2,6 C 3,9 C 3,3 C 97 % 1022,7 hPa 0,0 l/m 3,9 km/h (1 Bft) O 95 0 min 0,000 mm 0,0 UV-I 26 W/m 2,2 C 2,6 C 9,7 km/h (2 Bft) 97,87 %
23.11.2018 08:58 2,5 C 3,9 C 3,3 C 97 % 1022,7 hPa 0,0 l/m 3,7 km/h (1 Bft) O 95 0 min 0,000 mm 0,0 UV-I 28 W/m 2,1 C 2,5 C 6,4 km/h (2 Bft) 97,87 %
23.11.2018 09:00 2,5 C 3,9 C 3,3 C 97 % 1022,7 hPa 0,0 l/m 5,4 km/h (1 Bft) O-SO 118 0 min 0,000 mm 0,0 UV-I 27 W/m 2,1 C 2,5 C 11,3 km/h (2 Bft) 100,00 %
23.11.2018 09:02 2,6 C 3,9 C 3,3 C 97 % 1022,7 hPa 0,0 l/m 6,9 km/h (2 Bft) O-SO 115 0 min 0,000 mm 0,0 UV-I 26 W/m 2,2 C 2,1 C 12,9 km/h (3 Bft) 100,00 %
23.11.2018 09:04 2,6 C 3,9 C 3,3 C 97 % 1022,6 hPa 0,0 l/m 7,8 km/h (2 Bft) O-SO 107 0 min 0,000 mm 0,0 UV-I 28 W/m 2,2 C 1,3 C 11,3 km/h (2 Bft) 100,00 %
23.11.2018 09:06 2,6 C 3,9 C 3,3 C 97 % 1022,6 hPa 0,0 l/m 9,9 km/h (2 Bft) O 93 0 min 0,000 mm 0,0 UV-I 27 W/m 2,2 C -0,5 C 14,5 km/h (3 Bft) 97,87 %
23.11.2018 09:08 2,6 C 3,9 C 3,3 C 97 % 1022,6 hPa 0,0 l/m 9,9 km/h (2 Bft) O-SO 105 0 min 0,000 mm 0,0 UV-I 28 W/m 2,2 C -0,5 C 14,5 km/h (3 Bft) 98,00 %
23.11.2018 09:10 2,6 C 3,9 C 3,3 C 97 % 1022,6 hPa 0,0 l/m 9,3 km/h (2 Bft) O-NO 73 0 min 0,000 mm 0,0 UV-I 33 W/m 2,2 C -0,0 C 12,9 km/h (3 Bft) 98,00 %
23.11.2018 09:12 2,6 C 3,9 C 3,3 C 97 % 1022,6 hPa 0,0 l/m 9,6 km/h (2 Bft) O-NO 78 0 min 0,000 mm 0,0 UV-I 32 W/m 2,2 C -0,3 C 12,9 km/h (3 Bft) 93,62 %
23.11.2018 09:14 2,6 C 3,9 C 3,3 C 97 % 1022,7 hPa 0,0 l/m 9,3 km/h (2 Bft) O-NO 75 0 min 0,000 mm 0,0 UV-I 30 W/m 2,2 C -0,0 C 16,1 km/h (3 Bft) 97,87 %
23.11.2018 09:16 2,6 C 3,9 C 3,3 C 97 % 1022,7 hPa 0,0 l/m 9,8 km/h (2 Bft) O-NO 78 0 min 0,000 mm 0,0 UV-I 30 W/m 2,2 C -0,4 C 16,1 km/h (3 Bft) 100,00 %
23.11.2018 09:18 2,6 C 3,9 C 2,8 C 97 % 1022,6 hPa 0,0 l/m 11,1 km/h (2 Bft) O-NO 62 0 min 0,000 mm 0,0 UV-I 30 W/m 2,2 C -1,4 C 14,5 km/h (3 Bft) 100,00 %
23.11.2018 09:20 2,6 C 3,9 C 2,8 C 97 % 1022,6 hPa 0,0 l/m 9,7 km/h (2 Bft) O 88 0 min 0,000 mm 0,0 UV-I 32 W/m 2,2 C -0,3 C 16,1 km/h (3 Bft) 100,00 %
23.11.2018 09:22 2,6 C 3,9 C 3,3 C 97 % 1022,6 hPa 0,0 l/m 11,7 km/h (2 Bft) O-SO 106 0 min 0,000 mm 0,0 UV-I 32 W/m 2,2 C -1,8 C 16,1 km/h (3 Bft) 97,87 %
23.11.2018 09:24 2,6 C 3,9 C 3,3 C 97 % 1022,6 hPa 0,0 l/m 9,1 km/h (2 Bft) O-NO 75 0 min 0,000 mm 0,0 UV-I 33 W/m 2,2 C 0,1 C 16,1 km/h (3 Bft) 95,74 %
23.11.2018 09:26 2,6 C 3,9 C 3,3 C 97 % 1022,6 hPa 0,0 l/m 8,3 km/h (2 Bft) O-NO 65 0 min 0,000 mm 0,0 UV-I 32 W/m 2,2 C 0,8 C 14,5 km/h (3 Bft) 91,49 %
23.11.2018 09:28 2,6 C 3,9 C 3,3 C 97 % 1022,7 hPa 0,0 l/m 6,9 km/h (2 Bft) O 80 0 min 0,000 mm 0,0 UV-I 32 W/m 2,2 C 2,1 C 12,9 km/h (3 Bft) 96,00 %
23.11.2018 09:30 2,6 C 3,9 C 3,3 C 97 % 1022,7 hPa 0,0 l/m 4,6 km/h (1 Bft) O-NO 60 0 min 0,000 mm 0,0 UV-I 30 W/m 2,2 C 2,6 C 6,4 km/h (2 Bft) 89,80 %
23.11.2018 09:32 2,7 C 3,9 C 3,3 C 97 % 1022,7 hPa 0,0 l/m 8,4 km/h (2 Bft) O 83 0 min 0,000 mm 0,0 UV-I 29 W/m 2,3 C 0,8 C 16,1 km/h (3 Bft) 95,74 %
23.11.2018 09:34 2,7 C 3,9 C 3,3 C 97 % 1022,6 hPa 0,0 l/m 11,2 km/h (2 Bft) O-NO 67 0 min 0,000 mm 0,0 UV-I 32 W/m 2,3 C -1,3 C 16,1 km/h (3 Bft) 93,62 %
23.11.2018 09:36 2,6 C 3,9 C 3,3 C 96 % 1022,6 hPa 0,0 l/m 9,5 km/h (2 Bft) O-SO 105 0 min 0,000 mm 0,0 UV-I 32 W/m 2,0 C -0,2 C 12,9 km/h (3 Bft) 95,74 %
23.11.2018 09:38 2,6 C 3,9 C 3,3 C 96 % 1022,6 hPa 0,0 l/m 9,8 km/h (2 Bft) O 87 0 min 0,000 mm 0,0 UV-I 33 W/m 2,0 C -0,4 C 12,9 km/h (3 Bft) 95,74 %
23.11.2018 09:40 2,7 C 3,9 C 3,3 C 96 % 1022,6 hPa 0,0 l/m 7,0 km/h (2 Bft) O 91 0 min 0,000 mm 0,0 UV-I 36 W/m 2,1 C 2,1 C 8,0 km/h (2 Bft) 93,62 %
23.11.2018 09:42 2,7 C 3,9 C 3,3 C 96 % 1022,7 hPa 0,0 l/m 6,8 km/h (2 Bft) O 79 0 min 0,000 mm 0,0 UV-I 37 W/m 2,1 C 2,3 C 12,9 km/h (3 Bft) 91,49 %
23.11.2018 09:44 2,7 C 3,9 C 3,3 C 96 % 1022,7 hPa 0,0 l/m 6,4 km/h (2 Bft) O-NO 76 0 min 0,000 mm 0,0 UV-I 39 W/m 2,1 C 2,7 C 8,0 km/h (2 Bft) 95,74 %
23.11.2018 09:46 2,7 C 3,9 C 3,3 C 96 % 1022,7 hPa 0,0 l/m 4,9 km/h (1 Bft) O-NO 70 0 min 0,000 mm 0,0 UV-I 37 W/m 2,1 C 2,7 C 9,7 km/h (2 Bft) 97,87 %
23.11.2018 09:48 2,7 C 3,9 C 3,3 C 96 % 1022,7 hPa 0,0 l/m 7,2 km/h (2 Bft) O 90 0 min 0,000 mm 0,0 UV-I 34 W/m 2,1 C 1,9 C 11,3 km/h (2 Bft) 95,74 %
23.11.2018 09:50 2,7 C 3,9 C 3,3 C 96 % 1022,8 hPa 0,0 l/m 8,5 km/h (2 Bft) O 101 0 min 0,000 mm 0,0 UV-I 35 W/m 2,1 C 0,7 C 12,9 km/h (3 Bft) 95,74 %
23.11.2018 09:52 2,7 C 3,9 C 3,3 C 96 % 1022,8 hPa 0,0 l/m 5,6 km/h (1 Bft) O 91 0 min 0,000 mm 0,0 UV-I 35 W/m 2,1 C 2,7 C 9,7 km/h (2 Bft) 96,00 %
23.11.2018 09:54 2,7 C 3,9 C 3,3 C 97 % 1022,8 hPa 0,0 l/m 6,3 km/h (2 Bft) O 86 0 min 0,000 mm 0,0 UV-I 36 W/m 2,3 C 2,7 C 9,7 km/h (2 Bft) 97,14 %
23.11.2018 09:56 2,8 C 3,9 C 3,3 C 97 % 1022,8 hPa 0,0 l/m 6,8 km/h (2 Bft) NO 49 0 min 0,000 mm 0,0 UV-I 38 W/m 2,4 C 2,4 C 11,3 km/h (2 Bft) 100,00 %
23.11.2018 09:58 2,8 C 3,9 C 3,3 C 96 % 1022,8 hPa 0,0 l/m 9,7 km/h (2 Bft) O-NO 71 0 min 0,000 mm 0,0 UV-I 40 W/m 2,2 C -0,1 C 12,9 km/h (3 Bft) 100,00 %
23.11.2018 10:00 2,7 C 3,9 C 3,3 C 96 % 1022,8 hPa 0,0 l/m 8,4 km/h (2 Bft) O 85 0 min 0,025 mm 0,0 UV-I 41 W/m 2,1 C 0,8 C 12,9 km/h (3 Bft) 100,00 %
23.11.2018 10:02 2,7 C 3,9 C 3,3 C 96 % 1022,8 hPa 0,0 l/m 5,8 km/h (2 Bft) O 79 0 min 0,000 mm 0,0 UV-I 42 W/m 2,1 C 2,7 C 8,0 km/h (2 Bft) 95,74 %
23.11.2018 10:04 2,8 C 3,9 C 3,3 C 96 % 1022,8 hPa 0,0 l/m 5,6 km/h (1 Bft) O 80 0 min 0,000 mm 0,0 UV-I 42 W/m 2,2 C 2,8 C 8,0 km/h (2 Bft) 98,00 %
23.11.2018 10:06 2,8 C 3,9 C 3,9 C 96 % 1022,9 hPa 0,0 l/m 5,6 km/h (1 Bft) O-SO 102 0 min 0,000 mm 0,0 UV-I 40 W/m 2,2 C 2,8 C 9,7 km/h (2 Bft) 97,87 %
23.11.2018 10:08 2,8 C 3,9 C 3,9 C 96 % 1023,0 hPa 0,0 l/m 5,6 km/h (1 Bft) O-SO 109 0 min 0,000 mm 0,0 UV-I 39 W/m 2,2 C 2,8 C 9,7 km/h (2 Bft) 95,74 %
23.11.2018 10:10 2,9 C 3,9 C 3,9 C 96 % 1023,0 hPa 0,0 l/m 6,9 km/h (2 Bft) O 95 0 min 0,000 mm 0,0 UV-I 42 W/m 2,3 C 2,4 C 11,3 km/h (2 Bft) 97,87 %
23.11.2018 10:12 2,8 C 3,9 C 3,9 C 96 % 1022,9 hPa 0,0 l/m 9,1 km/h (2 Bft) O 96 0 min 0,000 mm 0,0 UV-I 41 W/m 2,2 C 0,4 C 14,5 km/h (3 Bft) 97,87 %
23.11.2018 10:14 2,8 C 3,9 C 3,9 C 96 % 1023,0 hPa 0,0 l/m 7,2 km/h (2 Bft) O 90 0 min 0,000 mm 0,0 UV-I 42 W/m 2,2 C 2,0 C 12,9 km/h (3 Bft) 98,00 %
23.11.2018 10:16 2,8 C 3,9 C 3,9 C 96 % 1022,9 hPa 0,0 l/m 5,3 km/h (1 Bft) O 82 0 min 0,000 mm 0,0 UV-I 42 W/m 2,2 C 2,8 C 6,4 km/h (2 Bft) 97,87 %
23.11.2018 10:18 2,8 C 3,9 C 3,9 C 96 % 1022,9 hPa 0,0 l/m 4,8 km/h (1 Bft) O 81 0 min 0,000 mm 0,0 UV-I 42 W/m 2,2 C 2,8 C 6,4 km/h (2 Bft) 94,74 %
23.11.2018 10:20 2,9 C 3,9 C 3,9 C 96 % 1022,9 hPa 0,0 l/m 6,0 km/h (2 Bft) NO 46 0 min 0,000 mm 0,0 UV-I 44 W/m 2,3 C 2,9 C 11,3 km/h (2 Bft) 98,11 %
23.11.2018 10:22 2,9 C 3,9 C 3,9 C 96 % 1023,0 hPa 0,0 l/m 12,1 km/h (2 Bft) NO 56 0 min 0,000 mm 0,0 UV-I 42 W/m 2,3 C -1,7 C 16,1 km/h (3 Bft) 96,00 %
23.11.2018 10:24 2,9 C 3,9 C 3,9 C 96 % 1022,9 hPa 0,0 l/m 9,6 km/h (2 Bft) O-NO 73 0 min 0,000 mm 0,0 UV-I 43 W/m 2,3 C 0,1 C 16,1 km/h (3 Bft) 97,87 %
23.11.2018 10:26 2,9 C 3,9 C 3,9 C 96 % 1022,9 hPa 0,0 l/m 7,3 km/h (2 Bft) O-NO 77 0 min 0,000 mm 0,0 UV-I 46 W/m 2,3 C 2,0 C 11,3 km/h (2 Bft) 97,37 %
23.11.2018 10:28 2,9 C 3,9 C 3,9 C 96 % 1023,0 hPa 0,0 l/m 8,1 km/h (2 Bft) O 91 0 min 0,000 mm 0,0 UV-I 44 W/m 2,3 C 1,3 C 12,9 km/h (3 Bft) 97,87 %
23.11.2018 10:30 2,9 C 3,9 C 3,9 C 96 % 1022,9 hPa 0,0 l/m 8,9 km/h (2 Bft) SO 125 0 min 0,000 mm 0,0 UV-I 46 W/m 2,3 C 0,6 C 12,9 km/h (3 Bft) 98,00 %
23.11.2018 10:32 2,9 C 3,9 C 3,9 C 96 % 1022,9 hPa 0,0 l/m 4,8 km/h (1 Bft) SO 132 0 min 0,000 mm 0,0 UV-I 47 W/m 2,3 C 2,9 C 6,4 km/h (2 Bft) 98,00 %
23.11.2018 10:34 2,9 C 3,9 C 3,9 C 96 % 1023,0 hPa 0,0 l/m 5,9 km/h (2 Bft) SO 129 0 min 0,000 mm 0,0 UV-I 47 W/m 2,3 C 2,9 C 8,0 km/h (2 Bft) 95,74 %
23.11.2018 10:36 3,0 C 3,9 C 3,9 C 96 % 1022,9 hPa 0,0 l/m 6,1 km/h (2 Bft) SO 128 0 min 0,000 mm 0,0 UV-I 48 W/m 2,4 C 3,0 C 11,3 km/h (2 Bft) 97,87 %
23.11.2018 10:38 3,0 C 3,9 C 3,9 C 96 % 1022,9 hPa 0,0 l/m 6,7 km/h (2 Bft) O 82 0 min 0,000 mm 0,0 UV-I 52 W/m 2,4 C 2,7 C 11,3 km/h (2 Bft) 97,87 %
23.11.2018 10:40 3,0 C 3,9 C 3,9 C 96 % 1022,9 hPa 0,0 l/m 7,4 km/h (2 Bft) O 100 0 min 0,000 mm 0,0 UV-I 53 W/m 2,4 C 2,1 C 14,5 km/h (3 Bft) 97,62 %
23.11.2018 10:42 3,0 C 3,9 C 3,9 C 96 % 1022,9 hPa 0,0 l/m 10,9 km/h (2 Bft) O 95 0 min 0,000 mm 0,0 UV-I 54 W/m 2,4 C -0,8 C 14,5 km/h (3 Bft) 93,62 %
23.11.2018 10:44 2,9 C 3,9 C 3,9 C 96 % 1022,7 hPa 0,0 l/m 9,6 km/h (2 Bft) O 94 0 min 0,000 mm 0,0 UV-I 56 W/m 2,3 C 0,1 C 16,1 km/h (3 Bft) 93,62 %
23.11.2018 10:46 2,9 C 3,9 C 3,9 C 96 % 1022,6 hPa 0,0 l/m 12,2 km/h (2 Bft) O-SO 106 0 min 0,000 mm 0,0 UV-I 54 W/m 2,3 C -1,8 C 17,7 km/h (3 Bft) 94,00 %
23.11.2018 10:48 2,9 C 3,9 C 3,9 C 96 % 1022,5 hPa 0,0 l/m 13,0 km/h (3 Bft) O-SO 104 0 min 0,000 mm 0,0 UV-I 53 W/m 2,3 C -2,3 C 19,3 km/h (3 Bft) 95,74 %
23.11.2018 10:50 2,9 C 3,9 C 3,9 C 96 % 1022,5 hPa 0,0 l/m 12,3 km/h (3 Bft) O 101 0 min 0,000 mm 0,0 UV-I 51 W/m 2,3 C -1,9 C 17,7 km/h (3 Bft) 93,62 %
23.11.2018 10:52 2,9 C 3,9 C 3,9 C 96 % 1022,4 hPa 0,0 l/m 10,8 km/h (2 Bft) O-NO 63 0 min 0,000 mm 0,0 UV-I 51 W/m 2,3 C -0,8 C 17,7 km/h (3 Bft) 93,62 %
23.11.2018 10:54 2,9 C 3,9 C 3,9 C 96 % 1022,4 hPa 0,0 l/m 11,8 km/h (2 Bft) O-NO 63 0 min 0,000 mm 0,0 UV-I 53 W/m 2,3 C -1,5 C 16,1 km/h (3 Bft) 94,00 %
23.11.2018 10:56 2,9 C 3,9 C 3,9 C 96 % 1022,4 hPa 0,0 l/m 11,7 km/h (2 Bft) NO 49 0 min 0,000 mm 0,0 UV-I 54 W/m 2,3 C -1,5 C 17,7 km/h (3 Bft) 95,74 %
23.11.2018 10:58 2,9 C 3,9 C 3,9 C 96 % 1022,4 hPa 0,0 l/m 12,5 km/h (3 Bft) O-NO 61 0 min 0,000 mm 0,0 UV-I 54 W/m 2,3 C -2,0 C 17,7 km/h (3 Bft) 95,74 %
23.11.2018 11:00 2,9 C 3,9 C 3,9 C 96 % 1022,4 hPa 0,0 l/m 10,7 km/h (2 Bft) NO 50 0 min 0,026 mm 0,0 UV-I 54 W/m 2,3 C -0,8 C 16,1 km/h (3 Bft) 93,62 %
23.11.2018 11:02 2,9 C 3,9 C 3,9 C 96 % 1022,4 hPa 0,0 l/m 9,7 km/h (2 Bft) O 96 0 min 0,000 mm 0,0 UV-I 54 W/m 2,3 C -0,0 C 14,5 km/h (3 Bft) 94,74 %
23.11.2018 11:04 2,9 C 3,9 C 3,9 C 96 % 1022,3 hPa 0,0 l/m 9,6 km/h (2 Bft) NO 47 0 min 0,000 mm 0,0 UV-I 50 W/m 2,3 C 0,1 C 14,5 km/h (3 Bft) 93,62 %
23.11.2018 11:06 3,0 C 3,9 C 3,9 C 96 % 1022,3 hPa 0,0 l/m 14,0 km/h (3 Bft) O-NO 61 0 min 0,000 mm 0,0 UV-I 51 W/m 2,4 C -2,8 C 17,7 km/h (3 Bft) 95,74 %
23.11.2018 11:08 3,0 C 3,9 C 3,9 C 96 % 1022,3 hPa 0,0 l/m 10,0 km/h (2 Bft) NO 50 0 min 0,000 mm 0,0 UV-I 53 W/m 2,4 C -0,1 C 16,1 km/h (3 Bft) 94,00 %
23.11.2018 11:10 3,0 C 3,9 C 3,9 C 96 % 1022,2 hPa 0,0 l/m 12,2 km/h (2 Bft) O-NO 64 0 min 0,000 mm 0,0 UV-I 52 W/m 2,4 C -1,7 C 19,3 km/h (3 Bft) 100,00 %
23.11.2018 11:12 3,0 C 3,9 C 3,9 C 96 % 1022,2 hPa 0,0 l/m 9,7 km/h (2 Bft) O 94 0 min 0,000 mm 0,0 UV-I 55 W/m 2,4 C 0,1 C 14,5 km/h (3 Bft) 97,87 %
23.11.2018 11:14 2,9 C 3,9 C 3,9 C 96 % 1022,1 hPa 0,0 l/m 9,7 km/h (2 Bft) O-NO 71 0 min 0,000 mm 0,0 UV-I 58 W/m 2,3 C -0,0 C 14,5 km/h (3 Bft) 96,00 %
23.11.2018 11:16 2,9 C 3,9 C 3,9 C 96 % 1022,0 hPa 0,0 l/m 9,4 km/h (2 Bft) O-NO 65 0 min 0,000 mm 0,0 UV-I 56 W/m 2,3 C 0,2 C 12,9 km/h (3 Bft) 100,00 %
23.11.2018 11:18 2,9 C 3,9 C 3,9 C 96 % 1022,0 hPa 0,0 l/m 9,4 km/h (2 Bft) O 90 0 min 0,000 mm 0,0 UV-I 54 W/m 2,3 C 0,2 C 12,9 km/h (3 Bft) 97,87 %
23.11.2018 11:20 2,9 C 3,9 C 3,9 C 96 % 1022,0 hPa 0,0 l/m 9,3 km/h (2 Bft) O-NO 61 0 min 0,000 mm 0,0 UV-I 50 W/m 2,3 C 0,3 C 14,5 km/h (3 Bft) 97,87 %
23.11.2018 11:22 2,9 C 3,9 C 3,9 C 96 % 1022,0 hPa 0,0 l/m 7,5 km/h (2 Bft) NO 45 0 min 0,000 mm 0,0 UV-I 50 W/m 2,3 C 1,9 C 11,3 km/h (2 Bft) 94,00 %
23.11.2018 11:24 3,0 C 3,9 C 3,9 C 96 % 1022,0 hPa 0,0 l/m 9,3 km/h (2 Bft) NO 44 0 min 0,000 mm 0,0 UV-I 52 W/m 2,4 C 0,4 C 16,1 km/h (3 Bft) 96,00 %
23.11.2018 11:26 3,1 C 3,9 C 3,9 C 96 % 1021,9 hPa 0,0 l/m 15,2 km/h (3 Bft) O-NO 66 0 min 0,000 mm 0,0 UV-I 52 W/m 2,5 C -3,3 C 22,5 km/h (4 Bft) 95,74 %
23.11.2018 11:28 3,1 C 3,9 C 3,9 C 96 % 1022,0 hPa 0,0 l/m 11,6 km/h (2 Bft) NO 55 0 min 0,000 mm 0,0 UV-I 50 W/m 2,5 C -1,2 C 19,3 km/h (3 Bft) 95,74 %
23.11.2018 11:30 3,0 C 3,9 C 3,9 C 96 % 1022,0 hPa 0,0 l/m 9,3 km/h (2 Bft) O-SO 109 0 min 0,000 mm 0,0 UV-I 54 W/m 2,4 C 0,4 C 16,1 km/h (3 Bft) 97,87 %
23.11.2018 11:32 2,9 C 3,9 C 3,9 C 96 % 1022,0 hPa 0,0 l/m 12,3 km/h (3 Bft) O-NO 73 0 min 0,000 mm 0,0 UV-I 56 W/m 2,3 C -1,9 C 17,7 km/h (3 Bft) 97,87 %
23.11.2018 11:34 2,9 C 3,9 C 3,9 C 96 % 1022,0 hPa 0,0 l/m 11,0 km/h (2 Bft) NO 46 0 min 0,000 mm 0,0 UV-I 54 W/m 2,3 C -1,0 C 16,1 km/h (3 Bft) 97,87 %
23.11.2018 11:36 2,9 C 3,9 C 3,9 C 96 % 1022,0 hPa 0,0 l/m 11,4 km/h (2 Bft) O-NO 74 0 min 0,000 mm 0,0 UV-I 53 W/m 2,3 C -1,3 C 14,5 km/h (3 Bft) 95,74 %
23.11.2018 11:38 2,9 C 3,9 C 3,9 C 96 % 1022,0 hPa 0,0 l/m 10,1 km/h (2 Bft) O 94 0 min 0,000 mm 0,0 UV-I 54 W/m 2,3 C -0,3 C 16,1 km/h (3 Bft) 97,87 %
23.11.2018 11:40 2,9 C 3,9 C 3,9 C 96 % 1021,9 hPa 0,0 l/m 13,0 km/h (3 Bft) O-NO 71 0 min 0,000 mm 0,0 UV-I 55 W/m 2,3 C -2,3 C 20,9 km/h (4 Bft) 97,87 %
23.11.2018 11:42 3,0 C 3,9 C 3,9 C 96 % 1022,0 hPa 0,0 l/m 9,0 km/h (2 Bft) O-NO 68 0 min 0,000 mm 0,0 UV-I 52 W/m 2,4 C 0,6 C 16,1 km/h (3 Bft) 95,74 %
23.11.2018 11:44 3,0 C 3,9 C 3,9 C 96 % 1022,0 hPa 0,0 l/m 13,3 km/h (3 Bft) O-NO 67 0 min 0,000 mm 0,0 UV-I 61 W/m 2,4 C -2,4 C 17,7 km/h (3 Bft) 94,74 %
23.11.2018 11:46 3,1 C 3,9 C 4,4 C 96 % 1022,0 hPa 0,0 l/m 9,4 km/h (2 Bft) O-NO 78 0 min 0,000 mm 0,0 UV-I 68 W/m 2,5 C 0,4 C 14,5 km/h (3 Bft) 95,74 %
23.11.2018 11:48 3,1 C 3,9 C 4,4 C 96 % 1022,1 hPa 0,0 l/m 10,1 km/h (2 Bft) O-NO 78 0 min 0,000 mm 0,0 UV-I 69 W/m 2,5 C -0,1 C 14,5 km/h (3 Bft) 97,87 %
23.11.2018 11:50 3,1 C 3,9 C 4,4 C 96 % 1022,0 hPa 0,0 l/m 8,3 km/h (2 Bft) O-NO 61 0 min 0,000 mm 0,0 UV-I 66 W/m 2,5 C 1,3 C 11,3 km/h (2 Bft) 96,00 %
23.11.2018 11:52 3,1 C 3,9 C 4,4 C 96 % 1022,0 hPa 0,0 l/m 7,8 km/h (2 Bft) O-NO 64 0 min 0,000 mm 0,0 UV-I 62 W/m 2,5 C 1,8 C 12,9 km/h (3 Bft) 95,83 %
23.11.2018 11:54 3,2 C 3,9 C 4,4 C 96 % 1021,9 hPa 0,0 l/m 7,5 km/h (2 Bft) NO 51 0 min 0,000 mm 0,0 UV-I 59 W/m 2,6 C 2,2 C 11,3 km/h (2 Bft) 97,87 %
23.11.2018 11:56 3,2 C 3,9 C 4,4 C 96 % 1021,9 hPa 0,0 l/m 9,5 km/h (2 Bft) NO 53 0 min 0,000 mm 0,0 UV-I 59 W/m 2,6 C 0,5 C 14,5 km/h (3 Bft) 97,87 %
23.11.2018 11:58 3,3 C 3,9 C 4,4 C 96 % 1021,9 hPa 0,0 l/m 13,5 km/h (3 Bft) NO 53 0 min 0,000 mm 0,0 UV-I 61 W/m 2,7 C -2,1 C 19,3 km/h (3 Bft) 100,00 %
23.11.2018 12:00 3,3 C 3,9 C 4,4 C 96 % 1021,9 hPa 0,0 l/m 10,6 km/h (2 Bft) O-NO 61 0 min 0,025 mm 0,0 UV-I 57 W/m 2,7 C -0,2 C 16,1 km/h (3 Bft) 95,65 %
23.11.2018 12:02 3,3 C 3,9 C 4,4 C 96 % 1021,9 hPa 0,0 l/m 9,9 km/h (2 Bft) O-NO 72 0 min 0,000 mm 0,0 UV-I 56 W/m 2,7 C 0,3 C 14,5 km/h (3 Bft) 95,83 %
23.11.2018 12:04 3,3 C 3,9 C 4,4 C 96 % 1021,9 hPa 0,0 l/m 9,2 km/h (2 Bft) O-NO 67 0 min 0,000 mm 0,0 UV-I 57 W/m 2,7 C 0,8 C 12,9 km/h (3 Bft) 94,74 %
23.11.2018 12:06 3,2 C 3,9 C 4,4 C 96 % 1021,9 hPa 0,0 l/m 5,9 km/h (2 Bft) O 82 0 min 0,000 mm 0,0 UV-I 55 W/m 2,6 C 3,2 C 11,3 km/h (2 Bft) 97,87 %
23.11.2018 12:08 3,3 C 3,9 C 4,4 C 96 % 1022,0 hPa 0,0 l/m 5,8 km/h (2 Bft) O-NO 74 0 min 0,000 mm 0,0 UV-I 52 W/m 2,7 C 3,3 C 9,7 km/h (2 Bft) 97,87 %
23.11.2018 12:10 3,3 C 3,9 C 4,4 C 96 % 1021,9 hPa 0,0 l/m 7,4 km/h (2 Bft) O-NO 59 0 min 0,000 mm 0,0 UV-I 51 W/m 2,7 C 2,4 C 14,5 km/h (3 Bft) 97,87 %
23.11.2018 12:12 3,3 C 3,9 C 4,4 C 96 % 1021,8 hPa 0,0 l/m 9,2 km/h (2 Bft) NO 53 0 min 0,000 mm 0,0 UV-I 51 W/m 2,7 C 0,8 C 14,5 km/h (3 Bft) 97,87 %
23.11.2018 12:14 3,4 C 3,9 C 4,4 C 96 % 1021,7 hPa 0,0 l/m 8,1 km/h (2 Bft) NO 56 0 min 0,000 mm 0,0 UV-I 54 W/m 2,8 C 1,8 C 11,3 km/h (2 Bft) 97,87 %
23.11.2018 12:16 3,4 C 3,9 C 4,4 C 96 % 1021,7 hPa 0,0 l/m 9,1 km/h (2 Bft) NO 53 0 min 0,000 mm 0,0 UV-I 53 W/m 2,8 C 1,0 C 12,9 km/h (3 Bft) 91,49 %
23.11.2018 12:18 3,4 C 3,9 C 4,4 C 96 % 1021,8 hPa 0,0 l/m 10,8 km/h (2 Bft) O 98 0 min 0,000 mm 0,0 UV-I 55 W/m 2,8 C -0,3 C 16,1 km/h (3 Bft) 97,87 %
23.11.2018 12:20 3,4 C 3,9 C 4,4 C 96 % 1021,7 hPa 0,0 l/m 8,8 km/h (2 Bft) O 84 0 min 0,000 mm 0,0 UV-I 57 W/m 2,8 C 1,2 C 14,5 km/h (3 Bft) 100,00 %
23.11.2018 12:22 3,4 C 3,9 C 4,4 C 96 % 1021,6 hPa 0,0 l/m 10,3 km/h (2 Bft) O 80 0 min 0,000 mm 0,0 UV-I 55 W/m 2,8 C 0,1 C 16,1 km/h (3 Bft) 97,87 %
23.11.2018 12:24 3,4 C 3,9 C 4,4 C 96 % 1021,6 hPa 0,0 l/m 7,1 km/h (2 Bft) O-NO 65 0 min 0,000 mm 0,0 UV-I 51 W/m 2,8 C 2,7 C 12,9 km/h (3 Bft) 100,00 %
23.11.2018 12:26 3,4 C 3,9 C 4,4 C 96 % 1021,6 hPa 0,0 l/m 11,6 km/h (2 Bft) NO 49 0 min 0,000 mm 0,0 UV-I 52 W/m 2,8 C -0,8 C 19,3 km/h (3 Bft) 97,87 %
23.11.2018 12:28 3,4 C 3,9 C 4,4 C 96 % 1021,5 hPa 0,0 l/m 10,7 km/h (2 Bft) O-NO 78 0 min 0,000 mm 0,0 UV-I 54 W/m 2,8 C -0,2 C 16,1 km/h (3 Bft) 100,00 %
23.11.2018 12:30 3,4 C 3,9 C 4,4 C 96 % 1021,5 hPa 0,0 l/m 11,5 km/h (2 Bft) NO 55 0 min 0,000 mm 0,0 UV-I 54 W/m 2,8 C -0,8 C 17,7 km/h (3 Bft) 100,00 %
23.11.2018 12:32 3,4 C 3,9 C 4,4 C 96 % 1021,4 hPa 0,0 l/m 13,9 km/h (3 Bft) O-SO 103 0 min 0,000 mm 0,0 UV-I 57 W/m 2,8 C -2,2 C 19,3 km/h (3 Bft) 100,00 %
23.11.2018 12:34 3,4 C 3,9 C 4,4 C 96 % 1021,4 hPa 0,0 l/m 14,4 km/h (3 Bft) O-NO 75 0 min 0,000 mm 0,0 UV-I 57 W/m 2,8 C -2,5 C 20,9 km/h (4 Bft) 100,00 %
23.11.2018 12:36 3,4 C 3,9 C 4,4 C 96 % 1021,3 hPa 0,0 l/m 14,6 km/h (3 Bft) O-NO 78 0 min 0,000 mm 0,0 UV-I 56 W/m 2,8 C -2,6 C 19,3 km/h (3 Bft) 100,00 %
23.11.2018 12:38 3,4 C 3,9 C 4,4 C 95 % 1021,3 hPa 0,0 l/m 13,0 km/h (3 Bft) O 89 0 min 0,000 mm 0,0 UV-I 55 W/m 2,7 C -1,7 C 19,3 km/h (3 Bft) 100,00 %
23.11.2018 12:40 3,4 C 3,9 C 4,4 C 95 % 1021,2 hPa 0,0 l/m 16,4 km/h (3 Bft) O 81 0 min 0,000 mm 0,0 UV-I 55 W/m 2,7 C -3,6 C 22,5 km/h (4 Bft) 100,00 %
23.11.2018 12:42 3,4 C 3,9 C 4,4 C 96 % 1021,2 hPa 0,0 l/m 15,2 km/h (3 Bft) O-SO 112 0 min 0,000 mm 0,0 UV-I 62 W/m 2,8 C -3,0 C 20,9 km/h (4 Bft) 100,00 %
23.11.2018 12:44 3,4 C 3,9 C 4,4 C 96 % 1021,2 hPa 0,0 l/m 13,4 km/h (3 Bft) O 83 0 min 0,000 mm 0,0 UV-I 58 W/m 2,8 C -2,0 C 16,1 km/h (3 Bft) 100,00 %
23.11.2018 12:46 3,4 C 3,9 C 4,4 C 96 % 1021,2 hPa 0,0 l/m 12,6 km/h (3 Bft) O-SO 108 0 min 0,000 mm 0,0 UV-I 58 W/m 2,8 C -1,5 C 17,7 km/h (3 Bft) 100,00 %
23.11.2018 12:48 3,5 C 3,9 C 4,4 C 96 % 1021,2 hPa 0,0 l/m 9,1 km/h (2 Bft) O 93 0 min 0,000 mm 0,0 UV-I 53 W/m 2,9 C 1,1 C 14,5 km/h (3 Bft) 97,87 %
23.11.2018 12:50 3,5 C 3,9 C 4,4 C 96 % 1021,2 hPa 0,0 l/m 11,3 km/h (2 Bft) O-NO 63 0 min 0,000 mm 0,0 UV-I 49 W/m 2,9 C -0,5 C 16,1 km/h (3 Bft) 97,87 %
23.11.2018 12:52 3,6 C 3,9 C 4,4 C 96 % 1021,2 hPa 0,0 l/m 7,1 km/h (2 Bft) O-NO 69 0 min 0,000 mm 0,0 UV-I 46 W/m 3,0 C 3,0 C 11,3 km/h (2 Bft) 100,00 %
23.11.2018 12:54 3,6 C 3,9 C 4,4 C 96 % 1021,1 hPa 0,0 l/m 9,9 km/h (2 Bft) O-NO 74 0 min 0,000 mm 0,0 UV-I 43 W/m 3,0 C 0,6 C 14,5 km/h (3 Bft) 97,37 %
23.11.2018 12:56 3,6 C 3,9 C 4,4 C 96 % 1021,1 hPa 0,0 l/m 9,9 km/h (2 Bft) O-NO 69 0 min 0,000 mm 0,0 UV-I 44 W/m 3,0 C 0,6 C 17,7 km/h (3 Bft) 100,00 %
23.11.2018 12:58 3,6 C 3,9 C 4,4 C 96 % 1021,0 hPa 0,0 l/m 11,1 km/h (2 Bft) NO 50 0 min 0,000 mm 0,0 UV-I 43 W/m 3,0 C -0,3 C 17,7 km/h (3 Bft) 100,00 %
23.11.2018 13:00 3,6 C 3,9 C 4,4 C 96 % 1021,0 hPa 0,0 l/m 11,0 km/h (2 Bft) NO 43 0 min 0,026 mm 0,0 UV-I 42 W/m 3,0 C -0,2 C 17,7 km/h (3 Bft) 97,87 %
23.11.2018 13:02 3,6 C 3,9 C 4,4 C 96 % 1021,0 hPa 0,0 l/m 15,8 km/h (3 Bft) O-SO 104 0 min 0,000 mm 0,0 UV-I 44 W/m 3,0 C -3,0 C 20,9 km/h (4 Bft) 97,87 %
23.11.2018 13:04 3,5 C 3,9 C 4,4 C 96 % 1021,0 hPa 0,0 l/m 13,7 km/h (3 Bft) O-NO 70 0 min 0,000 mm 0,0 UV-I 50 W/m 2,9 C -2,0 C 16,1 km/h (3 Bft) 100,00 %
23.11.2018 13:06 3,5 C 3,9 C 4,4 C 96 % 1021,0 hPa 0,0 l/m 13,7 km/h (3 Bft) O 90 0 min 0,000 mm 0,0 UV-I 49 W/m 2,9 C -2,0 C 17,7 km/h (3 Bft) 100,00 %
23.11.2018 13:08 3,5 C 3,9 C 4,4 C 96 % 1021,0 hPa 0,0 l/m 13,0 km/h (3 Bft) O 79 0 min 0,000 mm 0,0 UV-I 47 W/m 2,9 C -1,6 C 17,7 km/h (3 Bft) 100,00 %
23.11.2018 13:10 3,4 C 3,9 C 4,4 C 96 % 1021,0 hPa 0,0 l/m 10,0 km/h (2 Bft) O-NO 78 0 min 0,000 mm 0,0 UV-I 47 W/m 2,8 C 0,3 C 16,1 km/h (3 Bft) 98,00 %
23.11.2018 13:12 3,5 C 3,9 C 4,4 C 96 % 1021,1 hPa 0,0 l/m 11,8 km/h (2 Bft) O-NO 76 0 min 0,000 mm 0,0 UV-I 44 W/m 2,9 C -0,8 C 14,5 km/h (3 Bft) 100,00 %
23.11.2018 13:14 3,5 C 3,9 C 4,4 C 96 % 1021,0 hPa 0,0 l/m 9,9 km/h (2 Bft) O-NO 58 0 min 0,000 mm 0,0 UV-I 40 W/m 2,9 C 0,5 C 12,9 km/h (3 Bft) 97,87 %
23.11.2018 13:16 3,6 C 3,9 C 4,4 C 96 % 1021,0 hPa 0,0 l/m 14,6 km/h (3 Bft) O-NO 63 0 min 0,000 mm 0,0 UV-I 40 W/m 3,0 C -2,4 C 19,3 km/h (3 Bft) 95,74 %
23.11.2018 13:18 3,6 C 3,9 C 4,4 C 96 % 1021,0 hPa 0,0 l/m 11,9 km/h (2 Bft) O-NO 64 0 min 0,000 mm 0,0 UV-I 40 W/m 3,0 C -0,8 C 16,1 km/h (3 Bft) 93,62 %
23.11.2018 13:20 3,6 C 3,9 C 4,4 C 96 % 1020,9 hPa 0,0 l/m 12,1 km/h (2 Bft) O 90 0 min 0,000 mm 0,0 UV-I 39 W/m 3,0 C -0,9 C 17,7 km/h (3 Bft) 95,74 %
23.11.2018 13:22 3,5 C 3,9 C 4,4 C 96 % 1020,9 hPa 0,0 l/m 15,5 km/h (3 Bft) O-NO 63 0 min 0,000 mm 0,0 UV-I 40 W/m 2,9 C -3,0 C 20,9 km/h (4 Bft) 95,74 %
23.11.2018 13:24 3,5 C 3,9 C 4,4 C 96 % 1020,9 hPa 0,0 l/m 12,8 km/h (3 Bft) O-NO 71 0 min 0,000 mm 0,0 UV-I 40 W/m 2,9 C -1,5 C 16,1 km/h (3 Bft) 91,49 %
23.11.2018 13:26 3,6 C 3,9 C 4,4 C 96 % 1020,8 hPa 0,0 l/m 13,2 km/h (3 Bft) O-NO 67 0 min 0,000 mm 0,0 UV-I 42 W/m 3,0 C -1,6 C 16,1 km/h (3 Bft) 93,62 %
23.11.2018 13:28 3,6 C 3,9 C 4,4 C 96 % 1020,9 hPa 0,0 l/m 9,3 km/h (2 Bft) NO 47 0 min 0,000 mm 0,0 UV-I 40 W/m 3,0 C 1,1 C 16,1 km/h (3 Bft) 95,74 %
23.11.2018 13:30 3,6 C 3,9 C 4,4 C 96 % 1020,9 hPa 0,0 l/m 8,4 km/h (2 Bft) NO 46 0 min 0,000 mm 0,0 UV-I 39 W/m 3,0 C 1,8 C 12,9 km/h (3 Bft) 93,62 %
23.11.2018 13:32 3,6 C 3,9 C 4,4 C 96 % 1020,8 hPa 0,0 l/m 9,1 km/h (2 Bft) O-NO 69 0 min 0,000 mm 0,0 UV-I 39 W/m 3,0 C 1,2 C 14,5 km/h (3 Bft) 89,47 %
23.11.2018 13:34 3,7 C 3,9 C 4,4 C 96 % 1020,8 hPa 0,0 l/m 10,8 km/h (2 Bft) NO 44 0 min 0,000 mm 0,0 UV-I 38 W/m 3,1 C 0,1 C 16,1 km/h (3 Bft) 95,74 %
23.11.2018 13:36 3,7 C 3,9 C 4,4 C 96 % 1020,8 hPa 0,0 l/m 9,1 km/h (2 Bft) O-NO 65 0 min 0,000 mm 0,0 UV-I 38 W/m 3,1 C 1,3 C 12,9 km/h (3 Bft) 96,00 %
23.11.2018 13:38 3,7 C 3,9 C 4,4 C 96 % 1020,7 hPa 0,0 l/m 12,5 km/h (3 Bft) O-NO 66 0 min 0,000 mm 0,0 UV-I 37 W/m 3,1 C -1,1 C 17,7 km/h (3 Bft) 95,74 %
23.11.2018 13:40 3,7 C 3,9 C 4,4 C 96 % 1020,8 hPa 0,0 l/m 8,5 km/h (2 Bft) O 86 0 min 0,000 mm 0,0 UV-I 37 W/m 3,1 C 1,8 C 14,5 km/h (3 Bft) 95,74 %
23.11.2018 13:42 3,7 C 3,9 C 4,4 C 96 % 1020,7 hPa 0,0 l/m 10,4 km/h (2 Bft) NO 55 0 min 0,000 mm 0,0 UV-I 38 W/m 3,1 C 0,3 C 16,1 km/h (3 Bft) 95,74 %
23.11.2018 13:44 3,7 C 3,9 C 4,4 C 96 % 1020,6 hPa 0,0 l/m 9,3 km/h (2 Bft) O 80 0 min 0,000 mm 0,0 UV-I 38 W/m 3,1 C 1,2 C 16,1 km/h (3 Bft) 94,00 %
23.11.2018 13:46 3,7 C 3,9 C 4,4 C 96 % 1020,6 hPa 0,0 l/m 13,7 km/h (3 Bft) O 86 0 min 0,000 mm 0,0 UV-I 37 W/m 3,1 C -1,8 C 16,1 km/h (3 Bft) 98,00 %
23.11.2018 13:48 3,7 C 3,9 C 4,4 C 96 % 1020,6 hPa 0,0 l/m 11,1 km/h (2 Bft) O 82 0 min 0,000 mm 0,0 UV-I 34 W/m 3,1 C -0,1 C 14,5 km/h (3 Bft) 97,62 %
23.11.2018 13:50 3,7 C 3,9 C 4,4 C 96 % 1020,6 hPa 0,0 l/m 10,6 km/h (2 Bft) O-NO 65 0 min 0,000 mm 0,0 UV-I 35 W/m 3,1 C 0,2 C 16,1 km/h (3 Bft) 97,87 %
23.11.2018 13:52 3,7 C 3,9 C 4,4 C 96 % 1020,6 hPa 0,0 l/m 10,6 km/h (2 Bft) O 88 0 min 0,000 mm 0,0 UV-I 31 W/m 3,1 C 0,2 C 14,5 km/h (3 Bft) 100,00 %
23.11.2018 13:54 3,7 C 3,9 C 4,4 C 96 % 1020,5 hPa 0,0 l/m 5,9 km/h (2 Bft) NO 34 0 min 0,000 mm 0,0 UV-I 31 W/m 3,1 C 3,7 C 12,9 km/h (3 Bft) 100,00 %
23.11.2018 13:56 3,7 C 3,9 C 4,4 C 96 % 1020,5 hPa 0,0 l/m 9,8 km/h (2 Bft) O 79 0 min 0,000 mm 0,0 UV-I 24 W/m 3,1 C 0,8 C 16,1 km/h (3 Bft) 100,00 %
23.11.2018 13:58 3,7 C 3,9 C 4,4 C 96 % 1020,5 hPa 0,0 l/m 9,5 km/h (2 Bft) O-NO 71 0 min 0,000 mm 0,0 UV-I 23 W/m 3,1 C 1,0 C 14,5 km/h (3 Bft) 100,00 %
23.11.2018 14:00 3,8 C 3,9 C 4,4 C 96 % 1020,5 hPa 0,0 l/m 9,3 km/h (2 Bft) O-NO 71 0 min 0,025 mm 0,0 UV-I 25 W/m 3,2 C 1,3 C 12,9 km/h (3 Bft) 98,11 %
23.11.2018 14:02 3,8 C 3,9 C 4,4 C 96 % 1020,6 hPa 0,0 l/m 9,5 km/h (2 Bft) O-NO 63 0 min 0,000 mm 0,0 UV-I 25 W/m 3,2 C 1,1 C 14,5 km/h (3 Bft) 100,00 %
23.11.2018 14:04 3,8 C 3,9 C 4,4 C 96 % 1020,4 hPa 0,0 l/m 11,1 km/h (2 Bft) O-NO 59 0 min 0,000 mm 0,0 UV-I 26 W/m 3,2 C -0,0 C 17,7 km/h (3 Bft) 97,87 %
23.11.2018 14:06 3,8 C 3,9 C 4,4 C 96 % 1020,3 hPa 0,0 l/m 11,8 km/h (2 Bft) N-NO 32 0 min 0,000 mm 0,0 UV-I 25 W/m 3,2 C -0,5 C 14,5 km/h (3 Bft) 97,87 %
23.11.2018 14:08 3,8 C 3,9 C 4,4 C 96 % 1020,2 hPa 0,0 l/m 14,9 km/h (3 Bft) O-NO 61 0 min 0,000 mm 0,0 UV-I 26 W/m 3,2 C -2,3 C 20,9 km/h (4 Bft) 100,00 %
23.11.2018 14:10 3,8 C 3,9 C 4,4 C 96 % 1020,1 hPa 0,0 l/m 14,4 km/h (3 Bft) O-NO 72 0 min 0,000 mm 0,0 UV-I 27 W/m 3,2 C -2,1 C 17,7 km/h (3 Bft) 100,00 %
23.11.2018 14:12 3,8 C 3,9 C 4,4 C 96 % 1020,1 hPa 0,0 l/m 15,8 km/h (3 Bft) O-NO 64 0 min 0,000 mm 0,0 UV-I 26 W/m 3,2 C -2,8 C 20,9 km/h (4 Bft) 97,87 %
23.11.2018 14:14 3,8 C 3,9 C 4,4 C 96 % 1020,1 hPa 0,0 l/m 13,5 km/h (3 Bft) O 92 0 min 0,000 mm 0,0 UV-I 31 W/m 3,2 C -1,5 C 19,3 km/h (3 Bft) 100,00 %
23.11.2018 14:16 3,8 C 3,9 C 4,4 C 96 % 1020,1 hPa 0,0 l/m 16,1 km/h (3 Bft) O 90 0 min 0,000 mm 0,0 UV-I 32 W/m 3,2 C -2,9 C 22,5 km/h (4 Bft) 100,00 %
23.11.2018 14:18 3,8 C 3,9 C 4,4 C 96 % 1020,0 hPa 0,0 l/m 14,6 km/h (3 Bft) O-NO 72 0 min 0,000 mm 0,0 UV-I 32 W/m 3,2 C -2,2 C 19,3 km/h (3 Bft) 100,00 %
23.11.2018 14:20 3,9 C 3,9 C 4,4 C 96 % 1020,0 hPa 0,0 l/m 13,0 km/h (3 Bft) NO 56 0 min 0,000 mm 0,0 UV-I 34 W/m 3,3 C -1,1 C 22,5 km/h (4 Bft) 100,00 %
23.11.2018 14:22 3,9 C 3,9 C 4,4 C 96 % 1020,1 hPa 0,0 l/m 10,7 km/h (2 Bft) O-NO 73 0 min 0,000 mm 0,0 UV-I 35 W/m 3,3 C 0,4 C 14,5 km/h (3 Bft) 95,16 %
23.11.2018 14:24 3,9 C 3,9 C 4,4 C 96 % 1020,1 hPa 0,0 l/m 14,0 km/h (3 Bft) O 82 0 min 0,000 mm 0,0 UV-I 34 W/m 3,3 C -1,7 C 20,9 km/h (4 Bft) 95,92 %
23.11.2018 14:26 3,9 C 3,9 C 4,4 C 96 % 1020,0 hPa 0,0 l/m 12,6 km/h (3 Bft) O-SO 102 0 min 0,000 mm 0,0 UV-I 32 W/m 3,3 C -0,9 C 17,7 km/h (3 Bft) 97,92 %
23.11.2018 14:28 3,9 C 3,9 C 4,4 C 96 % 1020,0 hPa 0,0 l/m 14,7 km/h (3 Bft) O-SO 103 0 min 0,000 mm 0,0 UV-I 30 W/m 3,3 C -2,1 C 20,9 km/h (4 Bft) 97,87 %
23.11.2018 14:30 3,9 C 3,9 C 4,4 C 96 % 1020,0 hPa 0,0 l/m 11,3 km/h (2 Bft) O-NO 68 0 min 0,000 mm 0,0 UV-I 28 W/m 3,3 C -0,1 C 16,1 km/h (3 Bft) 95,74 %
23.11.2018 14:32 3,9 C 3,9 C 4,4 C 96 % 1020,0 hPa 0,0 l/m 11,1 km/h (2 Bft) O-NO 64 0 min 0,000 mm 0,0 UV-I 31 W/m 3,3 C 0,1 C 16,1 km/h (3 Bft) 97,87 %
23.11.2018 14:34 3,9 C 3,9 C 4,4 C 95 % 1020,0 hPa 0,0 l/m 13,0 km/h (3 Bft) O 89 0 min 0,000 mm 0,0 UV-I 31 W/m 3,2 C -1,1 C 19,3 km/h (3 Bft) 97,87 %
23.11.2018 14:36 3,9 C 3,9 C 4,4 C 95 % 1020,0 hPa 0,0 l/m 12,4 km/h (3 Bft) O-NO 59 0 min 0,000 mm 0,0 UV-I 28 W/m 3,2 C -0,8 C 19,3 km/h (3 Bft) 93,62 %
23.11.2018 14:38 3,9 C 3,9 C 4,4 C 95 % 1020,0 hPa 0,0 l/m 11,2 km/h (2 Bft) O-NO 65 0 min 0,000 mm 0,0 UV-I 26 W/m 3,2 C 0,0 C 16,1 km/h (3 Bft) 95,74 %
23.11.2018 14:40 3,9 C 3,9 C 4,4 C 95 % 1020,0 hPa 0,0 l/m 14,6 km/h (3 Bft) O-NO 66 0 min 0,000 mm 0,0 UV-I 24 W/m 3,2 C -2,0 C 19,3 km/h (3 Bft) 94,74 %
23.11.2018 14:42 4,0 C 3,9 C 4,4 C 95 % 1020,0 hPa 0,0 l/m 10,0 km/h (2 Bft) NO 42 0 min 0,000 mm 0,0 UV-I 24 W/m 3,3 C 1,0 C 17,7 km/h (3 Bft) 95,74 %
23.11.2018 14:44 4,0 C 3,9 C 4,4 C 95 % 1019,9 hPa 0,0 l/m 10,6 km/h (2 Bft) NO 40 0 min 0,000 mm 0,0 UV-I 22 W/m 3,3 C 0,5 C 12,9 km/h (3 Bft) 92,00 %
23.11.2018 14:46 4,0 C 3,9 C 4,4 C 95 % 1019,8 hPa 0,0 l/m 12,1 km/h (2 Bft) O 82 0 min 0,000 mm 0,0 UV-I 21 W/m 3,3 C -0,5 C 19,3 km/h (3 Bft) 95,74 %
23.11.2018 14:48 4,0 C 3,9 C 4,4 C 95 % 1019,8 hPa 0,0 l/m 16,1 km/h (3 Bft) O-NO 69 0 min 0,000 mm 0,0 UV-I 22 W/m 3,3 C -2,7 C 25,7 km/h (4 Bft) 95,74 %
23.11.2018 14:50 4,0 C 3,9 C 4,4 C 95 % 1019,8 hPa 0,0 l/m 18,1 km/h (3 Bft) O 94 0 min 0,000 mm 0,0 UV-I 22 W/m 3,3 C -3,6 C 22,5 km/h (4 Bft) 96,23 %
23.11.2018 14:52 4,0 C 3,9 C 4,4 C 95 % 1019,8 hPa 0,0 l/m 16,5 km/h (3 Bft) O 90 0 min 0,000 mm 0,0 UV-I 20 W/m 3,3 C -2,9 C 22,5 km/h (4 Bft) 95,74 %
23.11.2018 14:54 4,0 C 3,9 C 4,4 C 95 % 1019,7 hPa 0,0 l/m 16,9 km/h (3 Bft) O-SO 106 0 min 0,000 mm 0,0 UV-I 19 W/m 3,3 C -3,1 C 20,9 km/h (4 Bft) 92,11 %
23.11.2018 14:56 4,0 C 3,9 C 4,4 C 95 % 1019,7 hPa 0,0 l/m 15,7 km/h (3 Bft) O-SO 111 0 min 0,000 mm 0,0 UV-I 17 W/m 3,3 C -2,5 C 20,9 km/h (4 Bft) 96,00 %
23.11.2018 14:58 4,0 C 3,9 C 4,4 C 95 % 1019,7 hPa 0,0 l/m 14,1 km/h (3 Bft) O 90 0 min 0,000 mm 0,0 UV-I 14 W/m 3,3 C -1,6 C 20,9 km/h (4 Bft) 97,87 %
23.11.2018 15:00 4,0 C 3,9 C 4,4 C 95 % 1019,7 hPa 0,0 l/m 11,4 km/h (2 Bft) O-NO 71 0 min 0,025 mm 0,0 UV-I 14 W/m 3,3 C -0,0 C 19,3 km/h (3 Bft) 93,62 %
23.11.2018 15:02 4,1 C 3,9 C 4,4 C 95 % 1019,7 hPa 0,0 l/m 16,1 km/h (3 Bft) NO 53 0 min 0,000 mm 0,0 UV-I 13 W/m 3,4 C -2,6 C 22,5 km/h (4 Bft) 95,74 %
23.11.2018 15:04 4,1 C 3,9 C 4,4 C 95 % 1019,7 hPa 0,0 l/m 14,6 km/h (3 Bft) NO 46 0 min 0,000 mm 0,0 UV-I 12 W/m 3,4 C -1,8 C 20,9 km/h (4 Bft) 95,83 %
23.11.2018 15:06 4,1 C 3,9 C 4,4 C 95 % 1019,6 hPa 0,0 l/m 14,0 km/h (3 Bft) O 81 0 min 0,000 mm 0,0 UV-I 12 W/m 3,4 C -1,5 C 19,3 km/h (3 Bft) 97,87 %
23.11.2018 15:08 4,1 C 3,9 C 4,4 C 95 % 1019,7 hPa 0,0 l/m 13,1 km/h (3 Bft) O-NO 62 0 min 0,000 mm 0,0 UV-I 14 W/m 3,4 C -1,0 C 20,9 km/h (4 Bft) 96,00 %
23.11.2018 15:10 4,1 C 3,9 C 4,4 C 95 % 1019,6 hPa 0,0 l/m 16,2 km/h (3 Bft) O-NO 69 0 min 0,000 mm 0,0 UV-I 14 W/m 3,4 C -2,6 C 20,9 km/h (4 Bft) 95,74 %
23.11.2018 15:12 4,1 C 3,9 C 4,4 C 95 % 1019,5 hPa 0,0 l/m 17,0 km/h (3 Bft) O-NO 65 0 min 0,000 mm 0,0 UV-I 14 W/m 3,4 C -3,0 C 22,5 km/h (4 Bft) 97,87 %
23.11.2018 15:14 4,1 C 3,9 C 4,4 C 95 % 1019,5 hPa 0,0 l/m 16,5 km/h (3 Bft) O 89 0 min 0,000 mm 0,0 UV-I 14 W/m 3,4 C -2,8 C 24,1 km/h (4 Bft) 97,87 %
23.11.2018 15:16 4,1 C 3,9 C 4,4 C 95 % 1019,5 hPa 0,0 l/m 16,8 km/h (3 Bft) O 90 0 min 0,000 mm 0,0 UV-I 15 W/m 3,4 C -2,9 C 22,5 km/h (4 Bft) 97,37 %
23.11.2018 15:18 4,1 C 3,9 C 4,4 C 95 % 1019,4 hPa 0,0 l/m 12,5 km/h (3 Bft) O-SO 103 0 min 0,000 mm 0,0 UV-I 14 W/m 3,4 C -0,6 C 17,7 km/h (3 Bft) 95,74 %
23.11.2018 15:20 4,1 C 3,9 C 4,4 C 95 % 1019,5 hPa 0,0 l/m 16,4 km/h (3 Bft) O 84 0 min 0,000 mm 0,0 UV-I 14 W/m 3,4 C -2,7 C 19,3 km/h (3 Bft) 95,74 %
23.11.2018 15:22 4,1 C 3,9 C 4,4 C 95 % 1019,4 hPa 0,0 l/m 12,4 km/h (3 Bft) O 85 0 min 0,000 mm 0,0 UV-I 14 W/m 3,4 C -0,5 C 17,7 km/h (3 Bft) 96,23 %
23.11.2018 15:24 4,1 C 3,9 C 4,4 C 95 % 1019,4 hPa 0,0 l/m 12,7 km/h (3 Bft) O 101 0 min 0,000 mm 0,0 UV-I 14 W/m 3,4 C -0,7 C 16,1 km/h (3 Bft) 94,00 %
23.11.2018 15:26 4,2 C 3,9 C 4,4 C 95 % 1019,4 hPa 0,0 l/m 13,4 km/h (3 Bft) O 96 0 min 0,000 mm 0,0 UV-I 14 W/m 3,5 C -1,0 C 17,7 km/h (3 Bft) 93,62 %
23.11.2018 15:28 4,1 C 3,9 C 4,4 C 95 % 1019,4 hPa 0,0 l/m 11,8 km/h (2 Bft) SO 128 0 min 0,000 mm 0,0 UV-I 14 W/m 3,4 C -0,2 C 19,3 km/h (3 Bft) 95,74 %
23.11.2018 15:30 4,1 C 3,9 C 4,4 C 95 % 1019,4 hPa 0,0 l/m 12,4 km/h (3 Bft) O-NO 70 0 min 0,000 mm 0,0 UV-I 12 W/m 3,4 C -0,5 C 17,7 km/h (3 Bft) 93,62 %
23.11.2018 15:32 4,1 C 3,9 C 4,4 C 95 % 1019,4 hPa 0,0 l/m 11,5 km/h (2 Bft) O-SO 103 0 min 0,000 mm 0,0 UV-I 12 W/m 3,4 C 0,0 C 17,7 km/h (3 Bft) 95,74 %
23.11.2018 15:34 4,1 C 3,9 C 4,4 C 95 % 1019,4 hPa 0,0 l/m 14,2 km/h (3 Bft) O-SO 117 0 min 0,000 mm 0,0 UV-I 12 W/m 3,4 C -1,6 C 19,3 km/h (3 Bft) 97,14 %
23.11.2018 15:36 4,1 C 3,9 C 4,4 C 95 % 1019,4 hPa 0,0 l/m 13,3 km/h (3 Bft) O 90 0 min 0,000 mm 0,0 UV-I 12 W/m 3,4 C -1,1 C 20,9 km/h (4 Bft) 98,00 %
23.11.2018 15:38 4,1 C 3,9 C 4,4 C 95 % 1019,3 hPa 0,0 l/m 12,9 km/h (3 Bft) O 97 0 min 0,000 mm 0,0 UV-I 11 W/m 3,4 C -0,8 C 17,7 km/h (3 Bft) 95,74 %
23.11.2018 15:40 4,1 C 3,9 C 4,4 C 95 % 1019,3 hPa 0,0 l/m 18,1 km/h (3 Bft) O-NO 78 0 min 0,000 mm 0,0 UV-I 11 W/m 3,4 C -3,5 C 24,1 km/h (4 Bft) 98,00 %
23.11.2018 15:42 4,1 C 3,9 C 4,4 C 95 % 1019,2 hPa 0,0 l/m 19,8 km/h (3 Bft) O-NO 74 0 min 0,000 mm 0,0 UV-I 11 W/m 3,4 C -4,3 C 25,7 km/h (4 Bft) 97,92 %
23.11.2018 15:44 4,1 C 3,9 C 4,4 C 95 % 1019,2 hPa 0,0 l/m 17,6 km/h (3 Bft) O 79 0 min 0,000 mm 0,0 UV-I 11 W/m 3,4 C -3,3 C 24,1 km/h (4 Bft) 95,74 %
23.11.2018 15:46 4,1 C 3,9 C 4,4 C 95 % 1019,3 hPa 0,0 l/m 14,0 km/h (3 Bft) O 96 0 min 0,000 mm 0,0 UV-I 9 W/m 3,4 C -1,5 C 19,3 km/h (3 Bft) 96,00 %
23.11.2018 15:48 4,1 C 3,9 C 4,4 C 95 % 1019,3 hPa 0,0 l/m 15,0 km/h (3 Bft) O 98 0 min 0,000 mm 0,0 UV-I 9 W/m 3,4 C -2,0 C 20,9 km/h (4 Bft) 97,87 %
23.11.2018 15:50 4,1 C 3,9 C 4,4 C 95 % 1019,3 hPa 0,0 l/m 17,9 km/h (3 Bft) O-NO 59 0 min 0,000 mm 0,0 UV-I 8 W/m 3,4 C -3,4 C 25,7 km/h (4 Bft) 97,87 %
23.11.2018 15:52 4,1 C 3,9 C 4,4 C 95 % 1019,3 hPa 0,0 l/m 16,6 km/h (3 Bft) O-NO 69 0 min 0,000 mm 0,0 UV-I 7 W/m 3,4 C -2,8 C 25,7 km/h (4 Bft) 97,87 %
23.11.2018 15:54 4,1 C 3,9 C 4,4 C 95 % 1019,2 hPa 0,0 l/m 20,7 km/h (4 Bft) O 81 0 min 0,000 mm 0,0 UV-I 7 W/m 3,4 C -4,6 C 29,0 km/h (5 Bft) 97,37 %
23.11.2018 15:56 4,1 C 3,9 C 3,9 C 95 % 1019,1 hPa 0,0 l/m 20,9 km/h (4 Bft) O-SO 105 0 min 0,000 mm 0,0 UV-I 7 W/m 3,4 C -4,7 C 27,4 km/h (4 Bft) 96,00 %
23.11.2018 15:58 4,1 C 3,9 C 3,9 C 95 % 1019,1 hPa 0,0 l/m 20,8 km/h (4 Bft) O-SO 114 0 min 0,000 mm 0,0 UV-I 7 W/m 3,4 C -4,7 C 29,0 km/h (5 Bft) 95,74 %
23.11.2018 16:00 4,1 C 3,9 C 3,9 C 95 % 1019,0 hPa 0,0 l/m 18,5 km/h (3 Bft) O 99 0 min 0,000 mm 0,0 UV-I 7 W/m 3,4 C -3,7 C 25,7 km/h (4 Bft) 97,87 %
23.11.2018 16:02 4,1 C 3,9 C 3,9 C 96 % 1019,0 hPa 0,0 l/m 19,0 km/h (3 Bft) O-NO 71 0 min 0,000 mm 0,0 UV-I 6 W/m 3,5 C -3,9 C 25,7 km/h (4 Bft) 95,74 %
23.11.2018 16:04 4,1 C 3,9 C 3,9 C 96 % 1019,0 hPa 0,0 l/m 20,7 km/h (4 Bft) NO 55 0 min 0,000 mm 0,0 UV-I 5 W/m 3,5 C -4,6 C 29,0 km/h (5 Bft) 94,00 %
23.11.2018 16:06 4,1 C 3,9 C 3,9 C 96 % 1019,0 hPa 0,2 l/m 21,8 km/h (4 Bft) O 88 0 min 0,000 mm 0,0 UV-I 5 W/m 3,5 C -5,0 C 30,6 km/h (5 Bft) 97,37 %
23.11.2018 16:08 4,1 C 3,9 C 3,9 C 96 % 1019,0 hPa 0,0 l/m 21,0 km/h (4 Bft) O-NO 66 0 min 0,000 mm 0,0 UV-I 5 W/m 3,5 C -4,7 C 30,6 km/h (5 Bft) 97,87 %
23.11.2018 16:10 4,1 C 3,9 C 3,9 C 96 % 1018,9 hPa 0,0 l/m 18,9 km/h (3 Bft) O 101 0 min 0,000 mm 0,0 UV-I 5 W/m 3,5 C -3,9 C 25,7 km/h (4 Bft) 98,00 %
23.11.2018 16:12 4,1 C 3,9 C 3,9 C 96 % 1019,0 hPa 0,0 l/m 19,2 km/h (3 Bft) O-SO 113 0 min 0,000 mm 0,0 UV-I 5 W/m 3,5 C -4,0 C 30,6 km/h (5 Bft) 97,87 %
23.11.2018 16:14 4,1 C 3,9 C 3,9 C 95 % 1019,0 hPa 0,0 l/m 16,8 km/h (3 Bft) O-SO 115 0 min 0,000 mm 0,0 UV-I 2 W/m 3,4 C -2,9 C 25,7 km/h (4 Bft) 97,87 %
23.11.2018 16:16 4,1 C 3,9 C 3,9 C 95 % 1018,9 hPa 0,0 l/m 18,3 km/h (3 Bft) O-NO 76 0 min 0,000 mm 0,0 UV-I 0 W/m 3,4 C -3,6 C 27,4 km/h (4 Bft) 97,87 %
23.11.2018 16:18 4,1 C 3,9 C 3,9 C 95 % 1018,9 hPa 0,0 l/m 17,2 km/h (3 Bft) O 83 0 min 0,000 mm 0,0 UV-I 0 W/m 3,4 C -3,1 C 22,5 km/h (4 Bft) 100,00 %
23.11.2018 16:20 4,1 C 3,9 C 3,9 C 95 % 1018,9 hPa 0,0 l/m 16,7 km/h (3 Bft) O-SO 105 0 min 0,000 mm 0,0 UV-I 0 W/m 3,4 C -2,9 C 22,5 km/h (4 Bft) 100,00 %
23.11.2018 16:22 4,1 C 3,9 C 3,9 C 95 % 1018,9 hPa 0,0 l/m 14,6 km/h (3 Bft) O-NO 73 0 min 0,000 mm 0,0 UV-I 0 W/m 3,4 C -1,8 C 20,9 km/h (4 Bft) 100,00 %
23.11.2018 16:24 4,1 C 3,9 C 3,9 C 95 % 1018,8 hPa 0,0 l/m 14,2 km/h (3 Bft) O-NO 59 0 min 0,000 mm 0,0 UV-I 0 W/m 3,4 C -1,6 C 19,3 km/h (3 Bft) 100,00 %
23.11.2018 16:26 4,1 C 3,9 C 3,9 C 95 % 1018,8 hPa 0,0 l/m 21,2 km/h (4 Bft) O-NO 65 0 min 0,000 mm 0,0 UV-I 0 W/m 3,4 C -4,8 C 30,6 km/h (5 Bft) 100,00 %
23.11.2018 16:28 4,1 C 3,9 C 3,9 C 95 % 1018,8 hPa 0,0 l/m 20,6 km/h (4 Bft) O-SO 103 0 min 0,000 mm 0,0 UV-I 0 W/m 3,4 C -4,6 C 27,4 km/h (4 Bft) 97,87 %
23.11.2018 16:30 4,1 C 3,9 C 3,9 C 95 % 1018,8 hPa 0,0 l/m 18,9 km/h (3 Bft) O-NO 67 0 min 0,000 mm 0,0 UV-I 0 W/m 3,4 C -3,9 C 25,7 km/h (4 Bft) 100,00 %
23.11.2018 16:32 4,1 C 3,9 C 3,9 C 95 % 1018,8 hPa 0,0 l/m 17,9 km/h (3 Bft) O-NO 67 0 min 0,000 mm 0,0 UV-I 0 W/m 3,4 C -3,4 C 22,5 km/h (4 Bft) 100,00 %
23.11.2018 16:34 4,1 C 3,9 C 3,9 C 95 % 1018,8 hPa 0,0 l/m 12,9 km/h (3 Bft) O-NO 76 0 min 0,000 mm 0,0 UV-I 0 W/m 3,4 C -0,8 C 20,9 km/h (4 Bft) 97,87 %
23.11.2018 16:36 4,1 C 3,9 C 3,9 C 95 % 1018,8 hPa 0,0 l/m 16,4 km/h (3 Bft) O-SO 107 0 min 0,000 mm 0,0 UV-I 0 W/m 3,4 C -2,7 C 24,1 km/h (4 Bft) 97,87 %
23.11.2018 16:38 4,2 C 3,9 C 4,4 C 95 % 1018,9 hPa 0,0 l/m 18,0 km/h (3 Bft) O-SO 103 0 min 0,000 mm 0,0 UV-I 0 W/m 3,5 C -3,4 C 24,1 km/h (4 Bft) 100,00 %
23.11.2018 16:40 4,2 C 3,9 C 4,4 C 95 % 1018,9 hPa 0,0 l/m 19,5 km/h (3 Bft) O 82 0 min 0,000 mm 0,0 UV-I 0 W/m 3,5 C -4,0 C 30,6 km/h (5 Bft) 97,87 %
23.11.2018 16:42 4,2 C 3,9 C 4,4 C 95 % 1018,9 hPa 0,0 l/m 17,4 km/h (3 Bft) O-NO 71 0 min 0,000 mm 0,0 UV-I 0 W/m 3,5 C -3,1 C 25,7 km/h (4 Bft) 100,00 %
23.11.2018 16:44 4,2 C 3,9 C 4,4 C 95 % 1018,9 hPa 0,0 l/m 19,1 km/h (3 Bft) O 89 0 min 0,000 mm 0,0 UV-I 0 W/m 3,5 C -3,8 C 27,4 km/h (4 Bft) 95,74 %
23.11.2018 16:46 4,2 C 3,9 C 4,4 C 95 % 1018,9 hPa 0,0 l/m 19,2 km/h (3 Bft) O 86 0 min 0,000 mm 0,0 UV-I 0 W/m 3,5 C -3,9 C 25,7 km/h (4 Bft) 100,00 %
23.11.2018 16:48 4,2 C 3,9 C 4,4 C 95 % 1018,9 hPa 0,0 l/m 20,1 km/h (4 Bft) O 100 0 min 0,000 mm 0,0 UV-I 0 W/m 3,5 C -4,2 C 27,4 km/h (4 Bft) 100,00 %
23.11.2018 16:50 4,2 C 3,9 C 4,4 C 95 % 1018,9 hPa 0,0 l/m 15,9 km/h (3 Bft) O 95 0 min 0,000 mm 0,0 UV-I 0 W/m 3,5 C -2,4 C 27,4 km/h (4 Bft) 97,87 %
23.11.2018 16:52 4,3 C 3,9 C 4,4 C 95 % 1018,8 hPa 0,0 l/m 17,5 km/h (3 Bft) O-NO 65 0 min 0,000 mm 0,0 UV-I 0 W/m 3,6 C -3,0 C 25,7 km/h (4 Bft) 100,00 %
23.11.2018 16:54 4,3 C 3,9 C 4,4 C 95 % 1018,8 hPa 0,0 l/m 17,0 km/h (3 Bft) O-NO 67 0 min 0,000 mm 0,0 UV-I 0 W/m 3,6 C -2,8 C 27,4 km/h (4 Bft) 100,00 %
23.11.2018 16:56 4,3 C 3,9 C 4,4 C 95 % 1018,8 hPa 0,0 l/m 15,9 km/h (3 Bft) O 85 0 min 0,000 mm 0,0 UV-I 0 W/m 3,6 C -2,2 C 24,1 km/h (4 Bft) 100,00 %
23.11.2018 16:58 4,3 C 3,9 C 4,4 C 95 % 1018,8 hPa 0,0 l/m 13,9 km/h (3 Bft) O 89 0 min 0,000 mm 0,0 UV-I 0 W/m 3,6 C -1,2 C 19,3 km/h (3 Bft) 97,87 %
23.11.2018 17:00 4,3 C 3,9 C 4,4 C 95 % 1018,8 hPa 0,0 l/m 14,9 km/h (3 Bft) O 95 0 min 0,000 mm 0,0 UV-I 0 W/m 3,6 C -1,7 C 20,9 km/h (4 Bft) 100,00 %
23.11.2018 17:02 4,3 C 3,9 C 4,4 C 95 % 1018,8 hPa 0,0 l/m 16,4 km/h (3 Bft) O 90 0 min 0,000 mm 0,0 UV-I 0 W/m 3,6 C -2,5 C 22,5 km/h (4 Bft) 100,00 %
23.11.2018 17:04 4,3 C 3,9 C 4,4 C 95 % 1018,8 hPa 0,0 l/m 18,2 km/h (3 Bft) O-SO 115 0 min 0,000 mm 0,0 UV-I 0 W/m 3,6 C -3,3 C 27,4 km/h (4 Bft) 100,00 %
23.11.2018 17:06 4,3 C 3,9 C 4,4 C 95 % 1018,8 hPa 0,0 l/m 15,6 km/h (3 Bft) O-SO 113 0 min 0,000 mm 0,0 UV-I 0 W/m 3,6 C -2,1 C 19,3 km/h (3 Bft) 100,00 %
23.11.2018 17:08 4,3 C 3,9 C 4,4 C 95 % 1018,9 hPa 0,0 l/m 14,5 km/h (3 Bft) O 88 0 min 0,000 mm 0,0 UV-I 0 W/m 3,6 C -1,5 C 25,7 km/h (4 Bft) 100,00 %
23.11.2018 17:10 4,3 C 3,9 C 4,4 C 95 % 1018,8 hPa 0,0 l/m 16,4 km/h (3 Bft) O-SO 105 0 min 0,000 mm 0,0 UV-I 0 W/m 3,6 C -2,5 C 25,7 km/h (4 Bft) 100,00 %
23.11.2018 17:12 4,4 C 3,9 C 4,4 C 95 % 1018,8 hPa 0,0 l/m 16,4 km/h (3 Bft) O 98 0 min 0,000 mm 0,0 UV-I 0 W/m 3,7 C -2,4 C 25,7 km/h (4 Bft) 100,00 %
23.11.2018 17:14 4,4 C 3,9 C 4,4 C 96 % 1018,8 hPa 0,0 l/m 14,6 km/h (3 Bft) O 89 0 min 0,000 mm 0,0 UV-I 0 W/m 3,8 C -1,4 C 20,9 km/h (4 Bft) 95,74 %
23.11.2018 17:16 4,4 C 3,9 C 4,4 C 96 % 1018,8 hPa 0,0 l/m 14,4 km/h (3 Bft) O-NO 59 0 min 0,000 mm 0,0 UV-I 0 W/m 3,8 C -1,3 C 20,9 km/h (4 Bft) 95,74 %
23.11.2018 17:18 4,4 C 3,9 C 4,4 C 95 % 1018,8 hPa 0,0 l/m 14,8 km/h (3 Bft) O 101 0 min 0,000 mm 0,0 UV-I 0 W/m 3,7 C -1,5 C 20,9 km/h (4 Bft) 97,87 %
23.11.2018 17:20 4,4 C 3,9 C 4,4 C 96 % 1018,8 hPa 0,0 l/m 18,3 km/h (3 Bft) O-NO 70 0 min 0,000 mm 0,0 UV-I 0 W/m 3,8 C -3,2 C 24,1 km/h (4 Bft) 93,62 %
23.11.2018 17:22 4,4 C 3,9 C 4,4 C 96 % 1018,8 hPa 0,0 l/m 20,5 km/h (4 Bft) O 82 0 min 0,000 mm 0,0 UV-I 0 W/m 3,8 C -4,1 C 27,4 km/h (4 Bft) 95,74 %
23.11.2018 17:24 4,4 C 3,9 C 4,4 C 96 % 1018,8 hPa 0,0 l/m 17,5 km/h (3 Bft) O 87 0 min 0,000 mm 0,0 UV-I 0 W/m 3,8 C -2,9 C 25,7 km/h (4 Bft) 95,74 %
23.11.2018 17:26 4,4 C 3,9 C 4,4 C 96 % 1018,8 hPa 0,0 l/m 18,5 km/h (3 Bft) O 90 0 min 0,000 mm 0,0 UV-I 0 W/m 3,8 C -3,3 C 24,1 km/h (4 Bft) 93,62 %
23.11.2018 17:28 4,4 C 3,9 C 4,4 C 96 % 1018,8 hPa 0,0 l/m 17,1 km/h (3 Bft) O 90 0 min 0,000 mm 0,0 UV-I 0 W/m 3,8 C -2,7 C 25,7 km/h (4 Bft) 93,62 %
23.11.2018 17:30 4,4 C 3,9 C 4,4 C 96 % 1018,8 hPa 0,0 l/m 12,6 km/h (3 Bft) O 83 0 min 0,000 mm 0,0 UV-I 0 W/m 3,8 C -0,3 C 17,7 km/h (3 Bft) 92,00 %
23.11.2018 17:32 4,4 C 3,9 C 4,4 C 96 % 1018,8 hPa 0,0 l/m 11,6 km/h (2 Bft) O 101 0 min 0,000 mm 0,0 UV-I 0 W/m 3,8 C 0,3 C 19,3 km/h (3 Bft) 93,62 %
23.11.2018 17:34 4,4 C 3,9 C 4,4 C 95 % 1018,8 hPa 0,0 l/m 15,0 km/h (3 Bft) O 82 0 min 0,000 mm 0,0 UV-I 0 W/m 3,7 C -1,7 C 20,9 km/h (4 Bft) 97,22 %
23.11.2018 17:36 4,5 C 3,9 C 4,4 C 96 % 1018,7 hPa 0,0 l/m 15,0 km/h (3 Bft) O 83 0 min 0,000 mm 0,0 UV-I 0 W/m 3,9 C -1,5 C 19,3 km/h (3 Bft) 98,00 %
23.11.2018 17:38 4,5 C 3,9 C 4,4 C 96 % 1018,6 hPa 0,0 l/m 18,2 km/h (3 Bft) O 99 0 min 0,000 mm 0,0 UV-I 0 W/m 3,9 C -3,1 C 25,7 km/h (4 Bft) 95,74 %
23.11.2018 17:40 4,5 C 3,9 C 4,4 C 96 % 1018,7 hPa 0,0 l/m 22,8 km/h (4 Bft) O-NO 76 0 min 0,000 mm 0,0 UV-I 0 W/m 3,9 C -4,9 C 35,4 km/h (5 Bft) 97,87 %
23.11.2018 17:42 4,5 C 3,9 C 4,4 C 96 % 1018,7 hPa 0,0 l/m 21,6 km/h (4 Bft) O-NO 76 0 min 0,000 mm 0,0 UV-I 0 W/m 3,9 C -4,4 C 30,6 km/h (5 Bft) 97,37 %
23.11.2018 17:44 4,6 C 3,9 C 4,4 C 96 % 1018,6 hPa 0,0 l/m 18,7 km/h (3 Bft) O 84 0 min 0,000 mm 0,0 UV-I 0 W/m 4,0 C -3,2 C 24,1 km/h (4 Bft) 95,38 %
23.11.2018 17:46 4,6 C 3,9 C 4,4 C 95 % 1018,6 hPa 0,0 l/m 17,1 km/h (3 Bft) O 96 0 min 0,000 mm 0,0 UV-I 0 W/m 3,9 C -2,4 C 22,5 km/h (4 Bft) 97,87 %
23.11.2018 17:48 4,6 C 3,9 C 4,4 C 95 % 1018,6 hPa 0,0 l/m 16,5 km/h (3 Bft) O 98 0 min 0,000 mm 0,0 UV-I 0 W/m 3,9 C -2,2 C 24,1 km/h (4 Bft) 100,00 %
23.11.2018 17:50 4,6 C 3,9 C 4,4 C 95 % 1018,6 hPa 0,0 l/m 15,1 km/h (3 Bft) O 90 0 min 0,000 mm 0,0 UV-I 0 W/m 3,9 C -1,5 C 22,5 km/h (4 Bft) 93,62 %
23.11.2018 17:52 4,6 C 3,9 C 4,4 C 95 % 1018,6 hPa 0,0 l/m 19,8 km/h (3 Bft) O 89 0 min 0,000 mm 0,0 UV-I 0 W/m 3,9 C -3,6 C 25,7 km/h (4 Bft) 98,00 %
23.11.2018 17:54 4,6 C 3,9 C 4,4 C 95 % 1018,7 hPa 0,0 l/m 15,3 km/h (3 Bft) O 101 0 min 0,000 mm 0,0 UV-I 0 W/m 3,9 C -1,6 C 24,1 km/h (4 Bft) 100,00 %
23.11.2018 17:56 4,6 C 3,9 C 4,4 C 95 % 1018,7 hPa 0,0 l/m 15,0 km/h (3 Bft) O 91 0 min 0,000 mm 0,0 UV-I 0 W/m 3,9 C -1,4 C 24,1 km/h (4 Bft) 100,00 %
23.11.2018 17:58 4,6 C 3,9 C 4,4 C 95 % 1018,7 hPa 0,0 l/m 19,0 km/h (3 Bft) O-NO 78 0 min 0,000 mm 0,0 UV-I 0 W/m 3,9 C -3,3 C 27,4 km/h (4 Bft) 97,87 %
23.11.2018 18:00 4,6 C 3,9 C 4,4 C 95 % 1018,6 hPa 0,0 l/m 18,2 km/h (3 Bft) O 97 0 min 0,000 mm 0,0 UV-I 0 W/m 3,9 C -2,9 C 24,1 km/h (4 Bft) 100,00 %
23.11.2018 18:02 4,6 C 3,9 C 4,4 C 95 % 1018,6 hPa 0,0 l/m 19,5 km/h (3 Bft) O-NO 71 0 min 0,000 mm 0,0 UV-I 0 W/m 3,9 C -3,5 C 30,6 km/h (5 Bft) 100,00 %
23.11.2018 18:04 4,6 C 3,9 C 4,4 C 95 % 1018,5 hPa 0,0 l/m 17,8 km/h (3 Bft) O 80 0 min 0,000 mm 0,0 UV-I 0 W/m 3,9 C -2,8 C 24,1 km/h (4 Bft) 96,00 %
23.11.2018 18:06 4,7 C 3,9 C 4,4 C 95 % 1018,6 hPa 0,0 l/m 20,4 km/h (4 Bft) O 85 0 min 0,000 mm 0,0 UV-I 0 W/m 4,0 C -3,7 C 30,6 km/h (5 Bft) 100,00 %
23.11.2018 18:08 4,7 C 3,9 C 4,4 C 95 % 1018,6 hPa 0,0 l/m 18,7 km/h (3 Bft) O-SO 112 0 min 0,000 mm 0,0 UV-I 0 W/m 4,0 C -3,0 C 24,1 km/h (4 Bft) 97,87 %
23.11.2018 18:10 4,7 C 3,9 C 4,4 C 95 % 1018,6 hPa 0,0 l/m 15,6 km/h (3 Bft) O-NO 74 0 min 0,000 mm 0,0 UV-I 0 W/m 4,0 C -1,6 C 22,5 km/h (4 Bft) 95,74 %
23.11.2018 18:12 4,7 C 3,9 C 4,4 C 95 % 1018,5 hPa 0,0 l/m 16,2 km/h (3 Bft) SO 142 0 min 0,000 mm 0,0 UV-I 0 W/m 4,0 C -1,9 C 22,5 km/h (4 Bft) 100,00 %
23.11.2018 18:14 4,7 C 3,9 C 4,4 C 95 % 1018,5 hPa 0,0 l/m 17,6 km/h (3 Bft) O-NO 66 0 min 0,000 mm 0,0 UV-I 0 W/m 4,0 C -2,5 C 25,7 km/h (4 Bft) 100,00 %
23.11.2018 18:16 4,7 C 3,9 C 4,4 C 95 % 1018,5 hPa 0,0 l/m 14,8 km/h (3 Bft) O-NO 71 0 min 0,000 mm 0,0 UV-I 0 W/m 4,0 C -1,2 C 19,3 km/h (3 Bft) 100,00 %
23.11.2018 18:18 4,7 C 3,9 C 4,4 C 95 % 1018,4 hPa 0,0 l/m 11,8 km/h (2 Bft) O 81 0 min 0,000 mm 0,0 UV-I 0 W/m 4,0 C 0,5 C 17,7 km/h (3 Bft) 100,00 %
23.11.2018 18:20 4,7 C 3,9 C 4,4 C 95 % 1018,4 hPa 0,0 l/m 16,6 km/h (3 Bft) O-NO 76 0 min 0,000 mm 0,0 UV-I 0 W/m 4,0 C -2,1 C 22,5 km/h (4 Bft) 97,87 %
23.11.2018 18:22 4,7 C 3,9 C 4,4 C 95 % 1018,4 hPa 0,0 l/m 15,8 km/h (3 Bft) O 93 0 min 0,000 mm 0,0 UV-I 0 W/m 4,0 C -1,7 C 20,9 km/h (4 Bft) 100,00 %
23.11.2018 18:24 4,7 C 3,9 C 4,4 C 95 % 1018,4 hPa 0,0 l/m 16,8 km/h (3 Bft) O-NO 67 0 min 0,000 mm 0,0 UV-I 0 W/m 4,0 C -2,2 C 29,0 km/h (5 Bft) 100,00 %
23.11.2018 18:26 4,7 C 3,9 C 4,4 C 95 % 1018,3 hPa 0,0 l/m 18,1 km/h (3 Bft) O 88 0 min 0,000 mm 0,0 UV-I 0 W/m 4,0 C -2,8 C 27,4 km/h (4 Bft) 97,87 %
23.11.2018 18:28 4,8 C 3,9 C 4,4 C 95 % 1018,3 hPa 0,0 l/m 14,0 km/h (3 Bft) O 83 0 min 0,000 mm 0,0 UV-I 0 W/m 4,1 C -0,6 C 19,3 km/h (3 Bft) 97,87 %
23.11.2018 18:30 4,8 C 3,9 C 4,4 C 95 % 1018,3 hPa 0,0 l/m 16,9 km/h (3 Bft) O 80 0 min 0,000 mm 0,0 UV-I 0 W/m 4,1 C -2,1 C 20,9 km/h (4 Bft) 100,00 %
23.11.2018 18:32 4,7 C 3,9 C 4,4 C 95 % 1018,2 hPa 0,0 l/m 19,9 km/h (4 Bft) O 82 0 min 0,000 mm 0,0 UV-I 0 W/m 4,0 C -3,5 C 27,4 km/h (4 Bft) 97,87 %
23.11.2018 18:34 4,8 C 3,9 C 4,4 C 95 % 1018,2 hPa 0,0 l/m 20,4 km/h (4 Bft) O-NO 67 0 min 0,000 mm 0,0 UV-I 0 W/m 4,1 C -3,6 C 27,4 km/h (4 Bft) 93,62 %
23.11.2018 18:36 4,8 C 3,9 C 4,4 C 95 % 1018,0 hPa 0,0 l/m 14,4 km/h (3 Bft) O-NO 78 0 min 0,000 mm 0,0 UV-I 0 W/m 4,1 C -0,9 C 19,3 km/h (3 Bft) 91,49 %
23.11.2018 18:38 4,8 C 3,9 C 4,4 C 95 % 1018,0 hPa 0,0 l/m 14,1 km/h (3 Bft) O-NO 67 0 min 0,000 mm 0,0 UV-I 0 W/m 4,1 C -0,7 C 16,1 km/h (3 Bft) 93,62 %
23.11.2018 18:40 4,8 C 3,9 C 4,4 C 95 % 1018,1 hPa 0,0 l/m 16,0 km/h (3 Bft) O-NO 71 0 min 0,000 mm 0,0 UV-I 0 W/m 4,1 C -1,7 C 22,5 km/h (4 Bft) 95,74 %
23.11.2018 18:42 4,8 C 3,9 C 4,4 C 95 % 1018,0 hPa 0,0 l/m 16,5 km/h (3 Bft) O-NO 65 0 min 0,000 mm 0,0 UV-I 0 W/m 4,1 C -1,9 C 19,3 km/h (3 Bft) 95,74 %
23.11.2018 18:44 4,8 C 3,9 C 4,4 C 94 % 1018,0 hPa 0,0 l/m 15,1 km/h (3 Bft) O-NO 70 0 min 0,000 mm 0,0 UV-I 0 W/m 3,9 C -1,2 C 20,9 km/h (4 Bft) 94,74 %
23.11.2018 18:46 4,8 C 3,9 C 4,4 C 94 % 1018,1 hPa 0,0 l/m 13,5 km/h (3 Bft) O-NO 69 0 min 0,000 mm 0,0 UV-I 0 W/m 3,9 C -0,4 C 19,3 km/h (3 Bft) 97,87 %
23.11.2018 18:48 4,8 C 3,9 C 4,4 C 94 % 1018,1 hPa 0,0 l/m 14,4 km/h (3 Bft) O 86 0 min 0,000 mm 0,0 UV-I 0 W/m 3,9 C -0,9 C 20,9 km/h (4 Bft) 98,00 %
23.11.2018 18:50 4,8 C 3,9 C 4,4 C 94 % 1018,2 hPa 0,0 l/m 11,9 km/h (2 Bft) O 85 0 min 0,000 mm 0,0 UV-I 0 W/m 3,9 C 0,6 C 17,7 km/h (3 Bft) 93,62 %
23.11.2018 18:52 4,8 C 3,9 C 4,4 C 94 % 1018,2 hPa 0,0 l/m 16,3 km/h (3 Bft) O 82 0 min 0,000 mm 0,0 UV-I 0 W/m 3,9 C -1,8 C 20,9 km/h (4 Bft) 96,23 %
23.11.2018 18:54 4,8 C 3,9 C 5,0 C 94 % 1018,2 hPa 0,0 l/m 11,9 km/h (2 Bft) O-NO 75 0 min 0,000 mm 0,0 UV-I 0 W/m 3,9 C 0,6 C 19,3 km/h (3 Bft) 97,87 %
23.11.2018 18:56 4,8 C 3,9 C 5,0 C 95 % 1018,1 hPa 0,0 l/m 15,1 km/h (3 Bft) O-NO 59 0 min 0,000 mm 0,0 UV-I 0 W/m 4,1 C -1,2 C 19,3 km/h (3 Bft) 95,74 %
23.11.2018 18:58 4,8 C 3,9 C 5,0 C 95 % 1018,1 hPa 0,0 l/m 14,2 km/h (3 Bft) NO 47 0 min 0,000 mm 0,0 UV-I 0 W/m 4,1 C -0,7 C 19,3 km/h (3 Bft) 93,75 %
23.11.2018 19:00 4,8 C 3,9 C 5,0 C 95 % 1018,2 hPa 0,0 l/m 12,9 km/h (3 Bft) O-NO 67 0 min 0,000 mm 0,0 UV-I 0 W/m 4,1 C -0,0 C 17,7 km/h (3 Bft) 97,87 %
23.11.2018 19:02 4,8 C 3,9 C 5,0 C 95 % 1018,2 hPa 0,0 l/m 11,2 km/h (2 Bft) O-NO 75 0 min 0,000 mm 0,0 UV-I 0 W/m 4,1 C 1,0 C 17,7 km/h (3 Bft) 97,87 %
23.11.2018 19:04 4,8 C 3,9 C 5,0 C 94 % 1018,1 hPa 0,0 l/m 10,9 km/h (2 Bft) O-NO 68 0 min 0,000 mm 0,0 UV-I 0 W/m 3,9 C 1,2 C 14,5 km/h (3 Bft) 93,62 %
23.11.2018 19:06 4,8 C 3,9 C 5,0 C 94 % 1018,0 hPa 0,0 l/m 11,3 km/h (2 Bft) O-NO 61 0 min 0,000 mm 0,0 UV-I 0 W/m 3,9 C 1,0 C 16,1 km/h (3 Bft) 97,87 %
23.11.2018 19:08 4,8 C 3,9 C 5,0 C 94 % 1017,9 hPa 0,0 l/m 11,5 km/h (2 Bft) O-NO 74 0 min 0,000 mm 0,0 UV-I 0 W/m 3,9 C 0,8 C 16,1 km/h (3 Bft) 97,14 %
23.11.2018 19:10 4,8 C 3,9 C 5,0 C 94 % 1017,9 hPa 0,0 l/m 12,6 km/h (3 Bft) O 82 0 min 0,000 mm 0,0 UV-I 0 W/m 3,9 C 0,2 C 16,1 km/h (3 Bft) 95,74 %
23.11.2018 19:12 4,8 C 3,9 C 5,0 C 94 % 1017,9 hPa 0,0 l/m 12,0 km/h (2 Bft) O 84 0 min 0,000 mm 0,0 UV-I 0 W/m 3,9 C 0,5 C 16,1 km/h (3 Bft) 95,74 %
23.11.2018 19:14 4,8 C 3,9 C 5,0 C 94 % 1017,8 hPa 0,0 l/m 16,5 km/h (3 Bft) O-NO 63 0 min 0,000 mm 0,0 UV-I 0 W/m 3,9 C -1,9 C 24,1 km/h (4 Bft) 98,00 %
23.11.2018 19:16 4,8 C 3,9 C 5,0 C 94 % 1017,8 hPa 0,0 l/m 13,7 km/h (3 Bft) O-NO 69 0 min 0,000 mm 0,0 UV-I 0 W/m 3,9 C -0,5 C 17,7 km/h (3 Bft) 97,87 %
23.11.2018 19:18 4,8 C 3,9 C 5,0 C 95 % 1017,8 hPa 0,0 l/m 11,5 km/h (2 Bft) O-NO 74 0 min 0,000 mm 0,0 UV-I 0 W/m 4,1 C 0,8 C 16,1 km/h (3 Bft) 95,74 %
23.11.2018 19:20 4,8 C 3,9 C 5,0 C 94 % 1017,7 hPa 0,0 l/m 12,5 km/h (3 Bft) O 92 0 min 0,000 mm 0,0 UV-I 0 W/m 3,9 C 0,2 C 17,7 km/h (3 Bft) 93,62 %
23.11.2018 19:22 4,8 C 3,9 C 5,0 C 95 % 1017,7 hPa 0,0 l/m 16,2 km/h (3 Bft) O-NO 77 0 min 0,000 mm 0,0 UV-I 0 W/m 4,1 C -1,8 C 20,9 km/h (4 Bft) 97,87 %
23.11.2018 19:24 4,8 C 3,9 C 5,0 C 95 % 1017,7 hPa 0,0 l/m 14,0 km/h (3 Bft) O-NO 78 0 min 0,000 mm 0,0 UV-I 0 W/m 4,1 C -0,6 C 19,3 km/h (3 Bft) 94,00 %
23.11.2018 19:26 4,8 C 3,9 C 5,0 C 95 % 1017,6 hPa 0,0 l/m 14,8 km/h (3 Bft) NO 45 0 min 0,000 mm 0,0 UV-I 0 W/m 4,1 C -1,1 C 19,3 km/h (3 Bft) 94,00 %
23.11.2018 19:28 4,8 C 3,9 C 5,0 C 94 % 1017,7 hPa 0,0 l/m 12,9 km/h (3 Bft) O 85 0 min 0,000 mm 0,0 UV-I 0 W/m 3,9 C -0,0 C 19,3 km/h (3 Bft) 93,62 %
23.11.2018 19:30 4,8 C 3,9 C 5,0 C 94 % 1017,7 hPa 0,0 l/m 11,9 km/h (2 Bft) NO 38 0 min 0,000 mm 0,0 UV-I 0 W/m 3,9 C 0,6 C 16,1 km/h (3 Bft) 94,44 %
23.11.2018 19:32 4,8 C 3,9 C 4,4 C 94 % 1017,7 hPa 0,0 l/m 12,1 km/h (2 Bft) O-NO 63 0 min 0,000 mm 0,0 UV-I 0 W/m 3,9 C 0,5 C 16,1 km/h (3 Bft) 94,00 %
23.11.2018 19:34 4,8 C 3,9 C 4,4 C 94 % 1017,8 hPa 0,0 l/m 12,8 km/h (3 Bft) N-NO 33 0 min 0,000 mm 0,0 UV-I 0 W/m 3,9 C 0,0 C 16,1 km/h (3 Bft) 97,87 %
23.11.2018 19:36 4,7 C 3,9 C 4,4 C 94 % 1017,7 hPa 0,0 l/m 12,0 km/h (2 Bft) O-NO 77 0 min 0,000 mm 0,0 UV-I 0 W/m 3,8 C 0,4 C 16,1 km/h (3 Bft) 93,62 %
23.11.2018 19:38 4,7 C 3,9 C 4,4 C 94 % 1017,7 hPa 0,0 l/m 12,0 km/h (2 Bft) O-NO 58 0 min 0,000 mm 0,0 UV-I 0 W/m 3,8 C 0,4 C 19,3 km/h (3 Bft) 94,00 %
23.11.2018 19:40 4,7 C 3,9 C 4,4 C 94 % 1017,8 hPa 0,0 l/m 12,9 km/h (3 Bft) NO 56 0 min 0,000 mm 0,0 UV-I 0 W/m 3,8 C -0,1 C 20,9 km/h (4 Bft) 93,62 %
23.11.2018 19:42 4,7 C 3,9 C 4,4 C 94 % 1017,7 hPa 0,0 l/m 12,0 km/h (2 Bft) NO 49 0 min 0,000 mm 0,0 UV-I 0 W/m 3,8 C 0,4 C 17,7 km/h (3 Bft) 94,00 %
23.11.2018 19:44 4,6 C 3,9 C 4,4 C 94 % 1017,7 hPa 0,0 l/m 10,5 km/h (2 Bft) O-NO 57 0 min 0,000 mm 0,0 UV-I 0 W/m 3,7 C 1,3 C 17,7 km/h (3 Bft) 95,65 %
23.11.2018 19:46 4,6 C 3,9 C 4,4 C 94 % 1017,7 hPa 0,0 l/m 11,2 km/h (2 Bft) O-NO 74 0 min 0,000 mm 0,0 UV-I 0 W/m 3,7 C 0,8 C 17,7 km/h (3 Bft) 91,49 %
23.11.2018 19:48 4,6 C 3,9 C 4,4 C 94 % 1017,7 hPa 0,0 l/m 10,0 km/h (2 Bft) O-NO 66 0 min 0,000 mm 0,0 UV-I 0 W/m 3,7 C 1,6 C 16,1 km/h (3 Bft) 93,62 %
23.11.2018 19:50 4,6 C 3,9 C 4,4 C 94 % 1017,6 hPa 0,0 l/m 11,0 km/h (2 Bft) O-NO 59 0 min 0,000 mm 0,0 UV-I 0 W/m 3,7 C 0,9 C 16,1 km/h (3 Bft) 93,62 %
23.11.2018 19:52 4,6 C 3,9 C 4,4 C 94 % 1017,6 hPa 0,0 l/m 9,9 km/h (2 Bft) O-NO 62 0 min 0,000 mm 0,0 UV-I 0 W/m 3,7 C 1,7 C 16,1 km/h (3 Bft) 93,62 %
23.11.2018 19:54 4,5 C 3,9 C 4,4 C 94 % 1017,5 hPa 0,0 l/m 10,3 km/h (2 Bft) NO 38 0 min 0,000 mm 0,0 UV-I 0 W/m 3,6 C 1,3 C 17,7 km/h (3 Bft) 94,74 %
23.11.2018 19:56 4,5 C 3,9 C 4,4 C 94 % 1017,5 hPa 0,0 l/m 10,5 km/h (2 Bft) NO 49 0 min 0,000 mm 0,0 UV-I 0 W/m 3,6 C 1,2 C 14,5 km/h (3 Bft) 95,74 %
23.11.2018 19:58 4,5 C 3,9 C 4,4 C 94 % 1017,5 hPa 0,0 l/m 8,3 km/h (2 Bft) N-NO 30 0 min 0,000 mm 0,0 UV-I 0 W/m 3,6 C 2,8 C 11,3 km/h (2 Bft) 97,87 %
23.11.2018 20:00 4,4 C 3,9 C 4,4 C 94 % 1017,5 hPa 0,0 l/m 7,5 km/h (2 Bft) O-NO 61 0 min 0,000 mm 0,0 UV-I 0 W/m 3,5 C 3,4 C 9,7 km/h (2 Bft) 90,00 %
23.11.2018 20:02 4,4 C 3,9 C 4,4 C 94 % 1017,5 hPa 0,0 l/m 8,5 km/h (2 Bft) NO 51 0 min 0,000 mm 0,0 UV-I 0 W/m 3,5 C 2,6 C 11,3 km/h (2 Bft) 98,11 %
23.11.2018 20:04 4,4 C 3,9 C 4,4 C 94 % 1017,5 hPa 0,0 l/m 9,0 km/h (2 Bft) NO 43 0 min 0,000 mm 0,0 UV-I 0 W/m 3,5 C 2,2 C 14,5 km/h (3 Bft) 97,37 %
23.11.2018 20:06 4,4 C 3,9 C 4,4 C 94 % 1017,4 hPa 0,0 l/m 9,0 km/h (2 Bft) NO 49 0 min 0,000 mm 0,0 UV-I 0 W/m 3,5 C 2,2 C 14,5 km/h (3 Bft) 94,00 %
23.11.2018 20:08 4,3 C 3,9 C 4,4 C 94 % 1017,4 hPa 0,0 l/m 9,3 km/h (2 Bft) O-NO 71 0 min 0,000 mm 0,0 UV-I 0 W/m 3,4 C 1,8 C 14,5 km/h (3 Bft) 97,87 %
23.11.2018 20:10 4,3 C 3,9 C 4,4 C 94 % 1017,4 hPa 0,0 l/m 9,2 km/h (2 Bft) O-NO 57 0 min 0,000 mm 0,0 UV-I 0 W/m 3,4 C 1,9 C 16,1 km/h (3 Bft) 97,87 %
23.11.2018 20:12 4,3 C 3,9 C 4,4 C 94 % 1017,4 hPa 0,0 l/m 7,9 km/h (2 Bft) NO 34 0 min 0,000 mm 0,0 UV-I 0 W/m 3,4 C 3,0 C 9,7 km/h (2 Bft) 98,00 %
23.11.2018 20:14 4,3 C 3,9 C 4,4 C 94 % 1017,3 hPa 0,0 l/m 7,7 km/h (2 Bft) NO 53 0 min 0,000 mm 0,0 UV-I 0 W/m 3,4 C 3,1 C 11,3 km/h (2 Bft) 100,00 %
23.11.2018 20:16 4,3 C 3,9 C 4,4 C 94 % 1017,3 hPa 0,0 l/m 8,8 km/h (2 Bft) NO 42 0 min 0,000 mm 0,0 UV-I 0 W/m 3,4 C 2,2 C 14,5 km/h (3 Bft) 97,87 %
23.11.2018 20:18 4,2 C 3,9 C 4,4 C 94 % 1017,3 hPa 0,0 l/m 8,7 km/h (2 Bft) O-NO 61 0 min 0,000 mm 0,0 UV-I 0 W/m 3,3 C 2,2 C 14,5 km/h (3 Bft) 97,87 %
23.11.2018 20:20 4,2 C 3,9 C 4,4 C 94 % 1017,2 hPa 0,0 l/m 7,2 km/h (2 Bft) NO 55 0 min 0,000 mm 0,0 UV-I 0 W/m 3,3 C 3,5 C 11,3 km/h (2 Bft) 100,00 %
23.11.2018 20:22 4,2 C 3,9 C 4,4 C 94 % 1017,2 hPa 0,0 l/m 8,7 km/h (2 Bft) O-NO 61 0 min 0,000 mm 0,0 UV-I 0 W/m 3,3 C 2,2 C 11,3 km/h (2 Bft) 100,00 %
23.11.2018 20:24 4,2 C 3,9 C 4,4 C 94 % 1017,2 hPa 0,0 l/m 8,5 km/h (2 Bft) O-NO 64 0 min 0,000 mm 0,0 UV-I 0 W/m 3,3 C 2,3 C 12,9 km/h (3 Bft) 100,00 %
23.11.2018 20:26 4,2 C 3,9 C 4,4 C 94 % 1017,1 hPa 0,0 l/m 8,3 km/h (2 Bft) NO 53 0 min 0,000 mm 0,0 UV-I 0 W/m 3,3 C 2,5 C 12,9 km/h (3 Bft) 100,00 %
23.11.2018 20:28 4,2 C 3,9 C 4,4 C 94 % 1017,1 hPa 0,0 l/m 7,6 km/h (2 Bft) NO 51 0 min 0,000 mm 0,0 UV-I 0 W/m 3,3 C 3,1 C 11,3 km/h (2 Bft) 100,00 %
23.11.2018 20:30 4,2 C 3,9 C 4,4 C 94 % 1017,1 hPa 0,0 l/m 7,3 km/h (2 Bft) O-NO 59 0 min 0,000 mm 0,0 UV-I 0 W/m 3,3 C 3,4 C 9,7 km/h (2 Bft) 97,37 %
23.11.2018 20:32 4,2 C 3,9 C 4,4 C 94 % 1017,1 hPa 0,0 l/m 7,3 km/h (2 Bft) O-NO 58 0 min 0,000 mm 0,0 UV-I 0 W/m 3,3 C 3,4 C 9,7 km/h (2 Bft) 97,87 %
23.11.2018 20:34 4,2 C 3,9 C 4,4 C 94 % 1017,1 hPa 0,0 l/m 7,2 km/h (2 Bft) NO 49 0 min 0,000 mm 0,0 UV-I 0 W/m 3,3 C 3,5 C 9,7 km/h (2 Bft) 100,00 %
23.11.2018 20:36 4,2 C 3,9 C 4,4 C 94 % 1017,0 hPa 0,0 l/m 6,4 km/h (2 Bft) NO 39 0 min 0,000 mm 0,0 UV-I 0 W/m 3,3 C 4,2 C 8,0 km/h (2 Bft) 100,00 %
23.11.2018 20:38 4,2 C 3,9 C 4,4 C 94 % 1017,0 hPa 0,0 l/m 7,0 km/h (2 Bft) NO 50 0 min 0,000 mm 0,0 UV-I 0 W/m 3,3 C 3,7 C 9,7 km/h (2 Bft) 100,00 %
23.11.2018 20:40 4,2 C 3,9 C 4,4 C 94 % 1016,9 hPa 0,0 l/m 7,0 km/h (2 Bft) NO 38 0 min 0,000 mm 0,0 UV-I 0 W/m 3,3 C 3,7 C 12,9 km/h (3 Bft) 100,00 %
23.11.2018 20:42 4,2 C 3,9 C 4,4 C 94 % 1016,9 hPa 0,0 l/m 8,4 km/h (2 Bft) NO 44 0 min 0,000 mm 0,0 UV-I 0 W/m 3,3 C 2,4 C 12,9 km/h (3 Bft) 98,00 %
23.11.2018 20:44 4,1 C 3,9 C 4,4 C 94 % 1016,8 hPa 0,0 l/m 8,4 km/h (2 Bft) O-NO 60 0 min 0,000 mm 0,0 UV-I 0 W/m 3,2 C 2,3 C 14,5 km/h (3 Bft) 100,00 %
23.11.2018 20:46 4,1 C 3,9 C 4,4 C 94 % 1016,8 hPa 0,0 l/m 8,2 km/h (2 Bft) O-NO 59 0 min 0,000 mm 0,0 UV-I 0 W/m 3,2 C 2,5 C 12,9 km/h (3 Bft) 100,00 %
23.11.2018 20:48 4,1 C 3,9 C 4,4 C 94 % 1016,7 hPa 0,0 l/m 8,1 km/h (2 Bft) NO 55 0 min 0,000 mm 0,0 UV-I 0 W/m 3,2 C 2,6 C 12,9 km/h (3 Bft) 100,00 %
23.11.2018 20:50 4,1 C 3,9 C 4,4 C 94 % 1016,7 hPa 0,0 l/m 7,2 km/h (2 Bft) NO 40 0 min 0,000 mm 0,0 UV-I 0 W/m 3,2 C 3,4 C 9,7 km/h (2 Bft) 97,44 %
23.11.2018 20:52 4,1 C 3,9 C 4,4 C 94 % 1016,7 hPa 0,0 l/m 5,7 km/h (1 Bft) NO 40 0 min 0,000 mm 0,0 UV-I 0 W/m 3,2 C 4,1 C 8,0 km/h (2 Bft) 93,62 %
23.11.2018 20:54 4,1 C 3,9 C 3,9 C 93 % 1016,7 hPa 0,0 l/m 6,7 km/h (2 Bft) NO 38 0 min 0,000 mm 0,0 UV-I 0 W/m 3,1 C 3,8 C 9,7 km/h (2 Bft) 100,00 %
23.11.2018 20:56 4,1 C 3,9 C 4,4 C 94 % 1016,6 hPa 0,0 l/m 6,5 km/h (2 Bft) NO 39 0 min 0,000 mm 0,0 UV-I 0 W/m 3,2 C 4,0 C 11,3 km/h (2 Bft) 100,00 %
23.11.2018 20:58 4,1 C 3,9 C 3,9 C 94 % 1016,5 hPa 0,0 l/m 8,4 km/h (2 Bft) NO 55 0 min 0,000 mm 0,0 UV-I 0 W/m 3,2 C 2,3 C 12,9 km/h (3 Bft) 100,00 %
23.11.2018 21:00 4,1 C 3,9 C 4,4 C 93 % 1016,5 hPa 0,0 l/m 7,7 km/h (2 Bft) O-NO 59 0 min 0,000 mm 0,0 UV-I 0 W/m 3,1 C 2,9 C 14,5 km/h (3 Bft) 100,00 %
23.11.2018 21:02 4,1 C 3,9 C 4,4 C 93 % 1016,4 hPa 0,0 l/m 6,6 km/h (2 Bft) NO 42 0 min 0,000 mm 0,0 UV-I 0 W/m 3,1 C 3,9 C 9,7 km/h (2 Bft) 100,00 %
23.11.2018 21:04 4,1 C 3,9 C 4,4 C 93 % 1016,4 hPa 0,0 l/m 7,7 km/h (2 Bft) NO 46 0 min 0,000 mm 0,0 UV-I 0 W/m 3,1 C 2,9 C 11,3 km/h (2 Bft) 100,00 %
23.11.2018 21:06 4,1 C 3,9 C 4,4 C 93 % 1016,3 hPa 0,0 l/m 7,6 km/h (2 Bft) O-NO 61 0 min 0,000 mm 0,0 UV-I 0 W/m 3,1 C 3,0 C 12,9 km/h (3 Bft) 97,87 %
23.11.2018 21:08 4,1 C 3,9 C 3,9 C 93 % 1016,3 hPa 0,0 l/m 8,6 km/h (2 Bft) O-NO 59 0 min 0,000 mm 0,0 UV-I 0 W/m 3,1 C 2,2 C 14,5 km/h (3 Bft) 97,87 %
23.11.2018 21:10 4,1 C 3,9 C 3,9 C 93 % 1016,3 hPa 0,0 l/m 8,2 km/h (2 Bft) O-NO 65 0 min 0,000 mm 0,0 UV-I 0 W/m 3,1 C 2,5 C 9,7 km/h (2 Bft) 97,87 %
23.11.2018 21:12 4,1 C 3,9 C 3,9 C 93 % 1016,1 hPa 0,0 l/m 8,4 km/h (2 Bft) O-NO 57 0 min 0,000 mm 0,0 UV-I 0 W/m 3,1 C 2,3 C 12,9 km/h (3 Bft) 97,87 %
23.11.2018 21:14 4,1 C 3,9 C 3,9 C 93 % 1016,1 hPa 0,0 l/m 9,6 km/h (2 Bft) NO 44 0 min 0,000 mm 0,0 UV-I 0 W/m 3,1 C 1,4 C 14,5 km/h (3 Bft) 92,11 %
23.11.2018 21:16 4,1 C 3,9 C 3,9 C 93 % 1016,1 hPa 0,0 l/m 9,6 km/h (2 Bft) NO 45 0 min 0,000 mm 0,0 UV-I 0 W/m 3,1 C 1,4 C 14,5 km/h (3 Bft) 97,87 %
23.11.2018 21:18 4,1 C 3,9 C 3,9 C 93 % 1016,1 hPa 0,0 l/m 9,0 km/h (2 Bft) O-NO 65 0 min 0,000 mm 0,0 UV-I 0 W/m 3,1 C 1,8 C 14,5 km/h (3 Bft) 97,87 %
23.11.2018 21:20 4,1 C 3,9 C 3,9 C 93 % 1016,0 hPa 0,0 l/m 12,1 km/h (2 Bft) NO 51 0 min 0,000 mm 0,0 UV-I 0 W/m 3,1 C -0,3 C 16,1 km/h (3 Bft) 93,62 %
23.11.2018 21:22 4,1 C 3,9 C 3,9 C 93 % 1015,9 hPa 0,0 l/m 8,8 km/h (2 Bft) O-NO 57 0 min 0,000 mm 0,0 UV-I 0 W/m 3,1 C 2,0 C 16,1 km/h (3 Bft) 97,87 %
23.11.2018 21:24 4,1 C 3,9 C 3,9 C 93 % 1015,9 hPa 0,0 l/m 9,9 km/h (2 Bft) NO 55 0 min 0,000 mm 0,0 UV-I 0 W/m 3,1 C 1,2 C 12,9 km/h (3 Bft) 92,00 %
23.11.2018 21:26 4,1 C 3,9 C 3,9 C 93 % 1015,9 hPa 0,0 l/m 8,4 km/h (2 Bft) O 87 0 min 0,000 mm 0,0 UV-I 0 W/m 3,1 C 2,3 C 14,5 km/h (3 Bft) 95,74 %
23.11.2018 21:28 4,1 C 3,9 C 3,9 C 93 % 1015,9 hPa 0,0 l/m 8,3 km/h (2 Bft) N-NO 24 0 min 0,000 mm 0,0 UV-I 0 W/m 3,1 C 2,4 C 16,1 km/h (3 Bft) 91,67 %
23.11.2018 21:30 4,2 C 3,9 C 4,4 C 93 % 1015,9 hPa 0,0 l/m 8,6 km/h (2 Bft) O-NO 73 0 min 0,000 mm 0,0 UV-I 0 W/m 3,2 C 2,3 C 14,5 km/h (3 Bft) 97,87 %
23.11.2018 21:32 4,2 C 3,9 C 4,4 C 93 % 1015,9 hPa 0,0 l/m 5,4 km/h (1 Bft) O-NO 78 0 min 0,000 mm 0,0 UV-I 0 W/m 3,2 C 4,2 C 9,7 km/h (2 Bft) 96,00 %
23.11.2018 21:34 4,2 C 3,9 C 4,4 C 93 % 1015,9 hPa 0,0 l/m 5,7 km/h (1 Bft) O-NO 70 0 min 0,000 mm 0,0 UV-I 0 W/m 3,2 C 4,2 C 11,3 km/h (2 Bft) 95,74 %
23.11.2018 21:36 4,2 C 3,9 C 4,4 C 93 % 1015,8 hPa 0,0 l/m 6,9 km/h (2 Bft) O-NO 78 0 min 0,000 mm 0,0 UV-I 0 W/m 3,2 C 3,8 C 8,0 km/h (2 Bft) 97,87 %
23.11.2018 21:38 4,2 C 3,9 C 4,4 C 93 % 1015,7 hPa 0,0 l/m 12,7 km/h (3 Bft) NO 55 0 min 0,000 mm 0,0 UV-I 0 W/m 3,2 C -0,6 C 19,3 km/h (3 Bft) 97,87 %
23.11.2018 21:40 4,2 C 3,9 C 4,4 C 93 % 1015,6 hPa 0,0 l/m 7,9 km/h (2 Bft) NO 36 0 min 0,000 mm 0,0 UV-I 0 W/m 3,2 C 2,8 C 12,9 km/h (3 Bft) 93,62 %
23.11.2018 21:42 4,2 C 3,9 C 4,4 C 93 % 1015,6 hPa 0,0 l/m 10,0 km/h (2 Bft) O-NO 73 0 min 0,000 mm 0,0 UV-I 0 W/m 3,2 C 1,2 C 14,5 km/h (3 Bft) 97,87 %
23.11.2018 21:44 4,2 C 3,9 C 4,4 C 93 % 1015,5 hPa 0,0 l/m 11,4 km/h (2 Bft) NO 54 0 min 0,000 mm 0,0 UV-I 0 W/m 3,2 C 0,2 C 16,1 km/h (3 Bft) 95,74 %
23.11.2018 21:46 4,2 C 3,9 C 4,4 C 93 % 1015,5 hPa 0,0 l/m 11,3 km/h (2 Bft) O-NO 61 0 min 0,000 mm 0,0 UV-I 0 W/m 3,2 C 0,3 C 16,1 km/h (3 Bft) 97,87 %
23.11.2018 21:48 4,2 C 3,9 C 4,4 C 93 % 1015,4 hPa 0,0 l/m 7,7 km/h (2 Bft) O-NO 68 0 min 0,000 mm 0,0 UV-I 0 W/m 3,2 C 3,0 C 12,9 km/h (3 Bft) 94,74 %
23.11.2018 21:50 4,2 C 3,9 C 4,4 C 93 % 1015,5 hPa 0,0 l/m 7,6 km/h (2 Bft) O-NO 64 0 min 0,000 mm 0,0 UV-I 0 W/m 3,2 C 3,1 C 12,9 km/h (3 Bft) 93,62 %
23.11.2018 21:52 4,2 C 3,9 C 4,4 C 93 % 1015,4 hPa 0,0 l/m 8,6 km/h (2 Bft) O-NO 74 0 min 0,000 mm 0,0 UV-I 0 W/m 3,2 C 2,3 C 12,9 km/h (3 Bft) 93,62 %
23.11.2018 21:54 4,2 C 3,9 C 4,4 C 93 % 1015,5 hPa 0,0 l/m 8,9 km/h (2 Bft) NO 51 0 min 0,000 mm 0,0 UV-I 0 W/m 3,2 C 2,0 C 12,9 km/h (3 Bft) 98,00 %
23.11.2018 21:56 4,2 C 3,9 C 4,4 C 93 % 1015,5 hPa 0,0 l/m 8,5 km/h (2 Bft) O-NO 69 0 min 0,000 mm 0,0 UV-I 0 W/m 3,2 C 2,3 C 12,9 km/h (3 Bft) 97,87 %
23.11.2018 21:58 4,2 C 3,9 C 4,4 C 92 % 1015,5 hPa 0,0 l/m 10,6 km/h (2 Bft) O-NO 76 0 min 0,000 mm 0,0 UV-I 0 W/m 3,0 C 0,8 C 12,9 km/h (3 Bft) 93,62 %
23.11.2018 22:00 4,2 C 3,9 C 4,4 C 92 % 1015,4 hPa 0,0 l/m 7,1 km/h (2 Bft) NO 54 0 min 0,000 mm 0,0 UV-I 0 W/m 3,0 C 3,6 C 12,9 km/h (3 Bft) 98,00 %
23.11.2018 22:02 4,2 C 3,9 C 4,4 C 92 % 1015,5 hPa 0,0 l/m 7,2 km/h (2 Bft) O-NO 71 0 min 0,000 mm 0,0 UV-I 0 W/m 3,0 C 3,5 C 9,7 km/h (2 Bft) 97,22 %
23.11.2018 22:04 4,2 C 3,9 C 4,4 C 92 % 1015,4 hPa 0,0 l/m 9,5 km/h (2 Bft) O-NO 59 0 min 0,000 mm 0,0 UV-I 0 W/m 3,0 C 1,6 C 14,5 km/h (3 Bft) 100,00 %
23.11.2018 22:06 4,2 C 3,9 C 4,4 C 92 % 1015,4 hPa 0,0 l/m 8,1 km/h (2 Bft) O-NO 77 0 min 0,000 mm 0,0 UV-I 0 W/m 3,0 C 2,7 C 12,9 km/h (3 Bft) 100,00 %
23.11.2018 22:08 4,2 C 3,9 C 4,4 C 92 % 1015,4 hPa 0,0 l/m 9,5 km/h (2 Bft) O-NO 72 0 min 0,000 mm 0,0 UV-I 0 W/m 3,0 C 1,6 C 14,5 km/h (3 Bft) 100,00 %
23.11.2018 22:10 4,2 C 3,9 C 4,4 C 92 % 1015,4 hPa 0,0 l/m 10,5 km/h (2 Bft) O-NO 76 0 min 0,000 mm 0,0 UV-I 0 W/m 3,0 C 0,8 C 14,5 km/h (3 Bft) 100,00 %
23.11.2018 22:12 4,2 C 3,9 C 4,4 C 93 % 1015,4 hPa 0,0 l/m 8,3 km/h (2 Bft) O-NO 59 0 min 0,000 mm 0,0 UV-I 0 W/m 3,2 C 2,5 C 14,5 km/h (3 Bft) 100,00 %
23.11.2018 22:14 4,2 C 3,9 C 4,4 C 93 % 1015,5 hPa 0,0 l/m 7,7 km/h (2 Bft) O 93 0 min 0,000 mm 0,0 UV-I 0 W/m 3,2 C 3,0 C 12,9 km/h (3 Bft) 97,87 %
23.11.2018 22:16 4,2 C 3,9 C 4,4 C 93 % 1015,4 hPa 0,0 l/m 9,1 km/h (2 Bft) O 89 0 min 0,000 mm 0,0 UV-I 0 W/m 3,2 C 1,9 C 14,5 km/h (3 Bft) 100,00 %
23.11.2018 22:18 4,2 C 3,9 C 4,4 C 93 % 1015,4 hPa 0,0 l/m 7,7 km/h (2 Bft) O-NO 60 0 min 0,000 mm 0,0 UV-I 0 W/m 3,2 C 3,0 C 11,3 km/h (2 Bft) 100,00 %
23.11.2018 22:20 4,2 C 3,9 C 4,4 C 93 % 1015,3 hPa 0,0 l/m 9,4 km/h (2 Bft) O 88 0 min 0,000 mm 0,0 UV-I 0 W/m 3,2 C 1,6 C 14,5 km/h (3 Bft) 98,00 %
23.11.2018 22:22 4,2 C 3,9 C 4,4 C 93 % 1015,3 hPa 0,0 l/m 8,5 km/h (2 Bft) O 94 0 min 0,000 mm 0,0 UV-I 0 W/m 3,2 C 2,3 C 14,5 km/h (3 Bft) 97,87 %
23.11.2018 22:24 4,2 C 3,9 C 4,4 C 93 % 1015,2 hPa 0,0 l/m 7,1 km/h (2 Bft) O-NO 72 0 min 0,000 mm 0,0 UV-I 0 W/m 3,2 C 3,6 C 11,3 km/h (2 Bft) 97,87 %
23.11.2018 22:26 4,1 C 3,9 C 4,4 C 93 % 1015,1 hPa 0,0 l/m 7,9 km/h (2 Bft) NO 46 0 min 0,000 mm 0,0 UV-I 0 W/m 3,1 C 2,7 C 12,9 km/h (3 Bft) 97,87 %
23.11.2018 22:28 4,1 C 3,9 C 4,4 C 93 % 1015,1 hPa 0,0 l/m 8,3 km/h (2 Bft) O-NO 64 0 min 0,000 mm 0,0 UV-I 0 W/m 3,1 C 2,4 C 12,9 km/h (3 Bft) 97,87 %
23.11.2018 22:30 4,1 C 3,9 C 3,9 C 93 % 1015,0 hPa 0,0 l/m 10,1 km/h (2 Bft) O-NO 67 0 min 0,000 mm 0,0 UV-I 0 W/m 3,1 C 1,0 C 14,5 km/h (3 Bft) 98,00 %
23.11.2018 22:32 4,1 C 3,9 C 3,9 C 93 % 1015,0 hPa 0,0 l/m 7,4 km/h (2 Bft) O-NO 64 0 min 0,000 mm 0,0 UV-I 0 W/m 3,1 C 3,2 C 12,9 km/h (3 Bft) 97,87 %
23.11.2018 22:34 4,1 C 3,9 C 3,9 C 93 % 1015,0 hPa 0,0 l/m 8,2 km/h (2 Bft) O-NO 65 0 min 0,000 mm 0,0 UV-I 0 W/m 3,1 C 2,5 C 12,9 km/h (3 Bft) 94,74 %
23.11.2018 22:36 4,1 C 3,9 C 4,4 C 93 % 1014,9 hPa 0,0 l/m 9,2 km/h (2 Bft) O-NO 63 0 min 0,000 mm 0,0 UV-I 0 W/m 3,1 C 1,7 C 14,5 km/h (3 Bft) 98,00 %
23.11.2018 22:38 4,1 C 3,9 C 4,4 C 93 % 1014,9 hPa 0,0 l/m 9,0 km/h (2 Bft) O-NO 65 0 min 0,000 mm 0,0 UV-I 0 W/m 3,1 C 1,8 C 14,5 km/h (3 Bft) 97,87 %
23.11.2018 22:40 4,1 C 3,9 C 4,4 C 93 % 1014,8 hPa 0,0 l/m 8,8 km/h (2 Bft) O-NO 65 0 min 0,000 mm 0,0 UV-I 0 W/m 3,1 C 2,0 C 14,5 km/h (3 Bft) 97,87 %
23.11.2018 22:42 4,1 C 3,9 C 4,4 C 93 % 1014,7 hPa 0,0 l/m 11,3 km/h (2 Bft) O-NO 61 0 min 0,000 mm 0,0 UV-I 0 W/m 3,1 C 0,2 C 17,7 km/h (3 Bft) 98,00 %
23.11.2018 22:44 4,1 C 3,9 C 3,9 C 93 % 1014,5 hPa 0,0 l/m 13,7 km/h (3 Bft) NO 47 0 min 0,000 mm 0,0 UV-I 0 W/m 3,1 C -1,3 C 19,3 km/h (3 Bft) 93,75 %
23.11.2018 22:46 4,1 C 3,9 C 4,4 C 93 % 1014,4 hPa 0,0 l/m 14,2 km/h (3 Bft) O 80 0 min 0,000 mm 0,0 UV-I 0 W/m 3,1 C -1,6 C 22,5 km/h (4 Bft) 95,74 %
23.11.2018 22:48 4,2 C 3,9 C 4,4 C 93 % 1014,4 hPa 0,0 l/m 11,7 km/h (2 Bft) O-NO 66 0 min 0,000 mm 0,0 UV-I 0 W/m 3,2 C 0,0 C 17,7 km/h (3 Bft) 98,00 %
23.11.2018 22:50 4,2 C 3,9 C 4,4 C 94 % 1014,4 hPa 0,0 l/m 14,7 km/h (3 Bft) O-NO 67 0 min 0,000 mm 0,0 UV-I 0 W/m 3,3 C -1,7 C 19,3 km/h (3 Bft) 100,00 %
23.11.2018 22:52 4,2 C 3,9 C 4,4 C 94 % 1014,4 hPa 0,0 l/m 14,5 km/h (3 Bft) O 82 0 min 0,000 mm 0,0 UV-I 0 W/m 3,3 C -1,6 C 19,3 km/h (3 Bft) 100,00 %
23.11.2018 22:54 4,2 C 3,9 C 4,4 C 94 % 1014,4 hPa 0,0 l/m 11,6 km/h (2 Bft) NO 54 0 min 0,000 mm 0,0 UV-I 0 W/m 3,3 C 0,1 C 17,7 km/h (3 Bft) 98,00 %
23.11.2018 22:56 4,2 C 3,9 C 4,4 C 94 % 1014,4 hPa 0,0 l/m 14,6 km/h (3 Bft) O-NO 57 0 min 0,000 mm 0,0 UV-I 0 W/m 3,3 C -1,7 C 20,9 km/h (4 Bft) 94,00 %
23.11.2018 22:58 4,2 C 3,9 C 4,4 C 94 % 1014,4 hPa 0,0 l/m 11,5 km/h (2 Bft) O-NO 65 0 min 0,000 mm 0,0 UV-I 0 W/m 3,3 C 0,2 C 17,7 km/h (3 Bft) 97,87 %
23.11.2018 23:00 4,2 C 3,9 C 4,4 C 94 % 1014,5 hPa 0,0 l/m 11,8 km/h (2 Bft) O-NO 60 0 min 0,000 mm 0,0 UV-I 0 W/m 3,3 C -0,0 C 19,3 km/h (3 Bft) 97,87 %
23.11.2018 23:02 4,2 C 3,9 C 4,4 C 94 % 1014,6 hPa 0,0 l/m 9,8 km/h (2 Bft) O-NO 68 0 min 0,000 mm 0,0 UV-I 0 W/m 3,3 C 1,3 C 16,1 km/h (3 Bft) 97,37 %
23.11.2018 23:04 4,2 C 3,9 C 4,4 C 94 % 1014,6 hPa 0,0 l/m 10,8 km/h (2 Bft) O 79 0 min 0,000 mm 0,0 UV-I 0 W/m 3,3 C 0,6 C 14,5 km/h (3 Bft) 93,62 %
23.11.2018 23:06 4,2 C 3,9 C 4,4 C 94 % 1014,5 hPa 0,0 l/m 10,5 km/h (2 Bft) NO 46 0 min 0,000 mm 0,0 UV-I 0 W/m 3,3 C 0,8 C 14,5 km/h (3 Bft) 97,87 %
23.11.2018 23:08 4,3 C 3,9 C 4,4 C 94 % 1014,4 hPa 0,0 l/m 11,5 km/h (2 Bft) NO 48 0 min 0,000 mm 0,0 UV-I 0 W/m 3,4 C 0,3 C 17,7 km/h (3 Bft) 98,00 %
23.11.2018 23:10 4,3 C 3,9 C 4,4 C 94 % 1014,4 hPa 0,0 l/m 10,1 km/h (2 Bft) O-NO 70 0 min 0,000 mm 0,0 UV-I 0 W/m 3,4 C 1,2 C 14,5 km/h (3 Bft) 97,87 %
23.11.2018 23:12 4,3 C 3,9 C 4,4 C 94 % 1014,4 hPa 0,0 l/m 13,9 km/h (3 Bft) O-NO 77 0 min 0,000 mm 0,0 UV-I 0 W/m 3,4 C -1,2 C 20,9 km/h (4 Bft) 95,74 %
23.11.2018 23:14 4,3 C 3,9 C 4,4 C 94 % 1014,4 hPa 0,0 l/m 12,8 km/h (3 Bft) O 84 0 min 0,000 mm 0,0 UV-I 0 W/m 3,4 C -0,5 C 19,3 km/h (3 Bft) 97,87 %
23.11.2018 23:16 4,3 C 3,9 C 4,4 C 94 % 1014,3 hPa 0,0 l/m 11,7 km/h (2 Bft) O-NO 69 0 min 0,000 mm 0,0 UV-I 0 W/m 3,4 C 0,1 C 17,7 km/h (3 Bft) 94,00 %
23.11.2018 23:18 4,3 C 3,9 C 4,4 C 94 % 1014,3 hPa 0,0 l/m 12,6 km/h (3 Bft) O-NO 75 0 min 0,000 mm 0,0 UV-I 0 W/m 3,4 C -0,4 C 17,7 km/h (3 Bft) 100,00 %
23.11.2018 23:20 4,3 C 3,9 C 4,4 C 94 % 1014,3 hPa 0,0 l/m 14,9 km/h (3 Bft) O-NO 78 0 min 0,000 mm 0,0 UV-I 0 W/m 3,4 C -1,7 C 17,7 km/h (3 Bft) 96,00 %
23.11.2018 23:22 4,3 C 3,9 C 4,4 C 94 % 1014,3 hPa 0,0 l/m 13,0 km/h (3 Bft) O-NO 67 0 min 0,000 mm 0,0 UV-I 0 W/m 3,4 C -0,7 C 19,3 km/h (3 Bft) 97,87 %
23.11.2018 23:24 4,3 C 3,9 C 4,4 C 94 % 1014,4 hPa 0,0 l/m 15,1 km/h (3 Bft) O-NO 66 0 min 0,000 mm 0,0 UV-I 0 W/m 3,4 C -1,8 C 19,3 km/h (3 Bft) 96,00 %
23.11.2018 23:26 4,3 C 3,9 C 4,4 C 94 % 1014,3 hPa 0,0 l/m 12,9 km/h (3 Bft) O-NO 66 0 min 0,000 mm 0,0 UV-I 0 W/m 3,4 C -0,6 C 16,1 km/h (3 Bft) 93,62 %
23.11.2018 23:28 4,3 C 3,9 C 4,4 C 94 % 1014,3 hPa 0,0 l/m 9,8 km/h (2 Bft) O 83 0 min 0,000 mm 0,0 UV-I 0 W/m 3,4 C 1,4 C 16,1 km/h (3 Bft) 91,49 %
23.11.2018 23:30 4,3 C 3,9 C 4,4 C 94 % 1014,4 hPa 0,0 l/m 10,3 km/h (2 Bft) NO 39 0 min 0,000 mm 0,0 UV-I 0 W/m 3,4 C 1,1 C 16,1 km/h (3 Bft) 95,74 %
23.11.2018 23:32 4,3 C 3,9 C 4,4 C 94 % 1014,3 hPa 0,0 l/m 7,9 km/h (2 Bft) O-NO 67 0 min 0,000 mm 0,0 UV-I 0 W/m 3,4 C 3,0 C 12,9 km/h (3 Bft) 92,00 %
23.11.2018 23:34 4,3 C 3,9 C 4,4 C 94 % 1014,3 hPa 0,0 l/m 12,2 km/h (2 Bft) O-NO 69 0 min 0,000 mm 0,0 UV-I 0 W/m 3,4 C -0,2 C 20,9 km/h (4 Bft) 96,00 %
23.11.2018 23:36 4,3 C 3,9 C 4,4 C 94 % 1014,3 hPa 0,0 l/m 12,3 km/h (3 Bft) O 83 0 min 0,000 mm 0,0 UV-I 0 W/m 3,4 C -0,2 C 17,7 km/h (3 Bft) 92,11 %
23.11.2018 23:38 4,3 C 3,9 C 4,4 C 94 % 1014,3 hPa 0,0 l/m 10,8 km/h (2 Bft) NO 51 0 min 0,000 mm 0,0 UV-I 0 W/m 3,4 C 0,7 C 16,1 km/h (3 Bft) 95,74 %
23.11.2018 23:40 4,3 C 3,9 C 4,4 C 94 % 1014,3 hPa 0,0 l/m 12,7 km/h (3 Bft) O 82 0 min 0,000 mm 0,0 UV-I 0 W/m 3,4 C -0,5 C 17,7 km/h (3 Bft) 93,62 %
23.11.2018 23:42 4,3 C 3,9 C 4,4 C 94 % 1014,2 hPa 0,0 l/m 14,6 km/h (3 Bft) O-NO 73 0 min 0,000 mm 0,0 UV-I 0 W/m 3,4 C -1,6 C 20,9 km/h (4 Bft) 93,62 %
23.11.2018 23:44 4,3 C 3,9 C 4,4 C 94 % 1014,2 hPa 0,0 l/m 14,8 km/h (3 Bft) NO 55 0 min 0,000 mm 0,0 UV-I 0 W/m 3,4 C -1,7 C 19,3 km/h (3 Bft) 93,62 %
23.11.2018 23:46 4,3 C 3,9 C 4,4 C 94 % 1014,2 hPa 0,0 l/m 13,6 km/h (3 Bft) O-NO 78 0 min 0,000 mm 0,0 UV-I 0 W/m 3,4 C -1,0 C 19,3 km/h (3 Bft) 94,00 %
23.11.2018 23:48 4,3 C 3,9 C 4,4 C 94 % 1014,2 hPa 0,0 l/m 14,8 km/h (3 Bft) O-NO 61 0 min 0,000 mm 0,0 UV-I 0 W/m 3,4 C -1,7 C 17,7 km/h (3 Bft) 93,62 %
23.11.2018 23:50 4,3 C 3,9 C 4,4 C 94 % 1014,2 hPa 0,0 l/m 13,0 km/h (3 Bft) O-NO 74 0 min 0,000 mm 0,0 UV-I 0 W/m 3,4 C -0,7 C 19,3 km/h (3 Bft) 91,49 %
23.11.2018 23:52 4,3 C 3,9 C 4,4 C 94 % 1014,2 hPa 0,0 l/m 12,9 km/h (3 Bft) O-NO 67 0 min 0,000 mm 0,0 UV-I 0 W/m 3,4 C -0,6 C 19,3 km/h (3 Bft) 92,00 %
23.11.2018 23:54 4,3 C 3,9 C 4,4 C 94 % 1014,1 hPa 0,0 l/m 17,1 km/h (3 Bft) O 87 0 min 0,000 mm 0,0 UV-I 0 W/m 3,4 C -2,8 C 20,9 km/h (4 Bft) 93,62 %
23.11.2018 23:56 4,4 C 3,9 C 4,4 C 94 % 1014,2 hPa 0,0 l/m 15,9 km/h (3 Bft) O 94 0 min 0,000 mm 0,0 UV-I 0 W/m 3,5 C -2,1 C 27,4 km/h (4 Bft) 93,62 %
23.11.2018 23:58 4,3 C 3,9 C 4,4 C 94 % 1014,2 hPa 0,0 l/m 17,8 km/h (3 Bft) O-NO 77 0 min 0,000 mm 0,0 UV-I 0 W/m 3,4 C -3,1 C 24,1 km/h (4 Bft) 92,31 %
_ Min-Zeit 02:54 00:00 00:14 21:58 23:54 - 01:38 - - - - - - 02:54 16:06 01:38 08:16
Minimum _ 1,8 C 3,9 C 2,2 C 92 % 1014,1 hPa - 0,0 km/h (0 Bft) - - - - - - 1,4 C -5,0 C 0,0 km/h (0 Bft) 86,67 %
_ Max-Zeit 18:28 00:00 18:54 00:16 10:08 16:06 17:40 - - 00:00 11:00 00:00 11:48 18:28 20:36 17:40 00:06
Maximum _ 4,8 C 3,9 C 5,0 C 97 % 1023,0 hPa 0,2 l/m 22,8 km/h
O-NO (4 Bft)
- - 0 min 0,026 mm 0,0 UV-I 69 W/m 4,1 C 4,2 C 35,4 km/h
O (5 Bft)
100,00 %
Durchschnitt _ 3,2 C 3,9 C 3,5 C 96 % 1020,2 hPa #0,2 l/m 9,3 km/h (2 Bft) O-NO - #0 min. #0,152 mm 0,0 UV-I 33 W/m 2,6 C 0,5 C 13,8 km/h (3 Bft) 97,10 %